[[{"header":{"parameterUnit":"m.s-1","parameterCategory":1,"la1":31.0,"la2":29.5877,"lo1":-88.7671,"lo2":-86.6584,"dy":0.0162,"dx":0.0185,"nx":115,"ny":88,"refTime":"2023-07-25T06:00:00:Z","depth":0,"parameterNumber":2,"parameterNumberName":"U-component_of_WINDS"},"data":[0.0,0.0,0.0,0.0,0.0,0.0,0.0,0.0,0.0,0.0,0.0,0.0,0.0,0.0,0.0,0.0,0.0,0.0,0.0,0.0,0.0,0.0,0.0,0.0,0.0,0.0,0.0,0.0,0.0,0.0,0.0,0.0,0.0,0.0,0.0,0.0,0.0,0.0,0.0,0.0,0.0,0.0,0.0,0.0,0.0,0.0,0.0,0.0,0.0,0.0,0.0,0.0,0.0,0.0,0.0,0.0,0.0,0.0,0.0,0.0,0.0,0.0,0.0,0.0,0.0,0.0,0.0,0.0,0.0,0.0,0.0,0.0,0.0,0.0,0.0,0.0,0.0,0.0,0.0,0.0,0.0,0.0,0.0,0.0,0.0,0.0,0.0,0.0,0.0,0.0,0.0,0.0,0.0,0.0,0.0,0.0,0.0,0.0,0.0,0.0,0.0,0.0,0.0,0.0,0.0,0.0,0.0,0.0,0.0,0.0,0.0,0.0,0.0,0.0,0.0,0.0,0.0,0.0,0.0,0.0,0.0,0.0,0.0,0.0,0.0,0.0,0.0,0.0,0.0,0.0,0.0,0.0,0.0,0.0,0.0,0.0,0.0,0.0,0.0,0.0,0.0,0.0,0.0,0.0,0.0,0.0,0.0,0.0,0.0,0.0,0.0,0.0,0.0,0.0,0.0,0.0,0.0,0.0,0.0,0.0,0.0,0.0,0.0,0.0,0.0,0.0,0.0,0.0,0.0,0.0,0.0,0.0,0.0,0.0,0.0,0.0,0.0,0.0,0.0,0.0,0.0,0.0,0.0,0.0,0.0,0.0,0.0,0.0,0.0,0.0,0.0,0.0,0.0,0.0,0.0,0.0,0.0,0.0,0.0,0.0,0.0,0.0,0.0,0.0,0.0,0.0,0.0,0.0,0.0,0.0,0.0,0.0,0.0,0.0,0.0,0.0,0.0,0.0,0.0,0.0,0.0,0.0,0.0,0.0,0.0,0.0,0.0,0.0,0.0,0.0,0.0,0.0,0.0,0.0,0.0,0.0,0.0,0.0,0.0,0.0,0.0,0.0,0.0,0.0,0.0,0.0,0.0,0.0,0.0,0.0,0.0,0.0,0.0,0.0,0.0,0.0,0.0,0.0,0.0,0.0,0.0,0.0,0.0,0.0,0.0,0.0,0.0,0.0,0.0,0.0,0.0,0.0,0.0,0.0,0.0,0.0,0.0,0.0,0.0,0.0,0.0,0.0,0.0,0.0,0.0,0.0,0.0,0.0,0.0,0.0,0.0,0.0,0.0,0.0,0.0,0.0,0.0,0.0,0.0,0.0,0.0,0.0,0.0,0.0,0.0,0.0,0.0,0.0,0.0,0.0,0.0,0.0,0.0,0.0,0.0,0.0,0.0,0.0,0.0,0.0,0.0,0.0,0.0,0.0,0.0,0.0,0.0,0.0,0.0,0.0,0.0,0.0,0.0,0.0,0.0,0.0,0.0,0.0,0.0,0.0,0.0,0.0,0.0,0.0,0.0,0.0,0.0,0.0,0.0,0.0,0.0,0.0,0.0,0.0,0.0,0.0,0.0,0.0,0.0,0.0,0.0,0.0,0.0,0.0,0.0,0.0,0.0,0.0,0.0,0.0,0.0,0.0,0.0,0.0,0.0,0.0,0.0,0.0,0.0,0.0,0.0,0.0,0.0,0.0,0.0,0.0,0.0,0.0,0.0,0.0,0.0,0.0,0.0,0.0,0.0,0.0,0.0,0.0,0.0,0.0,0.0,0.0,0.0,0.0,0.0,0.0,0.0,0.0,0.0,0.0,0.0,0.0,0.0,0.0,0.0,0.0,0.0,0.0,0.0,0.0,0.0,0.0,0.0,0.0,0.0,0.0,0.0,0.0,0.0,0.0,0.0,0.0,0.0,0.0,0.0,0.0,0.0,0.0,0.0,0.0,0.0,0.0,0.0,0.0,0.0,0.0,0.0,0.0,0.0,0.0,0.0,0.0,0.0,0.0,0.0,0.0,0.0,0.0,0.0,0.0,0.0,0.0,0.0,0.0,0.0,0.0,0.0,0.0,0.0,0.0,0.0,0.0,0.0,0.0,0.0,0.0,0.0,0.0,0.0,0.0,0.0,0.0,0.0,0.0,0.0,0.0,0.0,0.0,0.0,0.0,0.0,0.0,0.0,0.0,0.0,0.0,0.0,0.0,0.0,0.0,0.0,0.0,0.0,0.0,0.0,0.0,0.0,0.0,0.0,0.0,0.0,0.0,0.0,0.0,0.0,0.0,0.0,0.0,0.0,0.0,0.0,0.0,0.0,0.0,0.0,0.0,0.0,0.0,0.0,0.0,0.0,0.0,0.0,0.0,0.0,0.0,0.0,0.0,0.0,0.0,0.0,0.0,0.0,0.0,0.0,0.0,0.0,0.0,0.0,0.0,0.0,0.0,0.0,0.0,0.0,0.0,0.0,0.0,0.0,0.0,0.0,0.0,0.0,0.0,0.0,0.0,0.0,0.0,0.0,0.0,0.0,0.0,0.0,0.0,0.0,0.0,0.0,0.0,0.0,0.0,0.0,0.0,0.0,0.0,0.0,0.0,0.0,0.0,0.0,0.0,0.0,0.0,0.0,0.0,0.0,0.0,0.0,0.0,0.0,0.0,0.0,0.0,0.0,0.0,0.0,0.0,0.0,0.0,0.0,0.0,0.0,0.0,0.0,0.0,0.0,0.0,0.0,0.0,0.0,0.0,0.0,0.0,0.0,0.0,0.0,0.0,0.0,0.0,0.0,0.0,0.0,0.0,0.0,0.0,0.0,0.0,0.0,0.0,0.0,0.0,0.0,0.0,0.0,0.0,0.0,0.0,0.0,0.0,0.0,0.0,0.0,0.0,0.0,0.0,0.0,0.0,0.0,0.0,0.0,0.0,0.0,0.0,0.0,0.0,0.0,0.0,0.0,0.0,0.0,0.0,0.0,0.0,0.0,0.0,0.0,0.0,0.0,0.0,0.0,0.0,0.0,0.0,0.0,0.0,0.0,0.0,0.0,0.0,0.0,0.0,0.0,0.0,0.0,0.0,0.0,0.0,0.0,0.0,0.0,0.0,0.0,0.0,0.0,0.0,0.0,0.0,0.0,0.0,0.0,0.0,0.0,0.0,0.0,0.0,0.0,0.0,0.0,0.0,0.0,0.0,0.0,0.0,0.0,0.0,0.0,0.0,0.0,0.0,0.0,0.0,0.0,0.0,0.0,0.0,0.0,0.0,0.0,0.0,0.0,0.0,0.0,0.0,0.0,0.0,0.0,0.0,0.0,0.0,0.0,0.0,0.0,0.0,0.0,0.0,0.0,0.0,0.0,0.0,0.0,0.0,0.0,0.0,0.0,0.0,0.0,0.0,0.0,0.0,0.0,0.0,0.0,0.0,0.0,0.0,0.0,0.0,0.0,0.0,0.0,0.0,0.0,0.0,0.0,0.0,0.0,0.0,0.0,0.0,0.0,0.0,0.0,0.0,0.0,0.0,0.0,0.0,0.0,0.0,0.0,0.0,0.0,0.0,0.0,0.0,0.0,0.0,0.0,0.0,0.0,0.0,0.0,0.0,0.0,0.0,0.0,0.0,0.0,0.0,0.0,0.0,0.0,0.0,0.0,0.0,0.0,0.0,0.0,0.0,0.0,0.0,0.0,0.0,0.0,0.0,0.0,0.0,0.0,0.0,0.0,0.0,0.0,0.0,0.0,0.0,0.0,0.0,0.0,0.0,0.0,0.0,0.0,0.0,0.0,0.0,0.0,0.0,0.0,0.0,0.0,0.0,0.0,0.0,0.0,0.0,0.0,0.0,0.0,0.0,0.0,0.0,0.0,0.0,0.0,0.0,0.0,0.0,0.0,0.0,0.0,0.0,0.0,0.0,0.0,0.0,0.0,0.0,0.0,0.0,0.0,0.0,0.0,0.0,0.0,0.0,0.0,0.0,0.0,0.0,0.0,0.0,0.0,0.0,0.0,0.0,0.0,0.0,0.0,0.0,0.0,0.0,0.0,0.0,0.0,0.0,0.0,0.0,0.0,0.0,0.0,0.0,0.0,0.0,0.0,0.0,0.0,0.0,0.0,0.0,0.0,0.0,0.0,0.0,0.0,0.0,0.0,0.0,0.0,0.0,0.0,0.0,0.0,0.0,0.0,0.0,0.0,0.0,0.0,0.0,0.0,0.0,0.0,0.0,0.0,0.0,0.0,0.0,0.0,0.0,0.0,0.0,0.0,0.0,0.0,0.0,0.0,0.0,-2.1361,0.0,0.0,0.0,0.0,0.0,0.0,0.0,0.0,0.0,0.0,0.0,0.0,0.0,0.0,0.0,0.0,0.0,0.0,0.0,0.0,0.0,0.0,0.0,0.0,0.0,0.0,0.0,0.0,0.0,0.0,0.0,0.0,0.0,0.0,0.0,0.0,0.0,0.0,0.0,0.0,0.0,0.0,0.0,0.0,0.0,0.0,0.0,0.0,0.0,0.0,0.0,0.0,0.0,0.0,0.0,0.0,0.0,0.0,0.0,0.0,0.0,0.0,0.0,0.0,0.0,0.0,0.0,0.0,0.0,0.0,0.0,0.0,0.0,0.0,0.0,0.0,0.0,0.0,0.0,0.0,0.0,0.0,0.0,0.0,0.0,0.0,0.0,0.0,0.0,0.0,0.0,0.0,0.0,0.0,0.0,0.0,0.0,0.0,0.0,0.0,0.0,0.0,0.0,0.0,0.0,0.0,0.0,0.0,0.0,0.0,-2.1262,-2.1907,-2.2425,-2.2556,-2.2213,0.0,0.0,0.0,0.0,0.0,0.0,0.0,0.0,0.0,0.0,0.0,0.0,0.0,0.0,0.0,0.0,0.0,0.0,0.0,0.0,0.0,0.0,0.0,0.0,0.0,0.0,0.0,0.0,0.0,0.0,0.0,0.0,0.0,0.0,0.0,0.0,0.0,0.0,0.0,0.0,0.0,0.0,0.0,0.0,0.0,0.0,0.0,0.0,0.0,0.0,0.0,0.0,0.0,0.0,0.0,0.0,0.0,0.0,0.0,0.0,0.0,0.0,0.0,0.0,0.0,0.0,0.0,0.0,0.0,0.0,0.0,0.0,0.0,0.0,0.0,0.0,0.0,0.0,0.0,0.0,0.0,0.0,0.0,0.0,0.0,0.0,0.0,0.0,0.0,0.0,0.0,0.0,0.0,0.0,0.0,0.0,0.0,0.0,0.0,0.0,0.0,0.0,0.0,0.0,0.0,0.0,0.0,0.0,0.0,0.0,0.0,0.0,-2.311,-2.3189,-2.3026,0.0,0.0,0.0,0.0,0.0,0.0,0.0,0.0,0.0,0.0,0.0,0.0,0.0,0.0,0.0,0.0,0.0,0.0,0.0,0.0,0.0,0.0,0.0,0.0,0.0,0.0,0.0,0.0,0.0,0.0,0.0,0.0,0.0,0.0,0.0,0.0,0.0,0.0,0.0,0.0,0.0,0.0,0.0,0.0,0.0,0.0,0.0,0.0,0.0,0.0,0.0,0.0,0.0,0.0,0.0,0.0,0.0,0.0,0.0,0.0,0.0,0.0,0.0,0.0,0.0,0.0,0.0,0.0,0.0,0.0,0.0,0.0,0.0,0.0,0.0,0.0,0.0,0.0,0.0,0.0,0.0,0.0,0.0,0.0,0.0,0.0,0.0,0.0,0.0,0.0,0.0,0.0,0.0,0.0,0.0,0.0,0.0,0.0,0.0,0.0,0.0,0.0,0.0,0.0,0.0,0.0,0.0,0.0,0.0,0.0,-2.3434,-2.379,-2.4555,0.0,-2.3765,0.0,0.0,0.0,0.0,0.0,0.0,0.0,0.0,0.0,0.0,0.0,0.0,0.0,0.0,0.0,0.0,0.0,0.0,0.0,0.0,0.0,0.0,0.0,0.0,0.0,0.0,0.0,0.0,0.0,0.0,0.0,0.0,0.0,0.0,0.0,0.0,0.0,0.0,0.0,0.0,0.0,0.0,0.0,0.0,0.0,0.0,0.0,0.0,0.0,0.0,0.0,0.0,0.0,0.0,0.0,0.0,0.0,0.0,0.0,0.0,0.0,0.0,0.0,0.0,0.0,0.0,0.0,0.0,0.0,0.0,0.0,0.0,0.0,0.0,0.0,0.0,0.0,0.0,0.0,0.0,0.0,0.0,0.0,0.0,0.0,0.0,0.0,0.0,0.0,0.0,0.0,0.0,0.0,0.0,0.0,0.0,0.0,0.0,0.0,0.0,0.0,0.0,0.0,0.0,0.0,0.0,0.0,0.0,0.0,0.0,-2.463,-2.5373,-2.5769,-2.5315,0.0,0.0,0.0,0.0,0.0,0.0,0.0,0.0,0.0,0.0,0.0,0.0,0.0,0.0,0.0,0.0,0.0,0.0,0.0,0.0,0.0,0.0,0.0,0.0,0.0,0.0,0.0,0.0,0.0,0.0,0.0,0.0,0.0,0.0,0.0,0.0,0.0,0.0,0.0,0.0,0.0,0.0,0.0,0.0,0.0,0.0,0.0,0.0,0.0,0.0,0.0,0.0,0.0,0.0,0.0,0.0,0.0,0.0,0.0,0.0,0.0,0.0,0.0,0.0,0.0,0.0,0.0,0.0,0.0,0.0,0.0,0.0,0.0,0.0,0.0,0.0,0.0,0.0,0.0,0.0,0.0,0.0,0.0,0.0,0.0,0.0,0.0,0.0,0.0,0.0,0.0,0.0,0.0,0.0,0.0,0.0,0.0,0.0,0.0,0.0,0.0,0.0,0.0,0.0,0.0,0.0,0.0,0.0,0.0,0.0,-2.4204,-2.5636,-2.6683,-2.6591,-2.5841,-2.4499,0.0,0.0,0.0,0.0,0.0,0.0,0.0,0.0,0.0,0.0,0.0,0.0,0.0,0.0,0.0,0.0,0.0,0.0,0.0,0.0,0.0,0.0,0.0,0.0,0.0,0.0,0.0,0.0,0.0,0.0,0.0,0.0,0.0,0.0,0.0,0.0,0.0,0.0,0.0,0.0,0.0,0.0,0.0,0.0,0.0,0.0,0.0,0.0,0.0,0.0,0.0,0.0,0.0,0.0,0.0,0.0,0.0,0.0,0.0,0.0,0.0,0.0,0.0,0.0,0.0,0.0,0.0,0.0,0.0,0.0,0.0,0.0,0.0,0.0,0.0,0.0,0.0,0.0,0.0,0.0,0.0,0.0,0.0,0.0,0.0,0.0,0.0,0.0,0.0,0.0,0.0,0.0,0.0,0.0,0.0,0.0,0.0,0.0,0.0,0.0,0.0,0.0,0.0,0.0,0.0,0.0,0.0,0.0,-2.4186,-2.5386,-2.6513,-2.7631,-2.6916,-2.6364,0.0,0.0,0.0,0.0,0.0,0.0,0.0,0.0,0.0,0.0,0.0,0.0,0.0,0.0,0.0,0.0,0.0,0.0,0.0,0.0,0.0,0.0,0.0,0.0,0.0,0.0,0.0,0.0,0.0,0.0,0.0,0.0,0.0,0.0,0.0,0.0,0.0,0.0,0.0,0.0,0.0,0.0,0.0,0.0,0.0,0.0,0.0,0.0,0.0,0.0,0.0,0.0,0.0,0.0,0.0,0.0,0.0,0.0,0.0,0.0,0.0,0.0,0.0,0.0,0.0,0.0,0.0,0.0,0.0,0.0,0.0,0.0,0.0,0.0,0.0,0.0,0.0,0.0,0.0,0.0,0.0,0.0,0.0,0.0,0.0,0.0,0.0,0.0,0.0,0.0,0.0,0.0,0.0,0.0,0.0,0.0,0.0,0.0,0.0,0.0,0.0,0.0,0.0,0.0,0.0,0.0,0.0,0.0,0.0,-2.4398,-2.7153,-2.8853,-2.9243,-2.844,-2.7366,0.0,0.0,0.0,0.0,0.0,0.0,0.0,0.0,0.0,0.0,0.0,0.0,0.0,0.0,0.0,0.0,0.0,0.0,0.0,0.0,0.0,0.0,0.0,0.0,0.0,0.0,0.0,0.0,0.0,0.0,0.0,0.0,0.0,0.0,0.0,0.0,0.0,0.0,0.0,0.0,0.0,0.0,0.0,0.0,0.0,0.0,0.0,0.0,0.0,0.0,0.0,0.0,0.0,0.0,0.0,0.0,0.0,0.0,0.0,0.0,0.0,0.0,0.0,0.0,0.0,0.0,0.0,0.0,0.0,0.0,0.0,0.0,0.0,0.0,0.0,0.0,0.0,0.0,0.0,0.0,0.0,0.0,0.0,0.0,0.0,0.0,0.0,0.0,0.0,0.0,0.0,0.0,0.0,0.0,0.0,0.0,0.0,0.0,0.0,0.0,0.0,0.0,0.0,0.0,0.0,0.0,0.0,0.0,0.0,-2.6065,0.0,-3.0494,-3.049,-2.9379,-2.7998,0.0,0.0,0.0,0.0,0.0,0.0,0.0,0.0,0.0,0.0,0.0,0.0,0.0,0.0,0.0,0.0,0.0,0.0,0.0,0.0,0.0,0.0,0.0,0.0,0.0,0.0,0.0,0.0,0.0,0.0,0.0,0.0,0.0,0.0,0.0,0.0,0.0,0.0,0.0,0.0,0.0,0.0,0.0,0.0,0.0,0.0,0.0,0.0,0.0,0.0,0.0,0.0,0.0,0.0,0.0,0.0,0.0,0.0,0.0,0.0,0.0,0.0,0.0,0.0,0.0,0.0,0.0,0.0,0.0,0.0,0.0,0.0,0.0,0.0,0.0,0.0,0.0,0.0,0.0,0.0,0.0,0.0,0.0,0.0,0.0,0.0,0.0,0.0,0.0,0.0,0.0,0.0,0.0,0.0,0.0,0.0,0.0,0.0,0.0,0.0,0.0,0.0,0.0,0.0,0.0,0.0,0.0,0.0,-2.4929,-2.9465,-3.0675,-3.1252,-3.1157,-2.9644,-2.8199,0.0,0.0,0.0,0.0,0.0,0.0,0.0,0.0,0.0,0.0,0.0,0.0,0.0,0.0,0.0,0.0,0.0,0.0,0.0,0.0,0.0,0.0,0.0,0.0,0.0,0.0,0.0,0.0,0.0,0.0,0.0,0.0,0.0,0.0,0.0,0.0,0.0,0.0,0.0,0.0,0.0,0.0,0.0,0.0,0.0,0.0,0.0,0.0,0.0,0.0,0.0,0.0,0.0,0.0,0.0,0.0,0.0,0.0,0.0,0.0,0.0,0.0,0.0,0.0,0.0,0.0,0.0,0.0,0.0,0.0,0.0,0.0,0.0,0.0,0.0,0.0,0.0,0.0,0.0,0.0,0.0,0.0,0.0,0.0,0.0,0.0,0.0,0.0,0.0,0.0,0.0,0.0,0.0,0.0,0.0,0.0,0.0,0.0,0.0,0.0,0.0,0.0,0.0,0.0,0.0,0.0,0.0,0.0,0.0,-3.0377,-3.1987,-3.2514,-3.1956,-3.0827,-2.9139,0.0,0.0,0.0,0.0,0.0,0.0,0.0,0.0,0.0,0.0,0.0,0.0,0.0,0.0,0.0,0.0,0.0,0.0,0.0,0.0,0.0,0.0,0.0,0.0,0.0,0.0,0.0,0.0,0.0,0.0,0.0,0.0,0.0,0.0,0.0,0.0,0.0,0.0,0.0,0.0,0.0,0.0,0.0,0.0,0.0,0.0,0.0,0.0,0.0,0.0,0.0,0.0,0.0,0.0,0.0,0.0,0.0,0.0,0.0,0.0,0.0,0.0,0.0,0.0,0.0,0.0,0.0,0.0,0.0,0.0,0.0,0.0,0.0,0.0,0.0,0.0,0.0,0.0,0.0,0.0,0.0,0.0,0.0,0.0,0.0,0.0,0.0,0.0,0.0,0.0,0.0,0.0,0.0,0.0,0.0,0.0,0.0,0.0,0.0,0.0,0.0,0.0,0.0,0.0,0.0,0.0,0.0,0.0,0.0,-3.2124,-3.325,-3.3558,-3.3031,-3.1805,-2.9845,-2.7098,0.0,0.0,0.0,0.0,0.0,0.0,0.0,0.0,0.0,0.0,0.0,0.0,0.0,0.0,0.0,0.0,0.0,0.0,0.0,0.0,0.0,0.0,0.0,0.0,0.0,0.0,0.0,0.0,0.0,0.0,0.0,0.0,0.0,0.0,0.0,0.0,0.0,0.0,0.0,0.0,0.0,0.0,0.0,0.0,0.0,0.0,0.0,0.0,0.0,0.0,0.0,0.0,0.0,0.0,0.0,0.0,0.0,0.0,0.0,0.0,0.0,0.0,0.0,0.0,0.0,0.0,0.0,0.0,0.0,0.0,0.0,0.0,0.0,0.0,0.0,0.0,0.0,0.0,0.0,0.0,0.0,0.0,0.0,0.0,0.0,0.0,0.0,0.0,0.0,0.0,0.0,0.0,0.0,0.0,0.0,0.0,0.0,0.0,0.0,0.0,0.0,0.0,0.0,0.0,0.0,0.0,0.0,0.0,-3.4567,-3.4547,-3.4433,-3.4284,-3.268,-3.0435,0.0,0.0,0.0,0.0,0.0,0.0,0.0,0.0,0.0,0.0,0.0,0.0,0.0,0.0,0.0,0.0,0.0,0.0,0.0,0.0,0.0,0.0,0.0,0.0,0.0,0.0,0.0,0.0,0.0,0.0,0.0,0.0,0.0,0.0,0.0,0.0,0.0,0.0,0.0,0.0,0.0,0.0,0.0,0.0,0.0,0.0,0.0,0.0,0.0,0.0,0.0,0.0,0.0,0.0,0.0,0.0,0.0,0.0,0.0,0.0,0.0,0.0,0.0,0.0,0.0,0.0,0.0,0.0,0.0,0.0,0.0,0.0,0.0,0.0,0.0,0.0,0.0,0.0,0.0,0.0,0.0,0.0,0.0,0.0,0.0,0.0,0.0,0.0,0.0,0.0,0.0,0.0,0.0,0.0,0.0,0.0,0.0,0.0,0.0,0.0,0.0,0.0,0.0,0.0,0.0,0.0,0.0,0.0,0.0,-3.486,-3.6233,-3.6448,-3.5553,-3.4428,-3.2006,0.0,0.0,0.0,0.0,0.0,0.0,0.0,0.0,0.0,0.0,0.0,0.0,0.0,0.0,0.0,0.0,0.0,0.0,0.0,0.0,0.0,0.0,0.0,0.0,0.0,0.0,0.0,0.0,0.0,0.0,0.0,0.0,0.0,0.0,0.0,0.0,0.0,0.0,0.0,0.0,0.0,0.0,0.0,0.0,0.0,0.0,0.0,0.0,0.0,0.0,0.0,0.0,0.0,0.0,0.0,0.0,0.0,0.0,0.0,0.0,0.0,0.0,0.0,0.0,0.0,0.0,0.0,0.0,0.0,0.0,0.0,0.0,0.0,0.0,0.0,0.0,0.0,0.0,0.0,0.0,0.0,0.0,0.0,0.0,0.0,0.0,0.0,0.0,0.0,0.0,0.0,0.0,0.0,0.0,0.0,0.0,0.0,0.0,0.0,0.0,0.0,0.0,0.0,0.0,0.0,0.0,0.0,0.0,-3.2227,-3.5735,-3.7532,-3.8075,-3.7327,-3.569,-3.2988,0.0,0.0,0.0,0.0,0.0,0.0,0.0,0.0,0.0,0.0,0.0,0.0,0.0,0.0,0.0,0.0,0.0,0.0,0.0,0.0,0.0,0.0,0.0,0.0,0.0,0.0,0.0,0.0,0.0,0.0,0.0,0.0,0.0,0.0,0.0,0.0,0.0,0.0,0.0,0.0,0.0,0.0,0.0,0.0,0.0,0.0,0.0,0.0,0.0,0.0,0.0,0.0,0.0,0.0,0.0,0.0,0.0,0.0,0.0,0.0,0.0,0.0,0.0,0.0,0.0,0.0,0.0,0.0,0.0,0.0,0.0,0.0,0.0,0.0,0.0,0.0,0.0,0.0,0.0,0.0,0.0,0.0,0.0,0.0,0.0,0.0,0.0,0.0,0.0,0.0,0.0,0.0,0.0,0.0,0.0,0.0,0.0,0.0,0.0,0.0,0.0,0.0,0.0,0.0,0.0,0.0,0.0,0.0,-3.2784,-3.6646,-3.8373,-3.9161,-3.8988,-3.6579,-3.3634,0.0,0.0,0.0,0.0,0.0,0.0,0.0,0.0,0.0,0.0,0.0,0.0,0.0,0.0,0.0,0.0,0.0,0.0,0.0,0.0,0.0,0.0,0.0,0.0,0.0,0.0,0.0,0.0,0.0,0.0,0.0,0.0,0.0,0.0,0.0,0.0,0.0,0.0,0.0,0.0,0.0,0.0,0.0,0.0,0.0,0.0,0.0,0.0,0.0,0.0,0.0,0.0,0.0,0.0,0.0,0.0,0.0,0.0,0.0,0.0,0.0,0.0,0.0,0.0,0.0,0.0,0.0,0.0,0.0,0.0,0.0,0.0,0.0,0.0,0.0,0.0,0.0,0.0,0.0,0.0,0.0,0.0,0.0,0.0,0.0,0.0,0.0,0.0,0.0,0.0,0.0,0.0,0.0,0.0,0.0,0.0,0.0,0.0,0.0,0.0,0.0,0.0,0.0,0.0,0.0,0.0,0.0,0.0,-3.3074,-3.6249,-3.7927,-3.8666,-3.856,-3.7119,-3.4517,0.0,0.0,0.0,0.0,0.0,0.0,0.0,0.0,0.0,0.0,0.0,0.0,0.0,0.0,0.0,0.0,0.0,0.0,0.0,0.0,0.0,0.0,0.0,0.0,0.0,0.0,0.0,0.0,0.0,0.0,0.0,0.0,0.0,0.0,0.0,0.0,0.0,0.0,0.0,0.0,0.0,0.0,0.0,0.0,0.0,0.0,0.0,0.0,-2.0714,0.0,0.0,0.0,0.0,0.0,0.0,0.0,0.0,0.0,0.0,0.0,0.0,0.0,0.0,0.0,0.0,0.0,0.0,0.0,0.0,0.0,0.0,0.0,0.0,0.0,0.0,0.0,0.0,0.0,0.0,0.0,0.0,0.0,0.0,0.0,0.0,0.0,0.0,0.0,0.0,0.0,0.0,0.0,0.0,0.0,0.0,0.0,0.0,0.0,0.0,0.0,0.0,0.0,0.0,0.0,0.0,0.0,0.0,0.0,-3.32,-3.6507,-3.7791,-3.8368,-3.8225,-3.6981,-3.4636,0.0,0.0,0.0,0.0,0.0,0.0,0.0,0.0,0.0,0.0,0.0,0.0,0.0,0.0,0.0,0.0,0.0,0.0,0.0,0.0,0.0,0.0,0.0,0.0,0.0,0.0,0.0,0.0,0.0,0.0,0.0,0.0,0.0,0.0,0.0,0.0,0.0,0.0,0.0,0.0,0.0,0.0,0.0,0.0,0.0,0.0,0.0,0.0,0.0,0.0,0.0,0.0,0.0,0.0,0.0,0.0,0.0,0.0,0.0,0.0,0.0,0.0,0.0,0.0,0.0,0.0,0.0,0.0,0.0,0.0,0.0,0.0,0.0,0.0,0.0,0.0,0.0,0.0,0.0,0.0,0.0,0.0,0.0,0.0,0.0,0.0,0.0,0.0,0.0,0.0,0.0,0.0,0.0,0.0,0.0,0.0,0.0,0.0,0.0,0.0,0.0,0.0,0.0,0.0,0.0,0.0,0.0,-3.0156,-3.3155,-3.6711,-3.7598,-3.7944,-3.7874,-3.6293,-3.4053,-3.1185,0.0,0.0,0.0,0.0,0.0,0.0,0.0,0.0,0.0,0.0,0.0,0.0,0.0,0.0,0.0,0.0,0.0,0.0,0.0,0.0,0.0,0.0,0.0,0.0,0.0,0.0,0.0,0.0,0.0,0.0,0.0,0.0,0.0,0.0,0.0,0.0,0.0,0.0,-1.9007,-2.025,0.0,0.0,0.0,0.0,0.0,0.0,0.0,0.0,-2.0906,0.0,0.0,0.0,0.0,0.0,0.0,0.0,0.0,0.0,0.0,0.0,0.0,0.0,0.0,0.0,0.0,0.0,0.0,0.0,0.0,0.0,0.0,0.0,0.0,0.0,0.0,0.0,0.0,0.0,0.0,0.0,0.0,0.0,0.0,0.0,0.0,0.0,0.0,0.0,0.0,0.0,0.0,0.0,0.0,0.0,0.0,0.0,0.0,0.0,0.0,0.0,0.0,0.0,0.0,0.0,0.0,-2.6911,-2.9756,-3.272,-3.5751,-3.6621,-3.7028,-3.6937,-3.4939,-3.2357,-2.9394,0.0,0.0,0.0,0.0,0.0,0.0,0.0,0.0,0.0,0.0,0.0,0.0,0.0,0.0,0.0,0.0,0.0,0.0,0.0,0.0,0.0,0.0,0.0,0.0,0.0,0.0,0.0,0.0,0.0,0.0,0.0,0.0,0.0,0.0,0.0,0.0,0.0,0.0,0.0,-2.0732,-2.182,0.0,0.0,0.0,0.0,0.0,0.0,0.0,0.0,-2.1449,0.0,0.0,0.0,0.0,0.0,0.0,0.0,0.0,0.0,0.0,0.0,0.0,0.0,0.0,0.0,0.0,0.0,0.0,0.0,0.0,0.0,0.0,0.0,0.0,0.0,0.0,0.0,0.0,0.0,0.0,0.0,0.0,0.0,0.0,0.0,0.0,0.0,0.0,0.0,0.0,0.0,0.0,0.0,0.0,0.0,0.0,0.0,0.0,0.0,0.0,0.0,0.0,0.0,0.0,0.0,-2.7249,-2.9854,-3.2628,-3.5481,-3.6383,-3.6609,-3.6163,-3.4327,-3.1921,0.0,0.0,0.0,0.0,0.0,0.0,0.0,0.0,0.0,0.0,0.0,0.0,0.0,0.0,0.0,0.0,0.0,0.0,0.0,0.0,0.0,0.0,0.0,0.0,0.0,0.0,0.0,0.0,0.0,0.0,0.0,0.0,0.0,0.0,0.0,0.0,0.0,0.0,0.0,0.0,-2.2128,-2.3144,-2.3736,0.0,0.0,0.0,0.0,0.0,0.0,-2.3027,-2.2519,0.0,0.0,0.0,0.0,0.0,0.0,0.0,0.0,0.0,0.0,0.0,0.0,0.0,0.0,0.0,0.0,0.0,0.0,0.0,0.0,0.0,0.0,0.0,0.0,0.0,0.0,0.0,0.0,0.0,0.0,0.0,0.0,0.0,0.0,0.0,0.0,0.0,0.0,0.0,0.0,0.0,0.0,0.0,0.0,0.0,0.0,0.0,0.0,0.0,0.0,0.0,0.0,0.0,0.0,0.0,-2.7518,-2.9899,-3.2499,-3.5217,-3.5926,-3.596,-3.5296,-3.3527,-3.1214,0.0,0.0,0.0,0.0,0.0,0.0,0.0,0.0,0.0,0.0,0.0,0.0,0.0,0.0,0.0,0.0,0.0,0.0,0.0,0.0,0.0,0.0,0.0,0.0,0.0,0.0,0.0,0.0,0.0,0.0,0.0,0.0,0.0,0.0,0.0,0.0,0.0,0.0,0.0,0.0,0.0,-2.4216,-2.5278,-2.5319,0.0,0.0,0.0,0.0,-2.4365,-2.3929,0.0,0.0,0.0,0.0,0.0,0.0,0.0,0.0,0.0,0.0,0.0,0.0,0.0,0.0,0.0,0.0,0.0,0.0,0.0,0.0,0.0,0.0,0.0,0.0,0.0,0.0,0.0,0.0,0.0,0.0,0.0,0.0,0.0,0.0,0.0,0.0,0.0,0.0,0.0,0.0,0.0,0.0,0.0,0.0,0.0,0.0,0.0,0.0,0.0,0.0,0.0,0.0,0.0,0.0,0.0,0.0,-2.6741,-2.9511,-3.2039,-3.4236,-3.4471,-3.4454,-3.432,-3.155,-2.8912,0.0,0.0,0.0,0.0,0.0,0.0,0.0,0.0,0.0,0.0,0.0,0.0,0.0,0.0,0.0,0.0,0.0,0.0,0.0,0.0,0.0,0.0,0.0,0.0,0.0,0.0,0.0,0.0,0.0,0.0,0.0,0.0,0.0,0.0,0.0,0.0,0.0,0.0,0.0,0.0,0.0,-2.4108,-2.5615,-2.5681,-2.5693,0.0,0.0,-2.5497,-2.5048,-2.4268,0.0,0.0,0.0,0.0,0.0,0.0,0.0,0.0,0.0,0.0,0.0,0.0,0.0,0.0,0.0,0.0,0.0,0.0,0.0,0.0,0.0,0.0,0.0,0.0,0.0,0.0,0.0,0.0,0.0,0.0,0.0,0.0,0.0,0.0,0.0,0.0,0.0,0.0,0.0,0.0,0.0,0.0,0.0,0.0,0.0,0.0,0.0,0.0,0.0,0.0,0.0,0.0,0.0,0.0,0.0,-2.3792,-2.6399,-2.8865,-3.1158,-3.3256,-3.3356,-3.314,-3.2723,-3.0547,-2.8147,0.0,0.0,0.0,0.0,0.0,0.0,0.0,0.0,0.0,0.0,0.0,0.0,0.0,0.0,0.0,0.0,0.0,0.0,0.0,0.0,0.0,0.0,0.0,0.0,0.0,0.0,0.0,0.0,0.0,0.0,0.0,0.0,0.0,0.0,0.0,0.0,0.0,0.0,0.0,0.0,0.0,0.0,-2.6555,-2.72,0.0,0.0,0.0,-2.6833,-2.5979,0.0,0.0,0.0,0.0,0.0,0.0,0.0,0.0,0.0,0.0,0.0,0.0,0.0,0.0,0.0,0.0,0.0,0.0,0.0,0.0,0.0,0.0,0.0,0.0,0.0,0.0,0.0,0.0,0.0,0.0,0.0,0.0,0.0,0.0,0.0,0.0,0.0,0.0,0.0,0.0,0.0,0.0,0.0,0.0,0.0,0.0,0.0,0.0,0.0,0.0,0.0,0.0,0.0,0.0,0.0,0.0,0.0,-2.5906,-2.816,-3.0215,-3.1929,-3.2177,-3.1896,-3.1171,-2.9583,0.0,0.0,0.0,0.0,0.0,0.0,0.0,0.0,0.0,0.0,0.0,0.0,0.0,0.0,0.0,0.0,0.0,0.0,0.0,0.0,0.0,0.0,0.0,0.0,0.0,0.0,0.0,-1.7368,0.0,0.0,0.0,0.0,0.0,0.0,0.0,0.0,0.0,0.0,0.0,0.0,0.0,0.0,-2.6352,-2.7402,-2.838,-2.8737,0.0,0.0,-2.7945,-2.7018,-2.5863,-2.4768,0.0,0.0,0.0,0.0,0.0,0.0,0.0,0.0,0.0,0.0,0.0,0.0,0.0,0.0,0.0,0.0,0.0,0.0,0.0,0.0,0.0,0.0,0.0,0.0,0.0,0.0,0.0,0.0,0.0,0.0,0.0,0.0,0.0,0.0,0.0,0.0,0.0,0.0,0.0,0.0,0.0,0.0,0.0,0.0,0.0,0.0,0.0,0.0,0.0,0.0,0.0,0.0,0.0,0.0,0.0,-2.4883,-2.7505,-2.9242,-3.0092,-3.0703,-3.0687,-3.0011,-2.8388,-2.6511,0.0,0.0,0.0,0.0,0.0,0.0,0.0,0.0,0.0,0.0,0.0,0.0,0.0,0.0,0.0,0.0,0.0,0.0,0.0,0.0,0.0,0.0,0.0,0.0,0.0,0.0,0.0,0.0,0.0,0.0,0.0,0.0,0.0,0.0,0.0,0.0,0.0,0.0,0.0,0.0,0.0,-2.5998,-2.7945,-2.8528,-2.8889,0.0,0.0,-2.8548,-2.8219,-2.6751,-2.5375,-2.455,0.0,0.0,0.0,0.0,0.0,0.0,0.0,0.0,0.0,0.0,0.0,0.0,0.0,0.0,0.0,0.0,0.0,0.0,0.0,0.0,0.0,0.0,0.0,0.0,0.0,0.0,0.0,0.0,0.0,0.0,0.0,0.0,0.0,0.0,0.0,0.0,0.0,0.0,0.0,0.0,0.0,0.0,0.0,0.0,0.0,0.0,0.0,0.0,0.0,0.0,0.0,0.0,0.0,-2.2262,-2.4408,-2.6563,-2.8275,-2.9425,-2.9674,-2.9482,-2.8796,-2.7607,-2.5789,0.0,0.0,0.0,0.0,0.0,0.0,0.0,0.0,0.0,0.0,0.0,0.0,0.0,0.0,0.0,0.0,0.0,0.0,0.0,0.0,0.0,0.0,0.0,0.0,0.0,0.0,0.0,0.0,-1.7514,-1.7432,-1.7236,0.0,0.0,0.0,0.0,0.0,0.0,0.0,0.0,0.0,0.0,-2.6379,-2.7409,-2.8565,0.0,0.0,-2.8566,-2.8402,-2.7628,-2.6142,-2.4843,-2.4126,-2.2759,0.0,0.0,0.0,0.0,0.0,0.0,0.0,0.0,0.0,0.0,0.0,0.0,0.0,0.0,0.0,0.0,0.0,0.0,0.0,0.0,0.0,0.0,0.0,0.0,0.0,0.0,0.0,0.0,0.0,0.0,0.0,0.0,0.0,0.0,0.0,0.0,0.0,0.0,0.0,0.0,0.0,0.0,0.0,0.0,0.0,0.0,0.0,0.0,0.0,0.0,0.0,0.0,-2.1985,-2.3716,-2.5748,-2.7281,-2.8323,-2.8708,-2.8466,-2.7572,-2.6894,-2.5263,0.0,0.0,0.0,0.0,0.0,0.0,0.0,0.0,0.0,0.0,0.0,0.0,0.0,0.0,0.0,0.0,0.0,0.0,0.0,0.0,0.0,0.0,0.0,0.0,0.0,0.0,0.0,0.0,-1.7896,-1.7714,-1.741,0.0,0.0,0.0,0.0,0.0,0.0,0.0,0.0,0.0,0.0,-2.629,-2.6916,-2.8096,-2.8596,-2.7654,-2.7778,-2.7712,-2.6891,-2.5578,-2.438,-2.3586,0.0,0.0,0.0,0.0,0.0,0.0,0.0,0.0,0.0,0.0,0.0,0.0,0.0,0.0,0.0,0.0,0.0,0.0,0.0,0.0,0.0,0.0,0.0,0.0,0.0,0.0,0.0,0.0,0.0,0.0,0.0,0.0,0.0,0.0,0.0,0.0,0.0,0.0,0.0,0.0,0.0,0.0,0.0,0.0,0.0,0.0,0.0,0.0,0.0,0.0,0.0,0.0,0.0,0.0,-2.2646,-2.5049,-2.6334,-2.6426,-2.7688,-2.7734,-2.6411,-2.6259,-2.4906,-2.2194,0.0,0.0,0.0,0.0,0.0,0.0,0.0,0.0,0.0,0.0,0.0,0.0,0.0,0.0,0.0,0.0,0.0,0.0,0.0,0.0,0.0,0.0,0.0,0.0,0.0,0.0,-1.9225,-1.8979,-1.8657,0.0,0.0,0.0,0.0,0.0,0.0,0.0,0.0,0.0,0.0,-2.4755,-2.5443,-2.6544,-2.7016,-2.7171,-2.6835,-2.6637,-2.6393,-2.6235,-2.5229,-2.4138,0.0,0.0,0.0,0.0,0.0,0.0,0.0,0.0,0.0,0.0,0.0,0.0,0.0,0.0,0.0,0.0,0.0,0.0,0.0,0.0,0.0,0.0,0.0,0.0,0.0,0.0,0.0,-2.378,-2.3729,0.0,0.0,0.0,0.0,0.0,0.0,0.0,0.0,0.0,0.0,0.0,-2.4082,-2.4997,0.0,0.0,0.0,0.0,0.0,0.0,0.0,0.0,0.0,0.0,0.0,0.0,-2.1572,-2.2328,-2.4355,-2.5665,-2.6092,-2.6565,-2.6581,-2.6108,-2.5568,-2.4191,-2.1913,0.0,0.0,0.0,0.0,0.0,0.0,0.0,0.0,0.0,0.0,0.0,0.0,0.0,0.0,0.0,0.0,0.0,0.0,0.0,0.0,0.0,0.0,0.0,0.0,0.0,-1.8816,0.0,0.0,0.0,0.0,0.0,0.0,0.0,0.0,0.0,0.0,0.0,-2.2308,-2.3673,-2.4134,-2.4767,-2.5873,-2.6288,-2.6323,0.0,0.0,0.0,0.0,0.0,0.0,0.0,0.0,0.0,0.0,0.0,0.0,0.0,0.0,-1.9712,-1.8744,-1.852,-1.8374,-1.8006,0.0,0.0,0.0,0.0,0.0,0.0,0.0,0.0,0.0,0.0,0.0,0.0,0.0,0.0,0.0,0.0,-2.3971,0.0,0.0,0.0,0.0,0.0,0.0,0.0,0.0,-2.419,-2.4662,-2.4756,-2.586,-2.5694,0.0,-2.4419,-2.3729,0.0,0.0,0.0,0.0,0.0,0.0,0.0,0.0,-2.1573,-2.2063,-2.3888,-2.5085,-2.5508,-2.5735,-2.575,-2.5508,-2.4354,-2.308,-2.1724,-1.9765,-1.8508,0.0,0.0,0.0,0.0,0.0,0.0,0.0,0.0,0.0,0.0,0.0,0.0,0.0,0.0,0.0,0.0,0.0,0.0,0.0,0.0,0.0,0.0,0.0,-1.9497,0.0,0.0,0.0,0.0,0.0,0.0,0.0,0.0,0.0,-2.0358,-2.1082,-2.2064,-2.3423,-2.361,-2.4006,-2.5135,0.0,0.0,0.0,0.0,0.0,0.0,0.0,-2.3126,-2.2161,-2.173,-2.1175,-2.022,-2.0067,-2.0067,-2.0042,0.0,0.0,-1.8894,-1.867,-1.8468,-1.8007,-1.7663,-1.7326,-1.6951,-1.6673,-1.6396,0.0,0.0,0.0,0.0,0.0,0.0,0.0,0.0,-2.4694,-2.4728,0.0,-2.4551,0.0,0.0,0.0,0.0,0.0,0.0,0.0,0.0,-2.4705,-2.5163,-2.5627,-2.629,-2.6134,-2.5281,-2.4524,-2.3824,-2.3076,-2.185,0.0,0.0,0.0,0.0,0.0,0.0,-2.1833,-2.1908,-2.3638,-2.4575,-2.4634,-2.5211,-2.5226,-2.4515,-2.2727,-2.171,-2.159,-1.9779,-1.87,-1.8657,-1.7428,0.0,0.0,0.0,0.0,0.0,0.0,0.0,0.0,0.0,0.0,0.0,0.0,0.0,0.0,0.0,0.0,0.0,0.0,0.0,0.0,-2.0333,0.0,0.0,0.0,0.0,0.0,0.0,0.0,0.0,0.0,0.0,-2.05,-2.0759,-2.1562,-2.3291,0.0,0.0,0.0,0.0,-2.3992,-2.3855,-2.3839,-2.3754,-2.3564,-2.3,-2.2366,-2.1754,0.0,0.0,-1.9899,-1.9798,-1.9798,-1.9798,-1.9708,-1.9481,-1.9071,-1.8884,-1.8634,-1.8088,-1.7612,-1.7273,-1.717,-1.6869,-1.662,-3.2351,0.0,0.0,0.0,0.0,-2.7724,-2.7706,-2.7706,-2.7724,-2.7706,-2.7621,-2.6472,0.0,0.0,0.0,0.0,0.0,0.0,-2.3814,-2.4496,-2.4953,-2.546,-2.5983,-2.662,-2.6298,-2.5094,-2.525,-2.4714,-2.3601,-2.2707,-2.1765,-2.0807,0.0,0.0,0.0,0.0,-2.2444,-2.2504,-2.3385,-2.4111,-2.459,-2.4313,-2.3864,-2.3251,-2.2248,-2.147,-2.0987,-1.9974,-1.8972,-1.8027,-1.7639,0.0,0.0,0.0,0.0,0.0,0.0,0.0,0.0,0.0,0.0,0.0,0.0,0.0,0.0,0.0,0.0,0.0,0.0,0.0,-2.015,-2.0249,-2.015,0.0,0.0,0.0,0.0,0.0,0.0,0.0,0.0,0.0,-2.0183,-2.0681,-2.1323,0.0,0.0,-2.2008,-2.2753,-2.2691,-2.2536,-2.2355,0.0,0.0,0.0,-2.1945,-2.1627,-2.1073,-2.0479,-1.9987,-1.9823,-1.9798,-1.9798,-1.9798,-1.9682,-1.9503,-1.9186,-1.8953,-1.8601,-1.8055,-1.7558,-1.7126,-1.681,-1.6513,-1.6228,-3.5171,-3.2838,-3.1236,-3.0182,-2.9546,-2.9491,-2.9283,-2.8993,-2.8993,-2.8956,-2.8869,-2.7813,-2.7214,-2.693,-2.5707,0.0,0.0,0.0,-2.4859,-2.5207,-2.5753,-2.5963,-2.6031,-2.6669,-2.6243,-2.4896,-2.5168,-2.4785,-2.3717,-2.3263,-2.26,-2.1691,0.0,0.0,-2.1184,-2.2184,-2.2703,-2.2733,-2.3281,-2.3804,-2.4186,-2.358,-2.3077,-2.2688,-2.1784,-2.1107,-2.0703,-2.0064,-1.9316,-1.8521,-1.7983,-1.734,0.0,0.0,0.0,0.0,0.0,0.0,0.0,0.0,0.0,0.0,0.0,-1.8104,0.0,0.0,0.0,0.0,-1.957,-1.9788,-2.0137,-1.996,0.0,0.0,0.0,0.0,0.0,0.0,0.0,-1.8422,-1.8791,-1.9249,-1.9827,-2.0308,-2.0858,-2.1549,-2.1355,-2.1362,-2.1942,0.0,-2.1744,-2.1648,-2.162,-2.1592,-2.1509,-2.1333,-2.0978,-2.044,-2.0063,-1.9811,-1.9798,-1.9798,-1.9798,-1.976,-1.9494,-1.9114,-1.8844,-1.8336,-1.7859,-1.7595,-1.696,-1.638,-1.597,-1.5649,-1.5381,-3.7154,-3.6781,-3.4263,-3.2162,-3.0537,-3.0466,-3.0036,-2.9281,-2.9264,-2.9156,-2.896,-2.8703,-2.839,-2.7997,-2.7416,0.0,-2.5672,-2.6079,-2.6214,-2.6184,-2.6669,-2.652,-2.5913,-2.6425,-2.5963,-2.4605,-2.4605,-2.4261,-2.3625,-2.3595,-2.331,-2.2763,-2.2158,-2.1829,-2.1814,-2.2448,-2.2763,-2.2793,-2.3332,-2.3565,-2.3541,-2.2987,-2.2643,-2.2523,-2.135,-2.0673,-2.0602,-2.0019,-1.9678,-1.9588,-1.8431,-1.7758,-1.7669,0.0,0.0,0.0,0.0,0.0,0.0,0.0,0.0,0.0,0.0,0.0,0.0,0.0,0.0,0.0,-1.9884,0.0,-1.9752,-1.95,0.0,0.0,0.0,-1.8147,-1.7821,-1.7585,-1.7618,-1.8026,0.0,0.0,0.0,0.0,-2.0156,-2.0965,-2.0936,-2.0991,-2.146,-2.1415,-2.1355,-2.1307,-2.128,-2.128,-2.1117,-2.0742,-2.0226,-1.9723,-1.9673,-1.961,-1.961,-1.961,-1.9648,-1.961,-1.9045,-1.8448,-1.8184,-1.7337,-1.6603,-1.68,-1.6057,-1.5269,-1.4944,-1.4646,-1.4426,-3.9221,-3.7912,-3.7108,-3.5307,-3.3034,-3.2855,-3.2309,-3.1532,-3.1515,-3.1114,-3.0457,-2.9674,-2.8659,-2.7467,-2.7036,-2.6567,-2.6125,-2.5994,-2.6166,-2.6596,-2.6161,-2.6105,-2.6396,-2.6066,-2.542,-2.4634,-2.4605,-2.4261,-2.3625,-2.3595,-2.352,-2.337,-2.3221,-2.2906,-2.2508,-2.3056,-2.3385,-2.3392,-2.352,-2.337,-2.2927,-2.2778,-2.2224,-2.1201,-2.0868,-2.0468,-1.9944,-1.9798,-1.945,-1.8957,-1.8642,-1.8237,-1.7728,-1.7414,0.0,0.0,0.0,0.0,0.0,0.0,0.0,0.0,0.0,-1.9465,-1.9468,0.0,-1.9726,0.0,-1.9614,-1.9468,-1.9273,-1.9068,0.0,0.0,-1.8226,-1.7922,-1.7556,-1.7344,-1.7421,-1.7733,-1.7801,-1.8027,-1.8612,-1.8649,-1.8679,-1.894,-1.9573,-2.0114,-2.024,-2.0239,-2.02,-2.0175,-1.9886,-1.9597,-1.9584,-1.9145,-1.8781,-1.8606,-1.8593,-1.8581,-1.8556,-1.8581,-1.8581,-1.8556,-1.8263,-1.791,-1.7617,-1.6749,-1.5986,-1.5643,-1.5284,-1.5013,-1.4688,-1.4397,-1.4158,-4.0277,-3.8923,-3.8248,-3.6817,-3.494,-3.4408,-3.3454,-3.2293,-3.2293,-3.1807,-3.0898,-3.0059,-2.9106,-2.8122,-2.7722,-2.7357,-2.7047,-2.6786,-2.6862,-2.709,-2.6372,-2.6093,-2.6123,-2.548,-2.4799,-2.4156,-2.4178,-2.3947,-2.361,-2.3595,-2.3595,-2.3595,-2.3595,-2.3415,-2.3137,-2.343,-2.3595,-2.3595,-2.3325,-2.3047,-2.2703,-2.2119,-2.144,-2.0718,-2.0408,-2.0079,-1.9723,-1.9723,-1.9528,-1.9184,-1.8867,-1.8538,-1.8162,-1.7863,-1.7848,0.0,0.0,0.0,0.0,0.0,0.0,0.0,0.0,0.0,0.0,0.0,-1.9581,0.0,-1.9236,0.0,-1.8765,-1.8558,-1.8305,-1.7968,-1.7767,-1.7516,-1.7204,-1.7044,-1.7033,-1.7146,-1.7321,-1.7589,-1.7905,-1.81,-1.8204,-1.8204,-1.8719,-1.9095,-1.9095,-1.9095,-1.9095,-1.907,-1.8844,-1.8632,-1.8632,-1.8405,-1.8204,-1.8204,-1.8204,-1.8204,-1.8204,-1.8204,-1.8204,-1.8084,-1.7708,-1.7241,-1.6944,-1.6091,-1.5239,-1.481,-1.4472,-1.423,-1.4013,-1.3769,-1.3574,-4.0763,-3.9761,-3.8546,-3.7387,-3.6253,-3.5441,-3.4065,-3.2446,-3.2446,-3.183,-3.0794,-3.0113,-2.956,-2.9114,-2.8763,-2.8396,-2.8069,-2.789,-2.7765,-2.758,-2.6836,-2.6168,-2.5585,-2.4814,-2.4171,-2.361,-2.3595,-2.3595,-2.3595,-2.3595,-2.3595,-2.3595,-2.3595,-2.3595,-2.3595,-2.3595,-2.3595,-2.3595,-2.3017,-2.2658,-2.2568,-2.1365,-2.0658,-2.0554,-2.0004,-1.9723,-1.9723,-1.9723,-1.9723,-1.9693,-1.9151,-1.8837,-1.8822,-1.8267,-1.8207,0.0,-1.8837,0.0,0.0,0.0,0.0,0.0,0.0,0.0,0.0,-1.9556,-1.9391,-1.9011,-1.8855,-1.8572,-1.8226,-1.8042,-1.7808,-1.7475,-1.7282,-1.7107,-1.691,-1.6782,-1.6641,-1.6522,-1.6961,-1.7285,-1.731,-1.7702,-1.7955,-1.7928,-1.794,-1.799,-1.8003,-1.8154,-1.8292,-1.8191,-1.8141,-1.8042,-1.7965,-1.7953,-1.7928,-1.7953,-1.7903,-1.799,-1.7892,-1.7904,-1.7883,-1.7727,-1.7136,-1.6591,-1.6255,-1.5383,-1.4627,-1.4289,-1.3815,-1.3457,-1.3278,-1.3135,-1.2905,-4.1086,-4.0088,-3.8846,-3.7654,-3.6512,-3.6117,-3.4895,-3.3203,-3.3203,-3.2198,-3.0564,-3.0027,-2.9589,-2.9236,-2.8795,-2.8517,-2.8314,-2.8079,-2.789,-2.7705,-2.6507,-2.5828,-2.5525,-2.4358,-2.3729,-2.361,-2.3595,-2.3595,-2.3595,-2.3595,-2.3595,-2.3595,-2.3595,-2.3595,-2.3595,0.0,0.0,0.0,-2.3017,-2.2433,-2.1874,-2.1126,-2.0434,-1.9899,-1.9783,0.0,-1.9723,-1.9723,-1.9723,-1.9708,-1.9588,0.0,0.0,0.0,0.0,0.0,0.0,0.0,0.0,0.0,0.0,0.0,-1.965,-1.9629,-1.9593,-1.9313,-1.8941,-1.8495,-1.8372,-1.8135,-1.77,-1.7605,-1.7468,-1.7136,-1.7052,-1.696,-1.6761,-1.6718,-1.6654,-1.6522,-1.6622,-1.6685,-1.6722,-1.6751,-1.6839,-1.6889,-1.6826,-1.6814,-1.6851,-1.7603,-1.8154,-1.8179,-1.7802,-1.7375,-1.6889,-1.6851,-1.6926,-1.6814,-1.6814,-1.6851,-1.6889,-1.682,-1.6751,-1.6732,-1.632,-1.5948,-1.5701,-1.5108,-1.4535,-1.4138,-1.3692,-1.3372,-1.3242,-1.3055,-1.2915,-4.1216,0.0,-3.8943,-3.7697,0.0,-3.6297,-3.5181,-3.3507,-3.3427,-3.2353,-3.0584,-3.0092,-2.9716,-2.938,-2.8959,-2.8668,-2.8493,-2.821,-2.8063,-2.7929,-2.6814,-2.6266,-2.6135,-2.4754,-2.4081,-2.4081,-2.3744,-2.3595,-2.3595,-2.3595,-2.3595,-2.3595,-2.3595,-2.3595,-2.3595,-2.3595,-2.3595,-2.3595,-2.2703,-2.2059,-2.168,-2.0722,-2.0049,-1.9723,0.0,0.0,0.0,0.0,0.0,0.0,0.0,0.0,0.0,0.0,0.0,-1.9723,-1.9723,-1.9723,-1.9723,-1.9723,-1.9723,-1.9708,-1.9541,-1.9409,-1.9317,-1.8908,-1.8489,-1.8101,-1.7935,-1.7679,-1.7303,-1.7248,-1.7157,-1.6888,-1.6867,-1.6769,-1.6641,-1.6599,-1.6565,-1.6522,-1.6513,-1.6513,-1.6513,-1.6513,-1.6513,-1.6513,-1.6513,-1.6513,-1.6538,-1.6964,-1.7363,-1.7363,-1.7162,-1.6861,-1.6575,-1.6513,-1.6513,-1.6513,-1.6513,-1.6513,-1.6513,-1.6457,-1.6371,-1.6297,-1.6003,-1.5659,-1.5356,-1.4903,-1.443,-1.3986,-1.3586,-1.33,-1.3166,-1.3041,-1.2915,-4.1289,-4.0256,-3.8981,-3.7794,-3.6635,-3.6377,-3.5223,-3.3573,0.0,0.0,0.0,-3.0236,-2.987,-2.9538,-2.9159,-2.8897,-2.8716,-2.8438,-2.8293,-2.8213,-2.7315,-2.6868,-2.6711,-2.543,-2.4792,-2.4754,-2.4201,-2.3894,-2.3789,-2.3774,-2.3729,-2.361,-2.3595,-2.3595,-2.3595,-2.3595,-2.3595,-2.355,-2.2458,-2.1814,-2.1665,-2.0531,-1.9809,-1.9723,-1.9723,-1.9723,-1.9723,-1.9723,-1.9723,-1.9723,-1.9723,-1.9723,-1.9723,-1.9723,-1.9723,-1.9723,-1.9723,-1.9723,-1.9723,-1.9723,-1.969,-1.9654,-1.9417,-1.9172,-1.8974,-1.8528,-1.8141,-1.7767,-1.7578,-1.7323,-1.6968,-1.696,-1.6876,-1.6697,-1.6654,-1.662,-1.6522,-1.6513,-1.65,-1.6513,-1.6513,-1.6513,-1.6513,-1.6513,-1.6513,-1.6513,-1.6513,-1.6513,-1.6513,-1.655,-1.6613,-1.6613,-1.66,-1.6525,-1.6513,-1.6513,-1.6513,-1.6513,-1.6513,-1.6513,-1.65,-1.6414,-1.6318,-1.6231,-1.5903,-1.5547,-1.5153,-1.472,-1.4257,-1.3844,-1.3467,-1.318,-1.3065,-1.2978,-1.2915,-4.1414,-4.0456,-3.9244,-3.8026,-3.6911,-3.6588,-3.5352,-3.3505,-3.1992,-3.1096,-3.0692,-3.0389,-3.0075,-2.9744,-2.9499,-2.9335,-2.919,-2.892,-2.8669,0.0,-2.7681,-2.7138,-2.6766,-2.5997,-2.5581,-2.5465,-2.5337,-2.5008,-2.4515,-2.447,-2.4171,-2.367,-2.3595,-2.361,-2.3595,-2.3595,-2.3595,-2.358,-2.2927,-2.2283,-2.1695,-2.0927,-2.0288,-1.9753,-1.9723,-1.9723,-1.9723,-1.9723,-1.9723,-1.9723,-1.9723,-1.9723,-1.9723,-1.9723,-1.9723,-1.9723,-1.9723,-1.9723,-1.9723,-1.9723,-1.9636,-1.9468,-1.925,-1.9021,-1.875,-1.842,-1.8016,-1.7578,-1.7352,-1.7094,-1.6803,-1.674,-1.6684,-1.6565,-1.6522,-1.6509,-1.6522,-1.6513,-1.6513,-1.6513,-1.6513,-1.6513,-1.6513,-1.6513,-1.6513,-1.6513,-1.6513,-1.6513,-1.6513,-1.6513,-1.6513,-1.6513,-1.6513,-1.6513,-1.6513,-1.6513,-1.6513,-1.6513,-1.6513,-1.6513,-1.6513,-1.6383,-1.6253,-1.6222,-1.5859,-1.5468,-1.5153,-1.472,-1.4257,-1.3787,-1.3409,-1.3156,-1.2992,-1.2929,-1.2915,-4.152,-4.0563,-3.9445,-3.8289,-3.7089,-3.6116,-3.4909,-3.3522,-3.2273,-3.1385,-3.0851,-3.0551,-3.0284,-3.0075,-2.9853,-2.9694,-2.9566,-2.9319,-2.9129,-2.8912,-2.8358,-2.7936,-2.7594,-2.6836,-2.6376,-2.6234,-2.5803,-2.5442,-2.5158,-2.5143,-2.4993,-2.4702,-2.4687,-2.4485,-2.4156,-2.4141,-2.3984,-2.3595,-2.3002,-2.2553,-2.2254,-2.1231,-2.0539,-2.0243,-1.9917,-1.9723,-1.9723,-1.9723,-1.9723,-1.9723,-1.9723,-1.9723,-1.9723,-1.9723,-1.9723,-1.9723,-1.9723,-1.9723,-1.9723,-1.9723,-1.9599,-1.9428,-1.9228,-1.895,-1.8615,-1.8228,-1.7848,-1.7385,-1.7157,-1.6905,-1.6641,-1.6577,-1.6577,-1.6522,-1.6513,-1.6513,-1.6513,-1.6513,-1.6513,-1.6513,-1.6513,-1.6513,-1.6513,-1.6513,-1.6513,-1.6513,-1.6513,-1.6513,-1.6513,-1.6513,-1.6513,-1.6513,-1.6513,-1.6513,-1.6513,-1.6513,-1.6513,-1.6513,-1.6513,-1.6513,-1.65,-1.6371,-1.6297,-1.62,-1.5859,-1.5491,-1.5187,-1.472,-1.4257,-1.3834,-1.342,-1.3166,-1.3017,-1.2954,-1.2915,-4.1771,-4.0616,-3.977,-3.8562,-3.7167,-3.5867,-3.4717,-3.3639,-3.2904,-3.2036,-3.1083,-3.0733,-3.0531,-3.0389,-3.0236,-3.0087,-2.9941,-2.976,-2.9576,-2.9403,-2.9036,-2.8748,-2.8407,-2.7668,-2.7272,-2.7058,-2.6423,-2.6036,-2.5878,-2.5863,-2.5749,-2.563,-2.56,-2.5322,-2.4844,-2.4814,-2.4485,-2.3834,-2.3392,-2.2981,-2.2673,-2.168,-2.1021,-2.0673,-2.0213,-1.9854,-1.9723,-1.9723,-1.9723,-1.9723,-1.9723,-1.9723,-1.9723,-1.9723,-1.9723,-1.9723,-1.9723,-1.9723,-1.9723,-1.9723,-1.9617,-1.9413,-1.9228,-1.8931,-1.8523,-1.8143,-1.7706,-1.7261,-1.7023,-1.6812,-1.6565,-1.65,-1.6513,-1.6513,-1.6513,-1.6513,-1.6513,-1.6513,-1.6513,-1.6513,-1.6513,-1.6513,-1.6513,-1.6513,-1.6513,-1.6513,-1.6513,-1.6513,-1.6513,-1.6513,-1.6513,-1.6513,-1.6513,-1.6513,-1.6513,-1.6513,-1.6513,-1.6513,-1.6513,-1.6513,-1.65,-1.6457,-1.6349,-1.62,-1.5925,-1.5592,-1.5198,-1.4789,-1.435,-1.3939,-1.3563,-1.3276,-1.3113,-1.2988,-1.2915,-4.2283,-4.0778,-4.0348,-3.9045,-3.7143,-3.6545,-3.539,-3.3931,-3.3571,-3.2612,-3.1202,-3.1015,-3.0834,-3.0692,-3.063,-3.0547,-3.0405,-3.0215,-3.0,-2.9766,-2.9538,-2.9152,-2.8685,-2.8449,-2.8242,-2.8039,-2.7688,-2.7218,-2.6672,-2.6546,-2.6213,-2.5674,-2.56,-2.56,-2.5525,-2.5525,-2.5173,-2.453,-2.4455,-2.3864,-2.2778,-2.2583,-2.1954,-2.0718,-2.0662,-2.0299,-1.9783,-1.9723,-1.9723,-1.9723,-1.9723,-1.9723,-1.9723,-1.9723,-1.9723,-1.9723,-1.9723,-1.9723,-1.9723,-1.9723,-1.9617,-1.9413,-1.9228,-1.8946,-1.8537,-1.8129,-1.7706,-1.7316,-1.701,-1.6778,-1.6531,-1.6513,-1.6513,-1.6513,-1.6513,-1.6513,-1.6513,-1.6513,-1.6513,-1.6513,-1.6513,-1.6513,-1.6513,-1.6513,-1.6513,-1.6513,-1.6513,-1.6513,-1.6513,-1.6513,-1.6513,-1.6513,-1.6513,-1.6513,-1.6513,-1.6513,-1.6513,-1.6513,-1.6513,-1.6513,-1.65,-1.6457,-1.6371,-1.6253,-1.5991,-1.5681,-1.5345,-1.4937,-1.4512,-1.4127,-1.3763,-1.3454,-1.3196,-1.3012,-1.2929,-4.2021,-4.0825,-4.0161,-3.8852,-3.7256,-3.6751,-3.5541,-3.3937,-3.3697,-3.2696,-3.1312,-3.1151,-3.1052,-3.0875,-3.0834,-3.0773,-3.0712,-3.0485,-3.03,-3.0075,-2.981,-2.9499,-2.9175,-2.8881,-2.8622,-2.8389,-2.8146,-2.7813,-2.7429,-2.726,-2.7046,-2.6821,-2.6782,-2.6572,-2.6228,-2.6198,-2.5869,-2.5202,-2.4799,-2.4335,-2.3819,-2.3056,-2.2433,-2.1874,-2.1126,-2.0602,-2.0288,-1.9932,-1.9723,-1.9723,-1.9723,-1.9723,-1.9723,-1.9723,-1.9723,-1.9723,-1.9723,-1.9723,-1.9723,-1.9723,-1.9599,-1.9428,-1.9302,-1.9059,-1.8639,-1.8301,-1.7889,-1.7447,-1.7107,-1.6791,-1.6543,-1.6513,-1.6513,-1.6513,-1.6513,-1.6513,-1.6513,-1.6513,-1.6513,-1.6513,-1.6513,-1.6513,-1.6513,-1.6513,-1.6513,-1.6513,-1.6513,-1.6513,-1.6513,-1.6513,-1.6513,-1.6513,-1.6513,-1.6513,-1.6513,-1.6513,-1.6513,-1.6513,-1.6513,-1.6513,-1.65,-1.65,-1.6448,-1.634,-1.611,-1.5846,-1.5536,-1.5131,-1.4686,-1.4326,-1.381,-1.3406,-1.3138,-1.3002,-1.2929,-4.1667,-4.0579,-3.9556,-3.8473,-3.7446,-3.6972,-3.5725,-3.4111,-3.3782,-3.276,-3.13,-3.121,-3.1151,-3.1035,-3.1012,-3.0992,-3.0935,-3.0733,-3.0551,-3.0393,-3.0118,-2.9853,-2.9621,-2.9289,-2.899,-2.8716,-2.8462,-2.821,-2.7915,-2.779,-2.7675,-2.7665,-2.765,-2.741,-2.6926,-2.6881,-2.6527,-2.5914,-2.5367,-2.4978,-2.4545,-2.3699,-2.3041,-2.2658,-2.1769,-2.1077,-2.0703,-2.0228,-1.9887,-1.9723,-1.9723,-1.9723,-1.9723,-1.9723,-1.9723,-1.9723,-1.9723,-1.9723,-1.9723,-1.9723,-1.9617,-1.9413,-1.9339,-1.9116,-1.875,-1.84,-1.8009,-1.755,-1.717,-1.6833,-1.662,-1.6522,-1.65,-1.6513,-1.6513,-1.6513,-1.6513,-1.6513,-1.6513,-1.6513,-1.6513,-1.6513,-1.6513,-1.6513,-1.6513,-1.6513,-1.6513,-1.6513,-1.6513,-1.6513,-1.6513,-1.6513,-1.6513,-1.6513,-1.6513,-1.6513,-1.6513,-1.6513,-1.6513,-1.6513,-1.6513,-1.6513,-1.6479,-1.6349,-1.6197,-1.6001,-1.5703,-1.5311,-1.4892,-1.4512,-1.4022,-1.3491,-1.332,-1.3138,-1.3007,-4.1337,-3.9776,-3.8654,-3.8073,-3.781,-3.7428,-3.6167,-3.4403,-3.4024,-3.2946,-3.1468,-3.1232,-3.119,-3.1207,-3.1171,-3.1171,-3.1168,-3.1032,-3.0855,-3.0692,-3.051,-3.0295,-2.9973,-2.977,-2.9525,-2.9198,-2.8873,-2.8518,-2.8195,-2.8054,-2.793,-2.7831,-2.7806,-2.7725,-2.752,-2.7505,-2.721,-2.6651,-2.6447,-2.5869,-2.4807,-2.4545,-2.3879,-2.2888,-2.2613,-2.1949,-2.0927,-2.0707,-2.0363,-1.9753,-1.9723,-1.9723,-1.9723,-1.9723,-1.9723,-1.9723,-1.9723,-1.9723,-1.9723,-1.9723,-1.9617,-1.9431,-1.9339,-1.9134,-1.875,-1.842,-1.8029,-1.755,-1.722,-1.6918,-1.6727,-1.6577,-1.6513,-1.6513,-1.6513,-1.6513,-1.6513,-1.6513,-1.6513,-1.6513,-1.6513,-1.6513,-1.6513,-1.6513,-1.6513,-1.6513,-1.6513,-1.6513,-1.6513,-1.6513,-1.6513,-1.6513,-1.6513,-1.6513,-1.6513,-1.6513,-1.6513,-1.6513,-1.6513,-1.6513,-1.6513,-1.6513,-1.6457,-1.6414,-1.6349,-1.6175,-1.5881,-1.5525,-1.5108,-1.4674,-1.4186,-1.3763,-1.3583,-1.3348,-1.3228,-4.0561,-3.8933,-3.8431,-3.8123,-3.7864,-3.7521,-3.6547,-3.5201,-3.4411,-3.3416,-3.2295,-3.1664,-3.1329,-3.1237,-3.1274,-3.1232,-3.1207,-3.1072,-3.0955,-3.0875,-3.0712,-3.0526,-3.0316,-3.0103,-2.9858,-2.9554,-2.9312,-2.8967,-2.8534,-2.8332,-2.8201,-2.8063,-2.8063,-2.7989,-2.7865,-2.784,-2.772,-2.7463,-2.7095,-2.6399,-2.5515,-2.4995,-2.4295,-2.3453,-2.2954,-2.2478,-2.1999,-2.1171,-2.0569,-2.0329,-1.9929,-1.9723,-1.9723,-1.9723,-1.9723,-1.9723,-1.9723,-1.9723,-1.9723,-1.9723,-1.9617,-1.9413,-1.9376,-1.9191,-1.8817,-1.8523,-1.8222,-1.7788,-1.744,-1.7162,-1.6897,-1.665,-1.65,-1.65,-1.65,-1.6513,-1.6513,-1.6513,-1.6513,-1.6513,-1.6513,-1.6513,-1.6513,-1.6513,-1.6513,-1.6513,-1.6513,-1.6513,-1.6513,-1.6513,-1.6513,-1.6513,-1.6513,-1.6513,-1.6513,-1.6513,-1.6513,-1.6513,-1.6513,-1.6513,-1.6513,-1.6513,-1.6479,-1.6457,-1.6436,-1.6306,-1.5991,-1.5637,-1.5244,-1.4869,-1.4362,-1.4093,-1.3881,-1.3681,-1.3539,-3.9709,-3.8651,-3.8435,-3.8223,-3.8003,-3.7685,-3.677,-3.5481,-3.4658,-3.3647,-3.2595,-3.1876,-3.1521,-3.1428,-3.1408,-3.1332,-3.1232,-3.1114,-3.1035,-3.0992,-3.0855,-3.0733,-3.0609,-3.0384,-3.0167,-2.9886,-2.9605,-2.9312,-2.8967,-2.874,-2.8541,-2.8365,-2.8341,-2.8284,-2.8137,-2.8128,-2.8143,-2.8036,-2.7631,-2.6991,-2.6115,-2.5447,-2.4678,-2.3872,-2.3275,-2.2882,-2.2688,-2.162,-2.0917,-2.0643,-2.0064,-1.9723,-1.9723,-1.9723,-1.9723,-1.9723,-1.9723,-1.9723,-1.9723,-1.9723,-1.9617,-1.9413,-1.9409,-1.9228,-1.8841,-1.8659,-1.838,-1.7989,-1.7666,-1.7378,-1.7107,-1.682,-1.665,-1.6586,-1.6522,-1.6513,-1.6513,-1.6513,-1.6513,-1.6513,-1.6513,-1.6513,-1.6513,-1.6513,-1.6513,-1.6513,-1.6513,-1.6513,-1.6513,-1.6513,-1.6513,-1.6513,-1.6513,-1.6513,-1.6513,-1.6513,-1.6513,-1.6513,-1.6513,-1.6513,-1.6513,-1.6513,-1.65,-1.65,-1.6436,-1.6328,-1.6088,-1.5748,-1.5413,-1.5051,-1.4754,-1.4444,-1.4246,-1.4046,-1.3941,-3.8802,-3.8673,-3.8559,-3.8382,-3.8241,-3.7985,-3.6826,-3.5332,-3.4726,-3.3736,-3.2474,-3.1927,-3.1746,-3.1635,-3.1635,-3.1504,-3.1332,-3.1269,-3.1134,-3.1015,-3.1012,-3.0952,-3.0871,-3.063,-3.0447,-3.0225,-2.9766,-2.9515,-2.947,-2.9236,-2.8982,-2.8756,-2.8732,-2.8629,-2.842,-2.842,-2.842,-2.8381,-2.8231,-2.7546,-2.6367,-2.594,-2.516,-2.4014,-2.3666,-2.3302,-2.2778,-2.2089,-2.1425,-2.0797,-2.0124,-1.9738,-1.9723,-1.9723,-1.9723,-1.9723,-1.9723,-1.9723,-1.9723,-1.9723,-1.9632,-1.9446,-1.9409,-1.9246,-1.8893,-1.8736,-1.8484,-1.8082,-1.7821,-1.7591,-1.7295,-1.7086,-1.6918,-1.6752,-1.6599,-1.6522,-1.6534,-1.6513,-1.6513,-1.6513,-1.6513,-1.6513,-1.6513,-1.6513,-1.6513,-1.6513,-1.6513,-1.6513,-1.6513,-1.6513,-1.6513,-1.6513,-1.6513,-1.6513,-1.6513,-1.6513,-1.6513,-1.6513,-1.6513,-1.6513,-1.6513,-1.6513,-1.6513,-1.65,-1.6457,-1.6371,-1.6197,-1.5869,-1.5614,-1.5311,-1.5028,-1.4823,-1.4674,-1.4523,-1.4443,-3.8792,-3.8747,-3.859,-3.8433,-3.8272,-3.8104,-3.725,-3.6023,-3.5261,-3.4288,-3.3266,-3.2494,-3.2073,-3.1966,-3.193,-3.1784,-3.1506,-3.1483,-3.1349,-3.1171,-3.1114,-3.1075,-3.0975,-3.0875,-3.0695,-3.0426,-3.0146,-2.993,-2.9826,-2.9655,-2.9477,-2.9273,-2.9243,-2.9121,-2.8905,-2.8881,-2.8858,-2.8748,-2.8724,-2.8163,-2.7187,-2.6519,-2.5688,-2.4704,-2.4059,-2.3591,-2.3317,-2.2718,-2.2089,-2.1395,-2.0733,-2.0183,-1.9813,-1.9723,-1.9723,-1.9723,-1.9723,-1.9723,-1.9723,-1.9708,-1.9617,-1.9465,-1.9409,-1.9261,-1.8979,-1.8788,-1.8562,-1.824,-1.8028,-1.7801,-1.7584,-1.7427,-1.7233,-1.6888,-1.6718,-1.6641,-1.6599,-1.6543,-1.6513,-1.6513,-1.6513,-1.6513,-1.6513,-1.6513,-1.6513,-1.6513,-1.6513,-1.6513,-1.6513,-1.6513,-1.6513,-1.6513,-1.6513,-1.6513,-1.6513,-1.6513,-1.6513,-1.6513,-1.6513,-1.6513,-1.6513,-1.6513,-1.6513,-1.65,-1.6457,-1.6392,-1.6241,-1.6044,-1.5802,-1.5592,-1.5379,-1.5221,-1.5108,-1.5017,-1.4937,-3.8881,-3.8792,-3.8667,-3.8528,-3.8368,-3.8252,-3.7453,-3.6245,-3.5537,-3.4616,-3.352,-3.2801,-3.2438,-3.2301,-3.2284,-3.2091,-3.1802,-3.1764,-3.1579,-3.1349,-3.1252,-3.1173,-3.1092,-3.1015,-3.0895,-3.0671,-3.048,-3.0338,-3.0253,-3.013,-2.9957,-2.9798,-2.9776,-2.9627,-2.938,-2.9357,-2.9312,-2.9213,-2.9136,-2.8572,-2.7536,-2.6751,-2.5865,-2.4767,-2.4115,-2.3754,-2.3586,-2.3017,-2.2388,-2.1684,-2.0842,-2.0124,-1.9753,-1.9723,-1.9723,-1.9723,-1.9723,-1.9723,-1.9723,-1.9723,-1.9617,-1.945,-1.9409,-1.928,-1.905,-1.8865,-1.8697,-1.847,-1.8352,-1.8155,-1.7929,-1.7808,-1.7591,-1.7233,-1.6973,-1.6803,-1.6697,-1.6577,-1.65,-1.6513,-1.6513,-1.6513,-1.6513,-1.6513,-1.6513,-1.6513,-1.6513,-1.6513,-1.6513,-1.6513,-1.6513,-1.6513,-1.6513,-1.6513,-1.6513,-1.6513,-1.6513,-1.6513,-1.6513,-1.6513,-1.6513,-1.6513,-1.6513,-1.65,-1.6479,-1.6457,-1.6306,-1.6219,-1.6044,-1.5846,-1.5691,-1.5592,-1.5503,-1.5435,-1.5356,-3.9044,-3.8837,-3.8807,-3.8667,-3.8476,-3.8339,-3.7337,-3.5962,-3.5514,-3.4521,-3.3295,-3.2983,-3.2802,-3.2655,-3.2639,-3.242,-3.2144,-3.202,-3.1821,-3.1617,-3.1447,-3.131,-3.119,-3.1092,-3.0975,-3.0855,-3.0753,-3.0692,-3.0651,-3.0531,-3.0438,-3.0231,-3.0189,-3.0087,-2.9875,-2.9853,-2.9804,-2.9704,-2.9598,-2.8764,-2.7342,-2.677,-2.5821,-2.4386,-2.4006,-2.376,-2.3563,-2.2927,-2.2283,-2.1575,-2.0427,-1.9783,-1.9723,-1.9723,-1.9723,-1.9723,-1.9723,-1.9723,-1.9723,-1.9723,-1.9617,-1.9446,-1.9391,-1.9298,-1.9055,-1.8979,-1.8889,-1.8736,-1.8697,-1.8581,-1.8307,-1.8228,-1.8049,-1.772,-1.7274,-1.696,-1.674,-1.6577,-1.6522,-1.6513,-1.6513,-1.6513,-1.6513,-1.6513,-1.6513,-1.6513,-1.6513,-1.6513,-1.6513,-1.6513,-1.6513,-1.6513,-1.6513,-1.6513,-1.6513,-1.6513,-1.6513,-1.6513,-1.6513,-1.6513,-1.6513,-1.6513,-1.6513,-1.65,-1.6479,-1.647,-1.6426,-1.6328,-1.6241,-1.6088,-1.5979,-1.5935,-1.5869,-1.5792,-1.5748,-3.9663,-3.8972,-3.8833,-3.8683,-3.8418,-3.7875,-3.6991,-3.5915,-3.5208,-3.4371,-3.349,-3.3304,-3.315,-3.2977,-3.2961,-3.2802,-3.2522,-3.237,-3.2144,-3.1857,-3.1727,-3.1483,-3.1249,-3.1171,-3.1092,-3.0975,-3.0935,-3.0912,-3.0851,-3.0794,-3.0712,-3.0568,-3.0547,-3.0485,-3.0342,-3.03,-3.0231,-3.0098,-2.9946,-2.9269,-2.8071,-2.7154,-2.6224,-2.509,-2.4289,-2.3897,-2.3618,-2.2574,-2.1635,-2.0991,-2.0183,-1.9723,-1.9723,-1.9723,-1.9723,-1.9723,-1.9723,-1.9723,-1.9723,-1.9723,-1.9599,-1.9446,-1.9428,-1.9288,-1.9116,-1.9078,-1.904,-1.9003,-1.9003,-1.8908,-1.8702,-1.8611,-1.8397,-1.7962,-1.7509,-1.7073,-1.6791,-1.6654,-1.6633,-1.6522,-1.6513,-1.6513,-1.65,-1.6513,-1.6513,-1.6513,-1.6513,-1.6513,-1.6513,-1.6513,-1.6513,-1.6513,-1.6513,-1.6513,-1.6513,-1.6513,-1.6513,-1.6513,-1.6513,-1.6513,-1.6513,-1.6513,-1.6513,-1.65,-1.65,-1.6491,-1.6457,-1.6414,-1.6315,-1.625,-1.6197,-1.6122,-1.6122,-1.6057,-1.6057,-4.0042,-3.9078,-3.8935,-3.8788,-3.8527,-3.7729,-3.6863,-3.5999,-3.5137,-3.4309,-3.368,-3.3509,-3.3404,-3.3286,-3.3241,-3.3088,-3.2818,-3.2655,-3.2421,-3.2144,-3.1839,-3.1523,-3.1291,-3.1213,-3.1151,-3.1092,-3.1092,-3.1055,-3.1032,-3.1032,-3.0952,-3.0834,-3.0814,-3.0773,-3.0671,-3.0671,-3.0547,-3.0359,-3.0194,-2.9594,-2.8458,-2.747,-2.6453,-2.5425,-2.4487,-2.3758,-2.2942,-2.2109,-2.138,-2.0718,-2.0094,-1.9723,-1.9723,-1.9723,-1.9723,-1.9723,-1.9723,-1.9723,-1.9723,-1.9723,-1.965,-1.9538,-1.9483,-1.9409,-1.9284,-1.9232,-1.9213,-1.9213,-1.9246,-1.9157,-1.9026,-1.8898,-1.8597,-1.8181,-1.7835,-1.7406,-1.6981,-1.6854,-1.6748,-1.6629,-1.6577,-1.6556,-1.6522,-1.65,-1.6513,-1.6513,-1.6513,-1.6513,-1.6513,-1.6513,-1.6513,-1.6513,-1.6513,-1.6513,-1.6513,-1.6513,-1.6513,-1.6513,-1.6513,-1.6513,-1.6513,-1.6513,-1.6513,-1.6513,-1.6513,-1.6513,-1.6479,-1.6457,-1.6436,-1.6371,-1.634,-1.6318,-1.6318,-1.6275,-1.6275,-4.0252,-3.9215,-3.9064,-3.8921,-3.8659,-3.7776,-3.6861,-3.6069,-3.5103,-3.4324,-3.3738,-3.3633,-3.3577,-3.3524,-3.3448,-3.3316,-3.3101,-3.2864,-3.2622,-3.2301,-3.1893,-3.1504,-3.1332,-3.1213,-3.119,-3.1171,-3.119,-3.1171,-3.1151,-3.1171,-3.1131,-3.1052,-3.1015,-3.0992,-3.0932,-3.0915,-3.0794,-3.0584,-3.0443,-2.9791,-2.8672,-2.7636,-2.6613,-2.559,-2.4551,-2.3339,-2.233,-2.1709,-2.1394,-2.0655,-2.0022,-1.9753,-1.9723,-1.9723,-1.9723,-1.9723,-1.9723,-1.9723,-1.9723,-1.9708,-1.9654,-1.9593,-1.9574,-1.9538,-1.9413,-1.9376,-1.9409,-1.9413,-1.9446,-1.9395,-1.9302,-1.9064,-1.8765,-1.8475,-1.8307,-1.7955,-1.7468,-1.717,-1.6994,-1.6774,-1.674,-1.6663,-1.6565,-1.6509,-1.6522,-1.6513,-1.6513,-1.6513,-1.6513,-1.6513,-1.6513,-1.6513,-1.6513,-1.6513,-1.6513,-1.6513,-1.6513,-1.6513,-1.6513,-1.6513,-1.6513,-1.6513,-1.6513,-1.6513,-1.6513,-1.6513,-1.6513,-1.65,-1.65,-1.6479,-1.6426,-1.647,-1.6491,-1.6448,-1.6426,-4.0315,-3.9259,-3.9124,-3.8979,-3.8582,-3.7268,-3.6493,-3.6123,-3.466,-3.3968,-3.3785,-3.3766,-3.3712,-3.3661,-3.3615,-3.3516,-3.3316,-3.3052,-3.2752,-3.2232,-3.182,-3.1578,-3.1423,-3.1288,-3.119,-3.119,-3.119,-3.119,-3.119,-3.119,-3.119,-3.1151,-3.1131,-3.1151,-3.1131,-3.1092,-3.1032,-3.081,-3.0589,-2.9955,-2.8944,-2.7817,-2.6762,-2.5743,-2.4713,-2.3432,-2.2278,-2.1935,-2.136,-2.0415,-1.9885,-1.9741,-1.9708,-1.9708,-1.9723,-1.9723,-1.9723,-1.9723,-1.9723,-1.9723,-1.9687,-1.9611,-1.9593,-1.9553,-1.9413,-1.9501,-1.9538,-1.9574,-1.9596,-1.9596,-1.9501,-1.9321,-1.9082,-1.887,-1.8702,-1.8489,-1.8049,-1.7618,-1.7303,-1.7044,-1.6918,-1.6854,-1.6684,-1.6663,-1.662,-1.6556,-1.6534,-1.6513,-1.6534,-1.6534,-1.6513,-1.6534,-1.6513,-1.6513,-1.6513,-1.6513,-1.6513,-1.6513,-1.6513,-1.6513,-1.6513,-1.6513,-1.6513,-1.6513,-1.6513,-1.6513,-1.6513,-1.6513,-1.65,-1.6513,-1.6513,-1.6513,-1.6513,-1.6513,-1.6513,-4.0486,-3.9496,-3.9285,-3.8878,-3.8214,-3.6956,-3.6168,-3.5593,-3.4408,-3.3807,-3.3807,-3.3807,-3.3762,-3.3753,-3.3712,-3.3619,-3.3433,-3.3132,-3.2719,-3.2266,-3.1876,-3.1671,-3.1481,-3.1346,-3.1232,-3.121,-3.119,-3.119,-3.119,-3.119,-3.119,-3.119,-3.119,-3.119,-3.119,-3.119,-3.1092,-3.0912,-3.0708,-3.0207,-2.9403,-2.813,-2.6645,-2.5539,-2.4601,-2.3646,-2.2305,-2.2075,-2.1325,-2.039,-1.9904,-1.9797,-1.9744,-1.9726,-1.9723,-1.9723,-1.9723,-1.9723,-1.9723,-1.9723,-1.9672,-1.9665,-1.965,-1.9599,-1.9563,-1.9614,-1.9632,-1.965,-1.9654,-1.9669,-1.9593,-1.952,-1.9335,-1.9153,-1.9007,-1.8817,-1.8489,-1.8042,-1.7618,-1.731,-1.7136,-1.701,-1.6897,-1.6854,-1.6791,-1.6748,-1.6727,-1.6705,-1.662,-1.6599,-1.6556,-1.6534,-1.6513,-1.6513,-1.6513,-1.6513,-1.6513,-1.6513,-1.6513,-1.6513,-1.6513,-1.6513,-1.6513,-1.6513,-1.6513,-1.6513,-1.6513,-1.6513,-1.6513,-1.6513,-1.6513,-1.6513,-1.6513,-1.6513,-1.6513,-4.0585,-3.9675,-3.9302,-3.868,-3.7801,-3.6722,-3.5841,-3.5138,-3.4201,-3.3807,-3.3807,-3.3807,-3.3807,-3.3793,-3.3734,-3.3671,-3.3473,-3.3147,-3.2719,-3.2369,-3.2038,-3.1783,-3.154,-3.1387,-3.1271,-3.121,-3.119,-3.119,-3.119,-3.119,-3.119,-3.119,-3.119,-3.119,-3.119,-3.119,-3.1092,-3.0912,-3.0753,-3.0357,-2.9667,-2.832,-2.6709,-2.5161,-2.4681,-2.386,-2.2728,-2.2216,-2.1584,-2.0275,-2.008,-1.9973,-1.9866,-1.9777,-1.9708,-1.9708,-1.9723,-1.9723,-1.9723,-1.9723,-1.9723,-1.9723,-1.9708,-1.9708,-1.9705,-1.969,-1.9705,-1.9705,-1.9705,-1.9672,-1.9614,-1.9596,-1.9505,-1.9376,-1.9246,-1.9082,-1.8841,-1.8422,-1.8062,-1.7659,-1.7488,-1.7337,-1.717,-1.7065,-1.7002,-1.6939,-1.6939,-1.6888,-1.6803,-1.6718,-1.6663,-1.6599,-1.6577,-1.6534,-1.6534,-1.6513,-1.6513,-1.6513,-1.6513,-1.6513,-1.6513,-1.6513,-1.6513,-1.6513,-1.6513,-1.6513,-1.6513,-1.6513,-1.6513,-1.6513,-1.6513,-1.6513,-1.6513,-1.6513,-1.6513,-4.015,-3.9724,-3.8907,-3.8309,-3.7763,-3.6287,-3.5438,-3.5078,-3.4178,-3.3807,-3.3807,-3.3807,-3.3807,-3.3752,-3.3775,-3.3666,-3.3382,-3.3108,-3.2848,-3.2505,-3.2214,-3.1893,-3.1598,-3.1408,-3.1274,-3.1193,-3.119,-3.119,-3.119,-3.119,-3.119,-3.119,-3.119,-3.119,-3.119,-3.119,-3.1128,-3.0912,-3.0757,-3.0332,-2.9403,-2.8217,-2.6816,-2.5211,-2.495,-2.4216,-2.3167,-2.2635,-2.1949,-2.0598,-2.0321,-2.0166,-1.999,-1.9866,-1.9762,-1.9708,-1.9723,-1.9723,-1.9723,-1.9723,-1.9723,-1.9723,-1.9723,-1.9723,-1.9723,-1.9723,-1.9723,-1.9723,-1.9723,-1.9705,-1.9672,-1.9687,-1.9632,-1.9574,-1.9501,-1.9409,-1.9195,-1.8931,-1.8581,-1.8189,-1.7929,-1.7699,-1.7522,-1.7378,-1.7316,-1.7233,-1.717,-1.712,-1.6994,-1.6888,-1.6803,-1.674,-1.6675,-1.6599,-1.6522,-1.6534,-1.6513,-1.6513,-1.6513,-1.6513,-1.6513,-1.6513,-1.6513,-1.6513,-1.6513,-1.6513,-1.6513,-1.6513,-1.6513,-1.6513,-1.6513,-1.6513,-1.6513,-1.6513,-1.6513,-3.9604,-3.8665,-3.8526,-3.7875,-3.6831,-3.5882,-3.5125,-3.4607,-3.4079,-3.3847,-3.382,-3.3788,-3.355,-3.3293,-3.3183,-3.3067,-3.2918,-3.31,-3.2894,-3.2571,-3.2301,-3.2001,-3.1691,-3.1502,-3.1351,-3.1271,-3.123,-3.119,-3.119,-3.119,-3.119,-3.119,-3.119,-3.119,-3.119,-3.119,-3.1092,-3.0912,-3.0781,-3.0285,-2.9222,-2.7992,-2.6555,-2.576,-2.5291,-2.474,-2.3903,-2.3153,-2.2459,-2.1421,-2.0747,-2.0335,-2.0098,-1.9955,-1.9833,-1.9759,-1.9708,-1.9723,-1.9723,-1.9723,-1.9723,-1.9723,-1.9723,-1.9723,-1.9723,-1.9723,-1.9723,-1.9723,-1.9723,-1.9723,-1.9723,-1.9723,-1.9672,-1.965,-1.9629,-1.9556,-1.9446,-1.928,-1.8984,-1.8639,-1.8307,-1.8049,-1.7909,-1.7767,-1.7679,-1.7543,-1.744,-1.7337,-1.7246,-1.7107,-1.7002,-1.6782,-1.6697,-1.6599,-1.6522,-1.6534,-1.6513,-1.6513,-1.6513,-1.6513,-1.6513,-1.6513,-1.6513,-1.6513,-1.6513,-1.6513,-1.6513,-1.6513,-1.6513,-1.6513,-1.6513,-1.6513,-1.6513,-1.6513,-1.6513,-3.8925,-3.7679,-3.801,-3.7286,-3.6004,-3.5472,-3.4883,-3.421,-3.3985,-3.3753,-3.3595,-3.3508,-3.3073,-3.2528,-3.2349,-3.2263,-3.2151,-3.2639,-3.2668,-3.2438,-3.2368,-3.2161,-3.191,-3.167,-3.1519,-3.1389,-3.1271,-3.123,-3.119,-3.119,-3.119,-3.119,-3.119,-3.119,-3.119,-3.119,-3.1072,-3.0918,-3.0674,-3.0112,-2.8821,-2.7492,-2.6414,-2.5875,-2.5738,-2.5356,-2.454,-2.3716,-2.2883,-2.1927,-2.1104,-2.0441,-2.0185,-2.0043,-1.9919,-1.9797,-1.9726,-1.9708,-1.9723,-1.9723,-1.9723,-1.9723,-1.9723,-1.9723,-1.9723,-1.9723,-1.9723,-1.9723,-1.9723,-1.9723,-1.9723,-1.9723,-1.969,-1.969,-1.965,-1.9611,-1.956,-1.9468,-1.9339,-1.9021,-1.8639,-1.8425,-1.8288,-1.8149,-1.8043,-1.7983,-1.7868,-1.7693,-1.757,-1.7344,-1.7157,-1.6854,-1.6684,-1.6599,-1.6522,-1.6513,-1.6513,-1.6513,-1.6513,-1.6513,-1.6513,-1.6513,-1.6513,-1.6513,-1.6513,-1.6513,-1.6513,-1.6513,-1.6513,-1.6513,-1.6513,-1.6513,-1.6513,-1.6513,-1.6513,-3.8062,-3.77,-3.6973,-3.6435,-3.5964,-3.5125,-3.4555,-3.422,-3.4012,-3.3522,-3.2851,-3.2732,-3.2302,-3.1696,-3.1544,-3.1461,-3.1573,-3.1982,-3.2162,-3.1949,-3.2214,-3.2264,-3.2109,-3.1892,-3.1709,-3.1543,-3.1372,-3.1254,-3.1213,-3.121,-3.119,-3.119,-3.119,-3.119,-3.119,-3.119,-3.1109,-3.0814,-3.0238,-2.9151,-2.7798,-2.6813,-2.6331,-2.6166,-2.6067,-2.5716,-2.492,-2.4027,-2.3107,-2.2112,-2.1174,-2.0591,-2.032,-2.0078,-2.0008,-1.9919,-1.983,-1.9723,-1.9741,-1.9759,-1.9744,-1.9744,-1.9708,-1.9708,-1.9723,-1.9723,-1.9723,-1.9723,-1.9723,-1.9723,-1.9723,-1.9723,-1.9723,-1.9708,-1.9705,-1.9687,-1.9669,-1.9596,-1.9487,-1.9413,-1.9078,-1.887,-1.8711,-1.8556,-1.842,-1.8361,-1.8282,-1.8109,-1.7875,-1.7598,-1.7282,-1.696,-1.6718,-1.662,-1.6534,-1.6513,-1.6513,-1.6513,-1.6513,-1.6513,-1.6513,-1.6513,-1.6513,-1.6513,-1.6513,-1.6513,-1.6513,-1.6513,-1.6513,-1.6513,-1.6513,-1.6513,-1.6513,-1.6513,-1.6513,-3.6614,-3.6507,-3.6479,-3.6106,-3.5477,-3.4933,-3.4333,-3.3781,-3.3545,-3.2981,-3.225,-3.2023,-3.1501,-3.0846,-3.0723,-3.0662,-3.0744,-3.1314,-3.1496,-3.1415,-3.1747,-3.1935,-3.1825,-3.1899,-3.1911,-3.1714,-3.1562,-3.1372,-3.1293,-3.1213,-3.119,-3.119,-3.119,-3.119,-3.1173,-3.119,-3.0825,-3.0152,-2.9202,-2.8171,-2.7431,-2.6779,-2.638,-2.6364,-2.6364,-2.5895,-2.5127,-2.4248,-2.3292,-2.2311,-2.1323,-2.066,-2.039,-2.0183,-2.0043,-1.9988,-1.9957,-1.9922,-1.9884,-1.9899,-1.9884,-1.9833,-1.9797,-1.9744,-1.9708,-1.9708,-1.9708,-1.9723,-1.9723,-1.9723,-1.9723,-1.9723,-1.9723,-1.9723,-1.9723,-1.9723,-1.9723,-1.9687,-1.9632,-1.9578,-1.9505,-1.9284,-1.9078,-1.8965,-1.8831,-1.8755,-1.862,-1.8431,-1.8115,-1.7713,-1.7365,-1.7023,-1.6825,-1.6654,-1.6556,-1.6513,-1.6513,-1.6513,-1.6513,-1.6513,-1.6513,-1.6513,-1.6513,-1.6513,-1.6513,-1.6513,-1.6513,-1.6513,-1.6513,-1.6513,-1.6513,-1.6513,-1.6513,-1.6513,-1.6513,-3.5664,-3.5616,-3.6068,-3.5832,-3.5117,-3.4727,-3.412,-3.3408,-3.2977,-3.2303,-3.1517,-3.1045,-3.049,-3.005,-2.9916,-2.9868,-2.985,-3.0534,-3.0676,-3.081,-3.1073,-3.1304,-3.1276,-3.1474,-3.1585,-3.1742,-3.137,-3.1358,-3.1395,-3.1293,-3.123,-3.119,-3.119,-3.119,-3.114,-3.0886,-3.0388,-2.9198,-2.8213,-2.7538,-2.7171,-2.6753,-2.6569,-2.6502,-2.6435,-2.6082,-2.523,-2.4348,-2.3424,-2.2426,-2.1389,-2.0694,-2.0441,-2.027,-2.0166,-2.0131,-2.015,-2.022,-2.0166,-2.0146,-2.0093,-2.0025,-1.9955,-1.9869,-1.978,-1.9762,-1.9726,-1.9744,-1.9708,-1.9708,-1.9723,-1.9723,-1.9723,-1.9723,-1.9723,-1.9723,-1.9723,-1.9705,-1.9687,-1.965,-1.9599,-1.9563,-1.9398,-1.9325,-1.9232,-1.9139,-1.8988,-1.8765,-1.8358,-1.7895,-1.7529,-1.7191,-1.6939,-1.6761,-1.6633,-1.6556,-1.6534,-1.6513,-1.6513,-1.6513,-1.6513,-1.6513,-1.6513,-1.6513,-1.6513,-1.6513,-1.6513,-1.6513,-1.6513,-1.6513,-1.6513,-1.6513,-1.6513,-1.6513,-1.6513,-3.5788,-3.5769,-3.5628,-3.5453,-3.5173,-3.4241,-3.3759,-3.327,-3.246,-3.1555,-3.0607,-2.9821,-2.9432,-2.9251,-2.926,-2.9177,-2.907,-2.9814,-2.9963,-3.0147,-3.0481,-3.0733,-3.0737,-3.0701,-3.0797,-3.1159,-3.0994,-3.1165,-3.1415,-3.1037,-3.1123,-3.121,-3.1125,-3.1157,-3.0852,-3.0294,-2.9392,-2.8356,-2.7576,-2.7173,-2.6872,-2.657,-2.6502,-2.652,-2.6436,-2.6066,-2.5196,-2.4249,-2.3276,-2.2297,-2.1358,-2.076,-2.0543,-2.039,-2.0321,-2.0356,-2.0475,-2.0527,-2.0543,-2.0424,-2.0304,-2.0237,-2.0168,-2.0063,-1.999,-1.9851,-1.9815,-1.9815,-1.9797,-1.9762,-1.9726,-1.9723,-1.9726,-1.9726,-1.9726,-1.9723,-1.9723,-1.9723,-1.969,-1.969,-1.9672,-1.9636,-1.9636,-1.9527,-1.9453,-1.938,-1.9157,-1.8917,-1.8528,-1.8095,-1.7754,-1.7419,-1.7115,-1.6897,-1.6731,-1.6633,-1.6534,-1.6513,-1.6513,-1.6513,-1.6513,-1.6513,-1.6513,-1.6513,-1.6513,-1.6513,-1.6513,-1.6513,-1.6513,-1.6513,-1.6513,-1.6513,-1.6513,-1.6513,-1.6513,-3.5546,-3.5048,-3.4932,-3.4784,-3.4585,-3.4129,-3.3258,-3.2203,-3.1646,-3.0856,-2.9919,-2.9439,-2.9214,-2.9197,-2.9108,-2.9044,-2.9046,-2.9185,-2.9314,-2.9502,-2.9855,-3.0174,-3.0206,-3.0374,-3.0644,-3.0707,-3.0491,-3.0263,-3.0335,-3.0399,-3.0098,-3.0139,-3.0741,-3.0784,-3.0395,-2.943,-2.8395,-2.7819,-2.7227,-2.6772,-2.662,-2.6434,-2.6382,-2.6399,-2.5797,-2.5245,-2.4398,-2.3605,-2.2671,-2.1827,-2.1166,-2.0842,-2.0661,-2.056,-2.0543,-2.0594,-2.076,-2.0876,-2.0892,-2.0728,-2.0561,-2.0426,-2.0375,-2.0306,-2.0218,-2.0063,-1.9995,-1.9975,-1.9919,-1.9902,-1.9902,-1.983,-1.9762,-1.9762,-1.9744,-1.9726,-1.9723,-1.9708,-1.9723,-1.9708,-1.9708,-1.969,-1.9705,-1.969,-1.9636,-1.9581,-1.9343,-1.9064,-1.8664,-1.8293,-1.7935,-1.7584,-1.7274,-1.696,-1.6761,-1.6641,-1.6534,-1.6513,-1.6513,-1.6513,-1.6513,-1.6513,-1.6513,-1.6513,-1.6513,-1.6513,-1.6513,-1.6513,-1.6513,-1.6513,-1.6513,-1.6513,-1.6513,-1.6513,-1.6513,-3.4807,-3.4264,-3.4172,-3.4051,-3.3833,-3.344,-3.2579,-3.1455,-3.0967,-3.0391,-2.9579,-2.9434,-2.9351,-2.9296,-2.9218,-2.9152,-2.9089,-2.9076,-2.9,-2.9149,-2.9387,-2.958,-2.9709,-2.9845,-2.9992,-3.0126,-3.0026,-2.9785,-2.9948,-2.9642,-2.954,-2.9687,-2.9999,-3.0061,-2.9634,-2.8533,-2.7652,-2.7262,-2.6873,-2.6503,-2.6416,-2.6259,-2.6171,-2.6054,-2.542,-2.4608,-2.3834,-2.308,-2.2232,-2.1521,-2.099,-2.0844,-2.0761,-2.0727,-2.0744,-2.0876,-2.1022,-2.1199,-2.1199,-2.1055,-2.0892,-2.0745,-2.0695,-2.0595,-2.046,-2.0323,-2.0222,-2.022,-2.0148,-2.0093,-2.0096,-1.9993,-1.9922,-1.9922,-1.978,-1.9744,-1.9744,-1.9744,-1.9726,-1.9708,-1.9723,-1.9723,-1.9723,-1.9723,-1.9669,-1.9614,-1.9431,-1.9172,-1.8851,-1.8484,-1.8129,-1.7767,-1.7391,-1.7086,-1.6791,-1.6684,-1.6577,-1.6513,-1.6513,-1.6513,-1.6513,-1.6513,-1.6513,-1.6513,-1.6513,-1.6513,-1.6513,-1.6513,-1.6513,-1.6513,-1.6513,-1.6513,-1.6513,-1.6513,-1.6513,-3.3484,-3.3423,-3.3351,-3.3219,-3.2947,-3.2093,-3.1597,-3.1259,-3.0552,-3.007,-2.979,-2.9598,-2.9454,-2.9402,-2.9357,-2.9272,-2.9189,-2.9123,-2.9074,-2.9078,-2.9063,-2.9004,-2.8962,-2.9094,-2.9378,-2.9562,-2.9462,-2.9497,-2.9836,-2.9374,-2.9247,-2.9059,-2.9002,-2.908,-2.8925,-2.8141,-2.7347,-2.6706,-2.6434,-2.6347,-2.6225,-2.6045,-2.5936,-2.5501,-2.4821,-2.3967,-2.3219,-2.2473,-2.1714,-2.1183,-2.0909,-2.0811,-2.081,-2.0794,-2.0876,-2.1055,-2.1262,-2.1433,-2.1559,-2.1388,-2.1246,-2.1103,-2.1039,-2.0958,-2.0778,-2.0629,-2.0512,-2.0544,-2.0424,-2.0339,-2.0254,-2.0185,-2.0133,-2.0063,-1.994,-1.9833,-1.9833,-1.9797,-1.9812,-1.9795,-1.9741,-1.9723,-1.9723,-1.9705,-1.9669,-1.9596,-1.9483,-1.9261,-1.8979,-1.8673,-1.8307,-1.7929,-1.7563,-1.7253,-1.6981,-1.6782,-1.6654,-1.6556,-1.6513,-1.6513,-1.6513,-1.6513,-1.6513,-1.6513,-1.6513,-1.6513,-1.6513,-1.6513,-1.6513,-1.6513,-1.6513,-1.6513,-1.6513,-1.6513,-1.6513,-3.3074,-3.2529,-3.2502,-3.2102,-3.1565,-3.1646,-3.1332,-3.0778,-3.0319,-3.0061,-2.9967,-2.9799,-2.9664,-2.9598,-2.9482,-2.939,-2.9259,-2.92,-2.9141,-2.9074,-2.8987,-2.897,-2.8905,-2.8882,-2.8925,-2.8938,-2.8833,-2.8709,-2.8632,-2.859,-2.8187,-2.7874,-2.7896,-2.7792,-2.7858,-2.7415,-2.6757,-2.6553,-2.6329,-2.6152,-2.6026,-2.5775,-2.5394,-2.4865,-2.3993,-2.3165,-2.2491,-2.1787,-2.1244,-2.0924,-2.0778,-2.0794,-2.0843,-2.0876,-2.1038,-2.1199,-2.1388,-2.1602,-2.1753,-2.172,-2.1661,-2.1495,-2.134,-2.1277,-2.1135,-2.0974,-2.0925,-2.086,-2.0728,-2.0661,-2.0611,-2.046,-2.0392,-2.0323,-2.022,-2.0063,-2.001,-1.9955,-1.9919,-1.9902,-1.9866,-1.9762,-1.9726,-1.9723,-1.9687,-1.9632,-1.9523,-1.9339,-1.9078,-1.8827,-1.8498,-1.8109,-1.7733,-1.7427,-1.7149,-1.6939,-1.674,-1.662,-1.6556,-1.6513,-1.6513,-1.6513,-1.6513,-1.6513,-1.6513,-1.6513,-1.6513,-1.6513,-1.6513,-1.6513,-1.6513,-1.6513,-1.6513,-1.6513,-1.6513,-3.2202,-3.1682,-3.1664,-3.1298,-3.0808,-3.1142,-3.0948,-3.043,-3.0214,-3.0142,-3.011,-2.9986,-2.9859,-2.9763,-2.9654,-2.9522,-2.9394,-2.931,-2.924,-2.9163,-2.9055,-2.901,-2.8994,-2.8934,-2.8906,-2.8749,-2.86,-2.8434,-2.8297,-2.7917,-2.7596,-2.7288,-2.6908,-2.7131,-2.7181,-2.6876,-2.6553,-2.6381,-2.617,-2.5899,-2.5633,-2.525,-2.4705,-2.3965,-2.3104,-2.2191,-2.1668,-2.1133,-2.0662,-2.0678,-2.0712,-2.0777,-2.0843,-2.0973,-2.1135,-2.131,-2.1572,-2.1797,-2.1959,-2.2017,-2.1932,-2.1831,-2.1663,-2.154,-2.1464,-2.134,-2.1294,-2.1215,-2.1087,-2.1022,-2.0942,-2.0778,-2.0712,-2.0645,-2.0477,-2.0308,-2.0237,-2.0185,-2.0078,-2.0043,-1.999,-1.9887,-1.9762,-1.9726,-1.9705,-1.9636,-1.9563,-1.938,-1.9176,-1.8946,-1.8673,-1.8274,-1.7935,-1.7632,-1.7344,-1.7073,-1.6897,-1.6718,-1.662,-1.6556,-1.6513,-1.6513,-1.6513,-1.6513,-1.6513,-1.6513,-1.6513,-1.6513,-1.6513,-1.6513,-1.6513,-1.6513,-1.6513,-1.6513,-1.6513,-3.0895,-3.0809,-3.0789,-3.0798,-3.07,-3.0696,-3.0554,-3.0404,-3.026,-3.02,-3.0204,-3.0113,-3.0014,-2.991,-2.9842,-2.9634,-2.9401,-2.9313,-2.9091,-2.8968,-2.8639,-2.8747,-2.8838,-2.8822,-2.8824,-2.8827,-2.8737,-2.8505,-2.8371,-2.7968,-2.7554,-2.7182,-2.6941,-2.6927,-2.681,-2.6673,-2.6468,-2.6294,-2.601,-2.5672,-2.5255,-2.4604,-2.3967,-2.3195,-2.2293,-2.1574,-2.1069,-2.068,-2.0467,-2.0458,-2.056,-2.0694,-2.0826,-2.099,-2.1167,-2.1433,-2.1781,-2.1988,-2.2092,-2.2137,-2.2183,-2.2097,-2.1974,-2.1901,-2.1783,-2.1648,-2.1572,-2.1527,-2.1434,-2.1356,-2.1293,-2.1198,-2.1119,-2.0942,-2.0729,-2.0613,-2.0544,-2.0426,-2.0289,-2.022,-2.015,-2.0045,-1.9851,-1.978,-1.9744,-1.9672,-1.9599,-1.9523,-1.9321,-1.9097,-1.8812,-1.845,-1.8121,-1.7855,-1.757,-1.7303,-1.7044,-1.6846,-1.6718,-1.6633,-1.6577,-1.6513,-1.6513,-1.6513,-1.6513,-1.6513,-1.6513,-1.6513,-1.6513,-1.6513,-1.6513,-1.6513,-1.6513,-1.6513,-1.6513,-3.0878,-3.0875,-3.0828,-3.0789,-3.0752,-3.0644,-3.0516,-3.0406,-3.0342,-3.0311,-3.028,-3.02,-3.0002,-3.0042,-3.0014,-2.9477,-2.9029,-2.8614,-2.8119,-2.7892,-2.7791,-2.7941,-2.8098,-2.8257,-2.8507,-2.8727,-2.8725,-2.8498,-2.8291,-2.7933,-2.7539,-2.7135,-2.6888,-2.6774,-2.6607,-2.6573,-2.6368,-2.6144,-2.5809,-2.5373,-2.4809,-2.4167,-2.3317,-2.2274,-2.1693,-2.1039,-2.0482,-2.0296,-2.0183,-2.0321,-2.0373,-2.0492,-2.0727,-2.0876,-2.1071,-2.1527,-2.1811,-2.2027,-2.2075,-2.2194,-2.2271,-2.2271,-2.2194,-2.2089,-2.1988,-2.1886,-2.1827,-2.1768,-2.1708,-2.1616,-2.157,-2.1494,-2.1433,-2.1309,-2.1103,-2.0958,-2.086,-2.0712,-2.0578,-2.046,-2.0392,-2.0185,-1.9993,-1.9851,-1.9815,-1.9744,-1.9654,-1.9596,-1.9483,-1.9265,-1.9003,-1.8649,-1.8397,-1.8155,-1.7828,-1.7522,-1.7233,-1.6981,-1.6867,-1.6705,-1.6577,-1.6534,-1.6513,-1.6513,-1.6513,-1.6513,-1.6513,-1.6513,-1.6513,-1.6513,-1.6513,-1.6513,-1.6513,-1.6513,-1.6513,-2.9883,-2.9861,-2.9837,-2.978,-2.9758,-2.9655,-2.953,-2.9549,-3.0103,-3.0231,-2.9843,-2.9756,-2.9544,-2.9114,-2.9034,-2.8726,-2.8141,-2.8018,-2.7674,-2.7307,-2.6823,-2.7173,-2.7436,-2.7524,-2.7664,-2.8026,-2.826,-2.8155,-2.7993,-2.7855,-2.7517,-2.6759,-2.6609,-2.6261,-2.5911,-2.5612,-2.5547,-2.5446,-2.5286,-2.5004,-2.4442,-2.3658,-2.2427,-2.1644,-2.1175,-2.0551,-2.0048,-1.997,-2.0043,-2.0148,-2.0183,-2.0373,-2.0644,-2.0844,-2.1166,-2.1588,-2.184,-2.1984,-2.2044,-2.2192,-2.2282,-2.2313,-2.2313,-2.2237,-2.2166,-2.208,-2.2034,-2.1991,-2.1913,-2.1869,-2.1825,-2.1781,-2.1736,-2.1708,-2.1495,-2.1309,-2.1167,-2.1038,-2.0892,-2.0745,-2.0561,-2.0357,-2.0185,-2.0028,-1.9869,-1.978,-1.9708,-1.9654,-1.9578,-1.945,-1.9209,-1.8912,-1.8702,-1.8489,-1.8135,-1.7808,-1.7509,-1.724,-1.7065,-1.6897,-1.6671,-1.6556,-1.6577,-1.6556,-1.6513,-1.6513,-1.6513,-1.6513,-1.6513,-1.6513,-1.6513,-1.6513,-1.6513,-1.6513,-1.6513,-2.832,-2.8358,-2.8293,-2.8406,-2.8213,-2.8237,-2.818,-2.8178,-2.9506,-2.9759,-2.9093,-2.8998,-2.8579,-2.8173,-2.8084,-2.7822,-2.7478,-2.7335,-2.705,-2.6925,-2.6529,-2.6581,-2.6702,-2.6746,-2.6955,-2.703,-2.7204,-2.7503,-2.7477,-2.7268,-2.6852,-2.624,-2.6003,-2.5634,-2.5058,-2.4882,-2.4806,-2.4728,-2.4596,-2.434,-2.3814,-2.2807,-2.167,-2.1288,-2.0773,-2.0198,-1.9955,-1.9902,-1.9919,-1.9955,-2.0061,-2.0285,-2.0627,-2.0942,-2.1309,-2.1603,-2.184,-2.1955,-2.2044,-2.2192,-2.2282,-2.2313,-2.2313,-2.2282,-2.224,-2.2211,-2.2166,-2.2152,-2.2092,-2.2046,-2.2017,-2.1974,-2.193,-2.1871,-2.1723,-2.1602,-2.151,-2.134,-2.1167,-2.099,-2.0811,-2.0611,-2.0443,-2.0273,-2.008,-1.9922,-1.9797,-1.9759,-1.9669,-1.9578,-1.9395,-1.9139,-1.895,-1.8741,-1.8456,-1.8121,-1.7821,-1.757,-1.7323,-1.7065,-1.6812,-1.6705,-1.662,-1.6577,-1.6513,-1.6513,-1.6513,-1.6513,-1.6513,-1.6513,-1.6513,-1.6513,-1.6513,-1.6513,-1.6513,-2.83,-2.8281,-2.8295,-2.8278,-2.8189,-2.8194,-2.8103,-2.809,-2.8386,-2.8411,-2.8224,-2.8159,-2.7992,-2.7601,-2.7551,-2.7254,-2.6759,-2.6587,-2.6131,-2.577,-2.554,-2.5887,-2.6001,-2.6032,-2.6247,-2.6698,-2.6859,-2.6742,-2.6646,-2.6407,-2.61,-2.5579,-2.5346,-2.495,-2.4488,-2.4367,-2.426,-2.4069,-2.3761,-2.3505,-2.303,-2.2568,-2.1802,-2.1169,-2.0527,-2.0287,-2.0061,-1.9902,-1.9884,-1.9851,-1.9973,-2.0287,-2.0695,-2.1038,-2.1325,-2.1573,-2.1827,-2.1926,-2.2058,-2.2178,-2.2282,-2.2313,-2.2313,-2.2313,-2.2313,-2.2282,-2.2268,-2.2268,-2.2237,-2.2223,-2.2209,-2.2152,-2.2092,-2.2034,-2.1945,-2.1886,-2.1827,-2.1632,-2.1402,-2.1246,-2.1071,-2.0876,-2.0712,-2.0512,-2.0323,-2.0133,-2.0008,-1.9902,-1.9795,-1.9687,-1.9541,-1.9325,-1.9157,-1.8917,-1.8674,-1.8417,-1.8101,-1.7794,-1.7543,-1.7253,-1.6973,-1.6803,-1.6641,-1.6577,-1.6513,-1.6513,-1.6513,-1.6513,-1.6513,-1.6513,-1.6513,-1.6513,-1.6513,-1.6513,-1.6513,-2.7144,-2.7146,-2.7148,-2.712,-2.7084,-2.7098,-2.706,-2.6992,-2.6918,-2.6858,-2.6924,-2.7128,-2.7121,-2.6781,-2.6675,-2.6614,-2.5978,-2.5866,-2.5615,-2.5145,-2.495,-2.5145,-2.5289,-2.5371,-2.538,-2.5773,-2.6033,-2.5994,-2.593,-2.5918,-2.5722,-2.5042,-2.4718,-2.4372,-2.397,-2.3738,-2.3672,-2.3448,-2.3022,-2.2724,-2.2397,-2.2018,-2.1649,-2.1006,-2.0712,-2.046,-2.0237,-2.0063,-1.999,-1.999,-2.0096,-2.0392,-2.0778,-2.1087,-2.1372,-2.1602,-2.1811,-2.1969,-2.2089,-2.2194,-2.2313,-2.2313,-2.2313,-2.2313,-2.2313,-2.2282,-2.2282,-2.2282,-2.2282,-2.2268,-2.2268,-2.224,-2.2209,-2.2166,-2.2094,-2.2036,-2.1901,-2.1736,-2.1586,-2.1495,-2.1324,-2.1167,-2.099,-2.0795,-2.0579,-2.0308,-2.0185,-1.999,-1.9884,-1.9777,-1.965,-1.9505,-1.9325,-1.9157,-1.895,-1.8664,-1.8366,-1.8069,-1.7788,-1.7419,-1.7107,-1.6867,-1.6675,-1.6577,-1.6534,-1.6513,-1.6513,-1.6513,-1.6513,-1.6513,-1.6513,-1.6513,-1.6513,-1.6513,-1.6513,-2.5747,-2.5694,-2.5741,-2.5722,-2.5695,-2.5721,-2.5738,-2.5687,-2.5577,-2.557,-2.5716,-2.6258,-2.5933,-2.5548,-2.5317,-2.5302,-2.5339,-2.545,-2.5235,-2.5138,-2.5038,-2.5072,-2.4959,-2.4847,-2.4868,-2.4892,-2.5085,-2.5419,-2.5633,-2.5426,-2.4986,-2.4447,-2.401,-2.3602,-2.2915,-2.2586,-2.2637,-2.2683,-2.2494,-2.2341,-2.2024,-2.1723,-2.1497,-2.1247,-2.099,-2.0728,-2.0527,-2.034,-2.022,-2.0218,-2.0287,-2.0595,-2.0876,-2.1183,-2.1418,-2.1678,-2.1855,-2.2034,-2.2168,-2.2254,-2.2299,-2.2313,-2.2313,-2.2313,-2.2313,-2.231,-2.231,-2.2324,-2.2324,-2.2324,-2.2324,-2.2338,-2.2321,-2.2307,-2.2237,-2.2168,-2.2034,-2.1899,-2.1825,-2.1753,-2.1587,-2.1402,-2.1262,-2.1071,-2.0828,-2.0562,-2.0308,-2.0115,-1.9955,-1.9833,-1.9708,-1.9614,-1.9487,-1.9321,-1.9191,-1.8912,-1.8639,-1.8372,-1.8075,-1.7632,-1.724,-1.6981,-1.6769,-1.6599,-1.6543,-1.6534,-1.6513,-1.6513,-1.6513,-1.6513,-1.6513,-1.6513,-1.6513,-1.6513,-1.6513,-2.5699,-2.5689,-2.5699,-2.5703,-2.5703,-2.5696,-2.5702,-2.566,-2.5611,-2.559,-2.5605,-2.5582,-2.553,-2.5393,-2.537,-2.5351,-2.5322,-2.5287,-2.5245,-2.517,-2.5149,-2.5051,-2.4933,-2.4795,-2.4639,-2.4594,-2.4515,-2.4434,-2.4876,-2.4567,-2.415,-2.3791,-2.3608,-2.3282,-2.2985,-2.2712,-2.2579,-2.2528,-2.2474,-2.2405,-2.2265,-2.2005,-2.1754,-2.1527,-2.1294,-2.1006,-2.0761,-2.0561,-2.0392,-2.0373,-2.0509,-2.081,-2.1071,-2.1294,-2.1527,-2.1738,-2.1913,-2.2049,-2.2183,-2.2268,-2.2296,-2.2313,-2.2313,-2.231,-2.2324,-2.2349,-2.2363,-2.2405,-2.2419,-2.2432,-2.2432,-2.246,-2.2443,-2.2443,-2.2402,-2.2349,-2.2251,-2.2178,-2.212,-2.1988,-2.1825,-2.1676,-2.1572,-2.1355,-2.1087,-2.0828,-2.0545,-2.034,-2.0063,-1.9922,-1.9797,-1.9723,-1.9647,-1.9593,-1.9501,-1.9176,-1.8893,-1.8649,-1.8358,-1.7895,-1.7481,-1.7128,-1.6918,-1.6748,-1.6586,-1.6522,-1.6534,-1.6534,-1.6513,-1.6513,-1.6513,-1.6513,-1.6513,-1.6513,-1.6513]},{"header":{"parameterUnit":"m.s-1","parameterCategory":1,"la1":31.0,"la2":29.5877,"lo1":-88.7671,"lo2":-86.6584,"dy":0.0162,"dx":0.0185,"nx":115,"ny":88,"refTime":"2023-07-25T06:00:00:Z","depth":0,"parameterNumber":3,"parameterNumberName":"V-component_of_WINDS"},"data":[0.0,0.0,0.0,0.0,0.0,0.0,0.0,0.0,0.0,0.0,0.0,0.0,0.0,0.0,0.0,0.0,0.0,0.0,0.0,0.0,0.0,0.0,0.0,0.0,0.0,0.0,0.0,0.0,0.0,0.0,0.0,0.0,0.0,0.0,0.0,0.0,0.0,0.0,0.0,0.0,0.0,0.0,0.0,0.0,0.0,0.0,0.0,0.0,0.0,0.0,0.0,0.0,0.0,0.0,0.0,0.0,0.0,0.0,0.0,0.0,0.0,0.0,0.0,0.0,0.0,0.0,0.0,0.0,0.0,0.0,0.0,0.0,0.0,0.0,0.0,0.0,0.0,0.0,0.0,0.0,0.0,0.0,0.0,0.0,0.0,0.0,0.0,0.0,0.0,0.0,0.0,0.0,0.0,0.0,0.0,0.0,0.0,0.0,0.0,0.0,0.0,0.0,0.0,0.0,0.0,0.0,0.0,0.0,0.0,0.0,0.0,0.0,0.0,0.0,0.0,0.0,0.0,0.0,0.0,0.0,0.0,0.0,0.0,0.0,0.0,0.0,0.0,0.0,0.0,0.0,0.0,0.0,0.0,0.0,0.0,0.0,0.0,0.0,0.0,0.0,0.0,0.0,0.0,0.0,0.0,0.0,0.0,0.0,0.0,0.0,0.0,0.0,0.0,0.0,0.0,0.0,0.0,0.0,0.0,0.0,0.0,0.0,0.0,0.0,0.0,0.0,0.0,0.0,0.0,0.0,0.0,0.0,0.0,0.0,0.0,0.0,0.0,0.0,0.0,0.0,0.0,0.0,0.0,0.0,0.0,0.0,0.0,0.0,0.0,0.0,0.0,0.0,0.0,0.0,0.0,0.0,0.0,0.0,0.0,0.0,0.0,0.0,0.0,0.0,0.0,0.0,0.0,0.0,0.0,0.0,0.0,0.0,0.0,0.0,0.0,0.0,0.0,0.0,0.0,0.0,0.0,0.0,0.0,0.0,0.0,0.0,0.0,0.0,0.0,0.0,0.0,0.0,0.0,0.0,0.0,0.0,0.0,0.0,0.0,0.0,0.0,0.0,0.0,0.0,0.0,0.0,0.0,0.0,0.0,0.0,0.0,0.0,0.0,0.0,0.0,0.0,0.0,0.0,0.0,0.0,0.0,0.0,0.0,0.0,0.0,0.0,0.0,0.0,0.0,0.0,0.0,0.0,0.0,0.0,0.0,0.0,0.0,0.0,0.0,0.0,0.0,0.0,0.0,0.0,0.0,0.0,0.0,0.0,0.0,0.0,0.0,0.0,0.0,0.0,0.0,0.0,0.0,0.0,0.0,0.0,0.0,0.0,0.0,0.0,0.0,0.0,0.0,0.0,0.0,0.0,0.0,0.0,0.0,0.0,0.0,0.0,0.0,0.0,0.0,0.0,0.0,0.0,0.0,0.0,0.0,0.0,0.0,0.0,0.0,0.0,0.0,0.0,0.0,0.0,0.0,0.0,0.0,0.0,0.0,0.0,0.0,0.0,0.0,0.0,0.0,0.0,0.0,0.0,0.0,0.0,0.0,0.0,0.0,0.0,0.0,0.0,0.0,0.0,0.0,0.0,0.0,0.0,0.0,0.0,0.0,0.0,0.0,0.0,0.0,0.0,0.0,0.0,0.0,0.0,0.0,0.0,0.0,0.0,0.0,0.0,0.0,0.0,0.0,0.0,0.0,0.0,0.0,0.0,0.0,0.0,0.0,0.0,0.0,0.0,0.0,0.0,0.0,0.0,0.0,0.0,0.0,0.0,0.0,0.0,0.0,0.0,0.0,0.0,0.0,0.0,0.0,0.0,0.0,0.0,0.0,0.0,0.0,0.0,0.0,0.0,0.0,0.0,0.0,0.0,0.0,0.0,0.0,0.0,0.0,0.0,0.0,0.0,0.0,0.0,0.0,0.0,0.0,0.0,0.0,0.0,0.0,0.0,0.0,0.0,0.0,0.0,0.0,0.0,0.0,0.0,0.0,0.0,0.0,0.0,0.0,0.0,0.0,0.0,0.0,0.0,0.0,0.0,0.0,0.0,0.0,0.0,0.0,0.0,0.0,0.0,0.0,0.0,0.0,0.0,0.0,0.0,0.0,0.0,0.0,0.0,0.0,0.0,0.0,0.0,0.0,0.0,0.0,0.0,0.0,0.0,0.0,0.0,0.0,0.0,0.0,0.0,0.0,0.0,0.0,0.0,0.0,0.0,0.0,0.0,0.0,0.0,0.0,0.0,0.0,0.0,0.0,0.0,0.0,0.0,0.0,0.0,0.0,0.0,0.0,0.0,0.0,0.0,0.0,0.0,0.0,0.0,0.0,0.0,0.0,0.0,0.0,0.0,0.0,0.0,0.0,0.0,0.0,0.0,0.0,0.0,0.0,0.0,0.0,0.0,0.0,0.0,0.0,0.0,0.0,0.0,0.0,0.0,0.0,0.0,0.0,0.0,0.0,0.0,0.0,0.0,0.0,0.0,0.0,0.0,0.0,0.0,0.0,0.0,0.0,0.0,0.0,0.0,0.0,0.0,0.0,0.0,0.0,0.0,0.0,0.0,0.0,0.0,0.0,0.0,0.0,0.0,0.0,0.0,0.0,0.0,0.0,0.0,0.0,0.0,0.0,0.0,0.0,0.0,0.0,0.0,0.0,0.0,0.0,0.0,0.0,0.0,0.0,0.0,0.0,0.0,0.0,0.0,0.0,0.0,0.0,0.0,0.0,0.0,0.0,0.0,0.0,0.0,0.0,0.0,0.0,0.0,0.0,0.0,0.0,0.0,0.0,0.0,0.0,0.0,0.0,0.0,0.0,0.0,0.0,0.0,0.0,0.0,0.0,0.0,0.0,0.0,0.0,0.0,0.0,0.0,0.0,0.0,0.0,0.0,0.0,0.0,0.0,0.0,0.0,0.0,0.0,0.0,0.0,0.0,0.0,0.0,0.0,0.0,0.0,0.0,0.0,0.0,0.0,0.0,0.0,0.0,0.0,0.0,0.0,0.0,0.0,0.0,0.0,0.0,0.0,0.0,0.0,0.0,0.0,0.0,0.0,0.0,0.0,0.0,0.0,0.0,0.0,0.0,0.0,0.0,0.0,0.0,0.0,0.0,0.0,0.0,0.0,0.0,0.0,0.0,0.0,0.0,0.0,0.0,0.0,0.0,0.0,0.0,0.0,0.0,0.0,0.0,0.0,0.0,0.0,0.0,0.0,0.0,0.0,0.0,0.0,0.0,0.0,0.0,0.0,0.0,0.0,0.0,0.0,0.0,0.0,0.0,0.0,0.0,0.0,0.0,0.0,0.0,0.0,0.0,0.0,0.0,0.0,0.0,0.0,0.0,0.0,0.0,0.0,0.0,0.0,0.0,0.0,0.0,0.0,0.0,0.0,0.0,0.0,0.0,0.0,0.0,0.0,0.0,0.0,0.0,0.0,0.0,0.0,0.0,0.0,0.0,0.0,0.0,0.0,0.0,0.0,0.0,0.0,0.0,0.0,0.0,0.0,0.0,0.0,0.0,0.0,0.0,0.0,0.0,0.0,0.0,0.0,0.0,0.0,0.0,0.0,0.0,0.0,0.0,0.0,0.0,0.0,0.0,0.0,0.0,0.0,0.0,0.0,0.0,0.0,0.0,0.0,0.0,0.0,0.0,0.0,0.0,0.0,0.0,0.0,0.0,0.0,0.0,0.0,0.0,0.0,0.0,0.0,0.0,0.0,0.0,0.0,0.0,0.0,0.0,0.0,0.0,0.0,0.0,0.0,0.0,0.0,0.0,0.0,0.0,0.0,0.0,0.0,0.0,0.0,0.0,0.0,0.0,0.0,0.0,0.0,0.0,0.0,0.0,0.0,0.0,0.0,0.0,0.0,0.0,0.0,0.0,0.0,0.0,0.0,0.0,0.0,0.0,0.0,0.0,0.0,0.0,0.0,0.0,0.0,0.0,0.0,0.0,0.0,0.0,0.0,0.0,0.0,0.0,0.0,0.0,0.0,0.0,0.0,0.0,0.0,0.0,0.0,0.0,0.0,0.0,0.0,0.0,0.0,0.0,0.0,0.0,0.0,0.0,0.0,0.0,0.0,0.0,0.0,0.0,0.0,0.0,0.0,0.0,0.0,0.0,0.0,0.0,0.0,0.0,0.0,0.0,0.0,0.0,0.0,0.0,0.0,0.0,0.0,0.0,0.0,0.0,0.0,0.0,0.0,0.0,0.0,0.0,0.0,0.0,0.0,0.0,0.0,0.0,0.0,0.0,0.0,0.0,0.0,0.0,-0.3815,0.0,0.0,0.0,0.0,0.0,0.0,0.0,0.0,0.0,0.0,0.0,0.0,0.0,0.0,0.0,0.0,0.0,0.0,0.0,0.0,0.0,0.0,0.0,0.0,0.0,0.0,0.0,0.0,0.0,0.0,0.0,0.0,0.0,0.0,0.0,0.0,0.0,0.0,0.0,0.0,0.0,0.0,0.0,0.0,0.0,0.0,0.0,0.0,0.0,0.0,0.0,0.0,0.0,0.0,0.0,0.0,0.0,0.0,0.0,0.0,0.0,0.0,0.0,0.0,0.0,0.0,0.0,0.0,0.0,0.0,0.0,0.0,0.0,0.0,0.0,0.0,0.0,0.0,0.0,0.0,0.0,0.0,0.0,0.0,0.0,0.0,0.0,0.0,0.0,0.0,0.0,0.0,0.0,0.0,0.0,0.0,0.0,0.0,0.0,0.0,0.0,0.0,0.0,0.0,0.0,0.0,0.0,0.0,0.0,0.0,-0.5772,-0.5133,-0.469,-0.4333,-0.4042,0.0,0.0,0.0,0.0,0.0,0.0,0.0,0.0,0.0,0.0,0.0,0.0,0.0,0.0,0.0,0.0,0.0,0.0,0.0,0.0,0.0,0.0,0.0,0.0,0.0,0.0,0.0,0.0,0.0,0.0,0.0,0.0,0.0,0.0,0.0,0.0,0.0,0.0,0.0,0.0,0.0,0.0,0.0,0.0,0.0,0.0,0.0,0.0,0.0,0.0,0.0,0.0,0.0,0.0,0.0,0.0,0.0,0.0,0.0,0.0,0.0,0.0,0.0,0.0,0.0,0.0,0.0,0.0,0.0,0.0,0.0,0.0,0.0,0.0,0.0,0.0,0.0,0.0,0.0,0.0,0.0,0.0,0.0,0.0,0.0,0.0,0.0,0.0,0.0,0.0,0.0,0.0,0.0,0.0,0.0,0.0,0.0,0.0,0.0,0.0,0.0,0.0,0.0,0.0,0.0,0.0,0.0,0.0,0.0,0.0,0.0,0.0,-0.4754,-0.4455,-0.4372,0.0,0.0,0.0,0.0,0.0,0.0,0.0,0.0,0.0,0.0,0.0,0.0,0.0,0.0,0.0,0.0,0.0,0.0,0.0,0.0,0.0,0.0,0.0,0.0,0.0,0.0,0.0,0.0,0.0,0.0,0.0,0.0,0.0,0.0,0.0,0.0,0.0,0.0,0.0,0.0,0.0,0.0,0.0,0.0,0.0,0.0,0.0,0.0,0.0,0.0,0.0,0.0,0.0,0.0,0.0,0.0,0.0,0.0,0.0,0.0,0.0,0.0,0.0,0.0,0.0,0.0,0.0,0.0,0.0,0.0,0.0,0.0,0.0,0.0,0.0,0.0,0.0,0.0,0.0,0.0,0.0,0.0,0.0,0.0,0.0,0.0,0.0,0.0,0.0,0.0,0.0,0.0,0.0,0.0,0.0,0.0,0.0,0.0,0.0,0.0,0.0,0.0,0.0,0.0,0.0,0.0,0.0,0.0,0.0,0.0,-0.6115,-0.522,-0.4996,0.0,-0.4862,0.0,0.0,0.0,0.0,0.0,0.0,0.0,0.0,0.0,0.0,0.0,0.0,0.0,0.0,0.0,0.0,0.0,0.0,0.0,0.0,0.0,0.0,0.0,0.0,0.0,0.0,0.0,0.0,0.0,0.0,0.0,0.0,0.0,0.0,0.0,0.0,0.0,0.0,0.0,0.0,0.0,0.0,0.0,0.0,0.0,0.0,0.0,0.0,0.0,0.0,0.0,0.0,0.0,0.0,0.0,0.0,0.0,0.0,0.0,0.0,0.0,0.0,0.0,0.0,0.0,0.0,0.0,0.0,0.0,0.0,0.0,0.0,0.0,0.0,0.0,0.0,0.0,0.0,0.0,0.0,0.0,0.0,0.0,0.0,0.0,0.0,0.0,0.0,0.0,0.0,0.0,0.0,0.0,0.0,0.0,0.0,0.0,0.0,0.0,0.0,0.0,0.0,0.0,0.0,0.0,0.0,0.0,0.0,0.0,0.0,-0.6169,-0.5567,-0.5301,-0.5179,0.0,0.0,0.0,0.0,0.0,0.0,0.0,0.0,0.0,0.0,0.0,0.0,0.0,0.0,0.0,0.0,0.0,0.0,0.0,0.0,0.0,0.0,0.0,0.0,0.0,0.0,0.0,0.0,0.0,0.0,0.0,0.0,0.0,0.0,0.0,0.0,0.0,0.0,0.0,0.0,0.0,0.0,0.0,0.0,0.0,0.0,0.0,0.0,0.0,0.0,0.0,0.0,0.0,0.0,0.0,0.0,0.0,0.0,0.0,0.0,0.0,0.0,0.0,0.0,0.0,0.0,0.0,0.0,0.0,0.0,0.0,0.0,0.0,0.0,0.0,0.0,0.0,0.0,0.0,0.0,0.0,0.0,0.0,0.0,0.0,0.0,0.0,0.0,0.0,0.0,0.0,0.0,0.0,0.0,0.0,0.0,0.0,0.0,0.0,0.0,0.0,0.0,0.0,0.0,0.0,0.0,0.0,0.0,0.0,0.0,-0.6998,-0.6332,-0.5793,-0.5471,-0.5434,-0.5712,0.0,0.0,0.0,0.0,0.0,0.0,0.0,0.0,0.0,0.0,0.0,0.0,0.0,0.0,0.0,0.0,0.0,0.0,0.0,0.0,0.0,0.0,0.0,0.0,0.0,0.0,0.0,0.0,0.0,0.0,0.0,0.0,0.0,0.0,0.0,0.0,0.0,0.0,0.0,0.0,0.0,0.0,0.0,0.0,0.0,0.0,0.0,0.0,0.0,0.0,0.0,0.0,0.0,0.0,0.0,0.0,0.0,0.0,0.0,0.0,0.0,0.0,0.0,0.0,0.0,0.0,0.0,0.0,0.0,0.0,0.0,0.0,0.0,0.0,0.0,0.0,0.0,0.0,0.0,0.0,0.0,0.0,0.0,0.0,0.0,0.0,0.0,0.0,0.0,0.0,0.0,0.0,0.0,0.0,0.0,0.0,0.0,0.0,0.0,0.0,0.0,0.0,0.0,0.0,0.0,0.0,0.0,0.0,-0.7917,-0.7339,-0.661,-0.5747,-0.5445,-0.5604,0.0,0.0,0.0,0.0,0.0,0.0,0.0,0.0,0.0,0.0,0.0,0.0,0.0,0.0,0.0,0.0,0.0,0.0,0.0,0.0,0.0,0.0,0.0,0.0,0.0,0.0,0.0,0.0,0.0,0.0,0.0,0.0,0.0,0.0,0.0,0.0,0.0,0.0,0.0,0.0,0.0,0.0,0.0,0.0,0.0,0.0,0.0,0.0,0.0,0.0,0.0,0.0,0.0,0.0,0.0,0.0,0.0,0.0,0.0,0.0,0.0,0.0,0.0,0.0,0.0,0.0,0.0,0.0,0.0,0.0,0.0,0.0,0.0,0.0,0.0,0.0,0.0,0.0,0.0,0.0,0.0,0.0,0.0,0.0,0.0,0.0,0.0,0.0,0.0,0.0,0.0,0.0,0.0,0.0,0.0,0.0,0.0,0.0,0.0,0.0,0.0,0.0,0.0,0.0,0.0,0.0,0.0,0.0,0.0,-0.7898,-0.718,-0.6562,-0.6149,-0.6078,-0.6318,0.0,0.0,0.0,0.0,0.0,0.0,0.0,0.0,0.0,0.0,0.0,0.0,0.0,0.0,0.0,0.0,0.0,0.0,0.0,0.0,0.0,0.0,0.0,0.0,0.0,0.0,0.0,0.0,0.0,0.0,0.0,0.0,0.0,0.0,0.0,0.0,0.0,0.0,0.0,0.0,0.0,0.0,0.0,0.0,0.0,0.0,0.0,0.0,0.0,0.0,0.0,0.0,0.0,0.0,0.0,0.0,0.0,0.0,0.0,0.0,0.0,0.0,0.0,0.0,0.0,0.0,0.0,0.0,0.0,0.0,0.0,0.0,0.0,0.0,0.0,0.0,0.0,0.0,0.0,0.0,0.0,0.0,0.0,0.0,0.0,0.0,0.0,0.0,0.0,0.0,0.0,0.0,0.0,0.0,0.0,0.0,0.0,0.0,0.0,0.0,0.0,0.0,0.0,0.0,0.0,0.0,0.0,0.0,0.0,-0.8,0.0,-0.683,-0.6759,-0.6715,-0.6948,0.0,0.0,0.0,0.0,0.0,0.0,0.0,0.0,0.0,0.0,0.0,0.0,0.0,0.0,0.0,0.0,0.0,0.0,0.0,0.0,0.0,0.0,0.0,0.0,0.0,0.0,0.0,0.0,0.0,0.0,0.0,0.0,0.0,0.0,0.0,0.0,0.0,0.0,0.0,0.0,0.0,0.0,0.0,0.0,0.0,0.0,0.0,0.0,0.0,0.0,0.0,0.0,0.0,0.0,0.0,0.0,0.0,0.0,0.0,0.0,0.0,0.0,0.0,0.0,0.0,0.0,0.0,0.0,0.0,0.0,0.0,0.0,0.0,0.0,0.0,0.0,0.0,0.0,0.0,0.0,0.0,0.0,0.0,0.0,0.0,0.0,0.0,0.0,0.0,0.0,0.0,0.0,0.0,0.0,0.0,0.0,0.0,0.0,0.0,0.0,0.0,0.0,0.0,0.0,0.0,0.0,0.0,0.0,-0.8767,-0.8206,-0.7755,-0.7539,-0.7516,-0.7288,-0.7424,0.0,0.0,0.0,0.0,0.0,0.0,0.0,0.0,0.0,0.0,0.0,0.0,0.0,0.0,0.0,0.0,0.0,0.0,0.0,0.0,0.0,0.0,0.0,0.0,0.0,0.0,0.0,0.0,0.0,0.0,0.0,0.0,0.0,0.0,0.0,0.0,0.0,0.0,0.0,0.0,0.0,0.0,0.0,0.0,0.0,0.0,0.0,0.0,0.0,0.0,0.0,0.0,0.0,0.0,0.0,0.0,0.0,0.0,0.0,0.0,0.0,0.0,0.0,0.0,0.0,0.0,0.0,0.0,0.0,0.0,0.0,0.0,0.0,0.0,0.0,0.0,0.0,0.0,0.0,0.0,0.0,0.0,0.0,0.0,0.0,0.0,0.0,0.0,0.0,0.0,0.0,0.0,0.0,0.0,0.0,0.0,0.0,0.0,0.0,0.0,0.0,0.0,0.0,0.0,0.0,0.0,0.0,0.0,0.0,-0.8782,-0.8608,-0.8447,-0.8264,-0.826,-0.8424,0.0,0.0,0.0,0.0,0.0,0.0,0.0,0.0,0.0,0.0,0.0,0.0,0.0,0.0,0.0,0.0,0.0,0.0,0.0,0.0,0.0,0.0,0.0,0.0,0.0,0.0,0.0,0.0,0.0,0.0,0.0,0.0,0.0,0.0,0.0,0.0,0.0,0.0,0.0,0.0,0.0,0.0,0.0,0.0,0.0,0.0,0.0,0.0,0.0,0.0,0.0,0.0,0.0,0.0,0.0,0.0,0.0,0.0,0.0,0.0,0.0,0.0,0.0,0.0,0.0,0.0,0.0,0.0,0.0,0.0,0.0,0.0,0.0,0.0,0.0,0.0,0.0,0.0,0.0,0.0,0.0,0.0,0.0,0.0,0.0,0.0,0.0,0.0,0.0,0.0,0.0,0.0,0.0,0.0,0.0,0.0,0.0,0.0,0.0,0.0,0.0,0.0,0.0,0.0,0.0,0.0,0.0,0.0,0.0,-1.0787,-1.0086,-0.9662,-0.9589,-0.9534,-0.9589,-0.9663,0.0,0.0,0.0,0.0,0.0,0.0,0.0,0.0,0.0,0.0,0.0,0.0,0.0,0.0,0.0,0.0,0.0,0.0,0.0,0.0,0.0,0.0,0.0,0.0,0.0,0.0,0.0,0.0,0.0,0.0,0.0,0.0,0.0,0.0,0.0,0.0,0.0,0.0,0.0,0.0,0.0,0.0,0.0,0.0,0.0,0.0,0.0,0.0,0.0,0.0,0.0,0.0,0.0,0.0,0.0,0.0,0.0,0.0,0.0,0.0,0.0,0.0,0.0,0.0,0.0,0.0,0.0,0.0,0.0,0.0,0.0,0.0,0.0,0.0,0.0,0.0,0.0,0.0,0.0,0.0,0.0,0.0,0.0,0.0,0.0,0.0,0.0,0.0,0.0,0.0,0.0,0.0,0.0,0.0,0.0,0.0,0.0,0.0,0.0,0.0,0.0,0.0,0.0,0.0,0.0,0.0,0.0,0.0,-1.3922,-1.2149,-1.1271,-1.1347,-1.1093,-1.089,0.0,0.0,0.0,0.0,0.0,0.0,0.0,0.0,0.0,0.0,0.0,0.0,0.0,0.0,0.0,0.0,0.0,0.0,0.0,0.0,0.0,0.0,0.0,0.0,0.0,0.0,0.0,0.0,0.0,0.0,0.0,0.0,0.0,0.0,0.0,0.0,0.0,0.0,0.0,0.0,0.0,0.0,0.0,0.0,0.0,0.0,0.0,0.0,0.0,0.0,0.0,0.0,0.0,0.0,0.0,0.0,0.0,0.0,0.0,0.0,0.0,0.0,0.0,0.0,0.0,0.0,0.0,0.0,0.0,0.0,0.0,0.0,0.0,0.0,0.0,0.0,0.0,0.0,0.0,0.0,0.0,0.0,0.0,0.0,0.0,0.0,0.0,0.0,0.0,0.0,0.0,0.0,0.0,0.0,0.0,0.0,0.0,0.0,0.0,0.0,0.0,0.0,0.0,0.0,0.0,0.0,0.0,0.0,0.0,-1.5339,-1.5008,-1.4266,-1.316,-1.3044,-1.2648,0.0,0.0,0.0,0.0,0.0,0.0,0.0,0.0,0.0,0.0,0.0,0.0,0.0,0.0,0.0,0.0,0.0,0.0,0.0,0.0,0.0,0.0,0.0,0.0,0.0,0.0,0.0,0.0,0.0,0.0,0.0,0.0,0.0,0.0,0.0,0.0,0.0,0.0,0.0,0.0,0.0,0.0,0.0,0.0,0.0,0.0,0.0,0.0,0.0,0.0,0.0,0.0,0.0,0.0,0.0,0.0,0.0,0.0,0.0,0.0,0.0,0.0,0.0,0.0,0.0,0.0,0.0,0.0,0.0,0.0,0.0,0.0,0.0,0.0,0.0,0.0,0.0,0.0,0.0,0.0,0.0,0.0,0.0,0.0,0.0,0.0,0.0,0.0,0.0,0.0,0.0,0.0,0.0,0.0,0.0,0.0,0.0,0.0,0.0,0.0,0.0,0.0,0.0,0.0,0.0,0.0,0.0,0.0,-1.5501,-1.6949,-1.7302,-1.7052,-1.623,-1.5242,-1.4258,0.0,0.0,0.0,0.0,0.0,0.0,0.0,0.0,0.0,0.0,0.0,0.0,0.0,0.0,0.0,0.0,0.0,0.0,0.0,0.0,0.0,0.0,0.0,0.0,0.0,0.0,0.0,0.0,0.0,0.0,0.0,0.0,0.0,0.0,0.0,0.0,0.0,0.0,0.0,0.0,0.0,0.0,0.0,0.0,0.0,0.0,0.0,0.0,0.0,0.0,0.0,0.0,0.0,0.0,0.0,0.0,0.0,0.0,0.0,0.0,0.0,0.0,0.0,0.0,0.0,0.0,0.0,0.0,0.0,0.0,0.0,0.0,0.0,0.0,0.0,0.0,0.0,0.0,0.0,0.0,0.0,0.0,0.0,0.0,0.0,0.0,0.0,0.0,0.0,0.0,0.0,0.0,0.0,0.0,0.0,0.0,0.0,0.0,0.0,0.0,0.0,0.0,0.0,0.0,0.0,0.0,0.0,0.0,-1.6795,-1.8421,-1.9028,-1.9418,-1.9545,-1.7447,-1.5773,0.0,0.0,0.0,0.0,0.0,0.0,0.0,0.0,0.0,0.0,0.0,0.0,0.0,0.0,0.0,0.0,0.0,0.0,0.0,0.0,0.0,0.0,0.0,0.0,0.0,0.0,0.0,0.0,0.0,0.0,0.0,0.0,0.0,0.0,0.0,0.0,0.0,0.0,0.0,0.0,0.0,0.0,0.0,0.0,0.0,0.0,0.0,0.0,0.0,0.0,0.0,0.0,0.0,0.0,0.0,0.0,0.0,0.0,0.0,0.0,0.0,0.0,0.0,0.0,0.0,0.0,0.0,0.0,0.0,0.0,0.0,0.0,0.0,0.0,0.0,0.0,0.0,0.0,0.0,0.0,0.0,0.0,0.0,0.0,0.0,0.0,0.0,0.0,0.0,0.0,0.0,0.0,0.0,0.0,0.0,0.0,0.0,0.0,0.0,0.0,0.0,0.0,0.0,0.0,0.0,0.0,0.0,0.0,-1.7632,-1.9274,-1.9902,-2.0343,-2.0503,-1.8913,-1.7351,0.0,0.0,0.0,0.0,0.0,0.0,0.0,0.0,0.0,0.0,0.0,0.0,0.0,0.0,0.0,0.0,0.0,0.0,0.0,0.0,0.0,0.0,0.0,0.0,0.0,0.0,0.0,0.0,0.0,0.0,0.0,0.0,0.0,0.0,0.0,0.0,0.0,0.0,0.0,0.0,0.0,0.0,0.0,0.0,0.0,0.0,0.0,0.0,-0.8633,0.0,0.0,0.0,0.0,0.0,0.0,0.0,0.0,0.0,0.0,0.0,0.0,0.0,0.0,0.0,0.0,0.0,0.0,0.0,0.0,0.0,0.0,0.0,0.0,0.0,0.0,0.0,0.0,0.0,0.0,0.0,0.0,0.0,0.0,0.0,0.0,0.0,0.0,0.0,0.0,0.0,0.0,0.0,0.0,0.0,0.0,0.0,0.0,0.0,0.0,0.0,0.0,0.0,0.0,0.0,0.0,0.0,0.0,0.0,-1.8261,-2.0029,-2.0572,-2.0941,-2.108,-1.9975,-1.8562,0.0,0.0,0.0,0.0,0.0,0.0,0.0,0.0,0.0,0.0,0.0,0.0,0.0,0.0,0.0,0.0,0.0,0.0,0.0,0.0,0.0,0.0,0.0,0.0,0.0,0.0,0.0,0.0,0.0,0.0,0.0,0.0,0.0,0.0,0.0,0.0,0.0,0.0,0.0,0.0,0.0,0.0,0.0,0.0,0.0,0.0,0.0,0.0,0.0,0.0,0.0,0.0,0.0,0.0,0.0,0.0,0.0,0.0,0.0,0.0,0.0,0.0,0.0,0.0,0.0,0.0,0.0,0.0,0.0,0.0,0.0,0.0,0.0,0.0,0.0,0.0,0.0,0.0,0.0,0.0,0.0,0.0,0.0,0.0,0.0,0.0,0.0,0.0,0.0,0.0,0.0,0.0,0.0,0.0,0.0,0.0,0.0,0.0,0.0,0.0,0.0,0.0,0.0,0.0,0.0,0.0,0.0,-1.7062,-1.8663,-2.0507,-2.1002,-2.1304,-2.1428,-2.0534,-1.9217,-1.7464,0.0,0.0,0.0,0.0,0.0,0.0,0.0,0.0,0.0,0.0,0.0,0.0,0.0,0.0,0.0,0.0,0.0,0.0,0.0,0.0,0.0,0.0,0.0,0.0,0.0,0.0,0.0,0.0,0.0,0.0,0.0,0.0,0.0,0.0,0.0,0.0,0.0,0.0,-1.0509,-1.029,0.0,0.0,0.0,0.0,0.0,0.0,0.0,0.0,-1.0681,0.0,0.0,0.0,0.0,0.0,0.0,0.0,0.0,0.0,0.0,0.0,0.0,0.0,0.0,0.0,0.0,0.0,0.0,0.0,0.0,0.0,0.0,0.0,0.0,0.0,0.0,0.0,0.0,0.0,0.0,0.0,0.0,0.0,0.0,0.0,0.0,0.0,0.0,0.0,0.0,0.0,0.0,0.0,0.0,0.0,0.0,0.0,0.0,0.0,0.0,0.0,0.0,0.0,0.0,0.0,0.0,-1.5459,-1.7093,-1.8796,-2.0537,-2.0984,-2.1217,-2.1218,-2.007,-1.8682,-1.7056,0.0,0.0,0.0,0.0,0.0,0.0,0.0,0.0,0.0,0.0,0.0,0.0,0.0,0.0,0.0,0.0,0.0,0.0,0.0,0.0,0.0,0.0,0.0,0.0,0.0,0.0,0.0,0.0,0.0,0.0,0.0,0.0,0.0,0.0,0.0,0.0,0.0,0.0,0.0,-1.0507,-1.0554,0.0,0.0,0.0,0.0,0.0,0.0,0.0,0.0,-1.2729,0.0,0.0,0.0,0.0,0.0,0.0,0.0,0.0,0.0,0.0,0.0,0.0,0.0,0.0,0.0,0.0,0.0,0.0,0.0,0.0,0.0,0.0,0.0,0.0,0.0,0.0,0.0,0.0,0.0,0.0,0.0,0.0,0.0,0.0,0.0,0.0,0.0,0.0,0.0,0.0,0.0,0.0,0.0,0.0,0.0,0.0,0.0,0.0,0.0,0.0,0.0,0.0,0.0,0.0,0.0,-1.5772,-1.7236,-1.8838,-2.0537,-2.1006,-2.1083,-2.0879,-1.9919,-1.8616,0.0,0.0,0.0,0.0,0.0,0.0,0.0,0.0,0.0,0.0,0.0,0.0,0.0,0.0,0.0,0.0,0.0,0.0,0.0,0.0,0.0,0.0,0.0,0.0,0.0,0.0,0.0,0.0,0.0,0.0,0.0,0.0,0.0,0.0,0.0,0.0,0.0,0.0,0.0,0.0,-1.155,-1.1666,-1.1481,0.0,0.0,0.0,0.0,0.0,0.0,-1.4008,-1.4381,0.0,0.0,0.0,0.0,0.0,0.0,0.0,0.0,0.0,0.0,0.0,0.0,0.0,0.0,0.0,0.0,0.0,0.0,0.0,0.0,0.0,0.0,0.0,0.0,0.0,0.0,0.0,0.0,0.0,0.0,0.0,0.0,0.0,0.0,0.0,0.0,0.0,0.0,0.0,0.0,0.0,0.0,0.0,0.0,0.0,0.0,0.0,0.0,0.0,0.0,0.0,0.0,0.0,0.0,0.0,-1.6008,-1.7393,-1.8905,-2.0486,-2.0899,-2.0919,-2.0584,-1.97,-1.8432,0.0,0.0,0.0,0.0,0.0,0.0,0.0,0.0,0.0,0.0,0.0,0.0,0.0,0.0,0.0,0.0,0.0,0.0,0.0,0.0,0.0,0.0,0.0,0.0,0.0,0.0,0.0,0.0,0.0,0.0,0.0,0.0,0.0,0.0,0.0,0.0,0.0,0.0,0.0,0.0,0.0,-1.2741,-1.2984,-1.3075,0.0,0.0,0.0,0.0,-1.5262,-1.5688,0.0,0.0,0.0,0.0,0.0,0.0,0.0,0.0,0.0,0.0,0.0,0.0,0.0,0.0,0.0,0.0,0.0,0.0,0.0,0.0,0.0,0.0,0.0,0.0,0.0,0.0,0.0,0.0,0.0,0.0,0.0,0.0,0.0,0.0,0.0,0.0,0.0,0.0,0.0,0.0,0.0,0.0,0.0,0.0,0.0,0.0,0.0,0.0,0.0,0.0,0.0,0.0,0.0,0.0,0.0,0.0,-1.5751,-1.7514,-1.9109,-2.0419,-2.0559,-2.0549,-2.0469,-1.9051,-1.7674,0.0,0.0,0.0,0.0,0.0,0.0,0.0,0.0,0.0,0.0,0.0,0.0,0.0,0.0,0.0,0.0,0.0,0.0,0.0,0.0,0.0,0.0,0.0,0.0,0.0,0.0,0.0,0.0,0.0,0.0,0.0,0.0,0.0,0.0,0.0,0.0,0.0,0.0,0.0,0.0,0.0,-1.3432,-1.4017,-1.4382,-1.4834,0.0,0.0,-1.6716,-1.7417,-1.747,0.0,0.0,0.0,0.0,0.0,0.0,0.0,0.0,0.0,0.0,0.0,0.0,0.0,0.0,0.0,0.0,0.0,0.0,0.0,0.0,0.0,0.0,0.0,0.0,0.0,0.0,0.0,0.0,0.0,0.0,0.0,0.0,0.0,0.0,0.0,0.0,0.0,0.0,0.0,0.0,0.0,0.0,0.0,0.0,0.0,0.0,0.0,0.0,0.0,0.0,0.0,0.0,0.0,0.0,0.0,-1.4366,-1.598,-1.7602,-1.9094,-2.0379,-2.0441,-2.0308,-2.0053,-1.9042,-1.7759,0.0,0.0,0.0,0.0,0.0,0.0,0.0,0.0,0.0,0.0,0.0,0.0,0.0,0.0,0.0,0.0,0.0,0.0,0.0,0.0,0.0,0.0,0.0,0.0,0.0,0.0,0.0,0.0,0.0,0.0,0.0,0.0,0.0,0.0,0.0,0.0,0.0,0.0,0.0,0.0,0.0,0.0,-1.5681,-1.6505,0.0,0.0,0.0,-1.892,-1.9267,0.0,0.0,0.0,0.0,0.0,0.0,0.0,0.0,0.0,0.0,0.0,0.0,0.0,0.0,0.0,0.0,0.0,0.0,0.0,0.0,0.0,0.0,0.0,0.0,0.0,0.0,0.0,0.0,0.0,0.0,0.0,0.0,0.0,0.0,0.0,0.0,0.0,0.0,0.0,0.0,0.0,0.0,0.0,0.0,0.0,0.0,0.0,0.0,0.0,0.0,0.0,0.0,0.0,0.0,0.0,0.0,0.0,-1.6149,-1.7811,-1.9203,-2.0292,-2.0449,-2.0271,-1.981,-1.9211,0.0,0.0,0.0,0.0,0.0,0.0,0.0,0.0,0.0,0.0,0.0,0.0,0.0,0.0,0.0,0.0,0.0,0.0,0.0,0.0,0.0,0.0,0.0,0.0,0.0,0.0,0.0,-1.0905,0.0,0.0,0.0,0.0,0.0,0.0,0.0,0.0,0.0,0.0,0.0,0.0,0.0,0.0,-1.6869,-1.7583,-1.8695,-1.9566,0.0,0.0,-2.1202,-2.1347,-2.1131,-2.0921,0.0,0.0,0.0,0.0,0.0,0.0,0.0,0.0,0.0,0.0,0.0,0.0,0.0,0.0,0.0,0.0,0.0,0.0,0.0,0.0,0.0,0.0,0.0,0.0,0.0,0.0,0.0,0.0,0.0,0.0,0.0,0.0,0.0,0.0,0.0,0.0,0.0,0.0,0.0,0.0,0.0,0.0,0.0,0.0,0.0,0.0,0.0,0.0,0.0,0.0,0.0,0.0,0.0,0.0,0.0,-1.6121,-1.8248,-1.9585,-2.0107,-2.0564,-2.0553,-2.0053,-1.9419,-1.8391,0.0,0.0,0.0,0.0,0.0,0.0,0.0,0.0,0.0,0.0,0.0,0.0,0.0,0.0,0.0,0.0,0.0,0.0,0.0,0.0,0.0,0.0,0.0,0.0,0.0,0.0,0.0,0.0,0.0,0.0,0.0,0.0,0.0,0.0,0.0,0.0,0.0,0.0,0.0,0.0,0.0,-1.8204,-1.9613,-2.0679,-2.1572,0.0,0.0,-2.3586,-2.3889,-2.3408,-2.2898,-2.2644,0.0,0.0,0.0,0.0,0.0,0.0,0.0,0.0,0.0,0.0,0.0,0.0,0.0,0.0,0.0,0.0,0.0,0.0,0.0,0.0,0.0,0.0,0.0,0.0,0.0,0.0,0.0,0.0,0.0,0.0,0.0,0.0,0.0,0.0,0.0,0.0,0.0,0.0,0.0,0.0,0.0,0.0,0.0,0.0,0.0,0.0,0.0,0.0,0.0,0.0,0.0,0.0,0.0,-1.5229,-1.6658,-1.8556,-1.989,-2.07,-2.0923,-2.0788,-2.0304,-1.992,-1.8866,0.0,0.0,0.0,0.0,0.0,0.0,0.0,0.0,0.0,0.0,0.0,0.0,0.0,0.0,0.0,0.0,0.0,0.0,0.0,0.0,0.0,0.0,0.0,0.0,0.0,0.0,0.0,0.0,-1.0706,-1.084,-1.1113,0.0,0.0,0.0,0.0,0.0,0.0,0.0,0.0,0.0,0.0,-1.9743,-2.0842,-2.2318,0.0,0.0,-2.4505,-2.4962,-2.5096,-2.4431,-2.373,-2.3349,-2.2512,0.0,0.0,0.0,0.0,0.0,0.0,0.0,0.0,0.0,0.0,0.0,0.0,0.0,0.0,0.0,0.0,0.0,0.0,0.0,0.0,0.0,0.0,0.0,0.0,0.0,0.0,0.0,0.0,0.0,0.0,0.0,0.0,0.0,0.0,0.0,0.0,0.0,0.0,0.0,0.0,0.0,0.0,0.0,0.0,0.0,0.0,0.0,0.0,0.0,0.0,0.0,0.0,-1.5827,-1.7034,-1.8922,-2.0233,-2.0958,-2.1292,-2.116,-2.0496,-2.0358,-1.9341,0.0,0.0,0.0,0.0,0.0,0.0,0.0,0.0,0.0,0.0,0.0,0.0,0.0,0.0,0.0,0.0,0.0,0.0,0.0,0.0,0.0,0.0,0.0,0.0,0.0,0.0,0.0,0.0,-1.1566,-1.1808,-1.2219,0.0,0.0,0.0,0.0,0.0,0.0,0.0,0.0,0.0,0.0,-2.1194,-2.2188,-2.3732,-2.4858,-2.5009,-2.551,-2.5898,-2.5912,-2.5355,-2.4647,-2.3949,0.0,0.0,0.0,0.0,0.0,0.0,0.0,0.0,0.0,0.0,0.0,0.0,0.0,0.0,0.0,0.0,0.0,0.0,0.0,0.0,0.0,0.0,0.0,0.0,0.0,0.0,0.0,0.0,0.0,0.0,0.0,0.0,0.0,0.0,0.0,0.0,0.0,0.0,0.0,0.0,0.0,0.0,0.0,0.0,0.0,0.0,0.0,0.0,0.0,0.0,0.0,0.0,0.0,0.0,-1.7104,-1.9395,-2.0574,-2.0646,-2.1632,-2.1668,-2.0634,-2.0701,-1.9767,-1.7654,0.0,0.0,0.0,0.0,0.0,0.0,0.0,0.0,0.0,0.0,0.0,0.0,0.0,0.0,0.0,0.0,0.0,0.0,0.0,0.0,0.0,0.0,0.0,0.0,0.0,0.0,-1.2604,-1.3075,-1.3431,0.0,0.0,0.0,0.0,0.0,0.0,0.0,0.0,0.0,0.0,-2.1567,-2.2559,-2.3848,-2.481,-2.5504,-2.5745,-2.6062,-2.6336,-2.6465,-2.6355,-2.5828,0.0,0.0,0.0,0.0,0.0,0.0,0.0,0.0,0.0,0.0,0.0,0.0,0.0,0.0,0.0,0.0,0.0,0.0,0.0,0.0,0.0,0.0,0.0,0.0,0.0,0.0,0.0,-1.3695,-1.3665,0.0,0.0,0.0,0.0,0.0,0.0,0.0,0.0,0.0,0.0,0.0,-1.6512,-1.718,0.0,0.0,0.0,0.0,0.0,0.0,0.0,0.0,0.0,0.0,0.0,0.0,-1.693,-1.7484,-1.933,-2.0507,-2.0848,-2.1226,-2.1238,-2.086,-2.0659,-1.9721,-1.8064,0.0,0.0,0.0,0.0,0.0,0.0,0.0,0.0,0.0,0.0,0.0,0.0,0.0,0.0,0.0,0.0,0.0,0.0,0.0,0.0,0.0,0.0,0.0,0.0,0.0,-1.2932,0.0,0.0,0.0,0.0,0.0,0.0,0.0,0.0,0.0,0.0,0.0,-1.9824,-2.1315,-2.226,-2.3299,-2.466,-2.5608,-2.6323,0.0,0.0,0.0,0.0,0.0,0.0,0.0,0.0,0.0,0.0,0.0,0.0,0.0,0.0,-2.1989,-2.0863,-2.075,-2.0905,-2.1223,0.0,0.0,0.0,0.0,0.0,0.0,0.0,0.0,0.0,0.0,0.0,0.0,0.0,0.0,0.0,0.0,-1.391,0.0,0.0,0.0,0.0,0.0,0.0,0.0,0.0,-1.6665,-1.7389,-1.7863,-1.8702,-1.8797,0.0,-1.8611,-1.8003,0.0,0.0,0.0,0.0,0.0,0.0,0.0,0.0,-1.743,-1.7787,-1.9474,-2.0541,-2.0887,-2.1073,-2.1085,-2.0887,-2.0076,-1.9196,-1.8229,-1.6584,-1.553,0.0,0.0,0.0,0.0,0.0,0.0,0.0,0.0,0.0,0.0,0.0,0.0,0.0,0.0,0.0,0.0,0.0,0.0,0.0,0.0,0.0,0.0,0.0,-1.4068,0.0,0.0,0.0,0.0,0.0,0.0,0.0,0.0,0.0,-1.8371,-1.9403,-2.0756,-2.2276,-2.3151,-2.4111,-2.5411,0.0,0.0,0.0,0.0,0.0,0.0,0.0,-2.6428,-2.5325,-2.5053,-2.4629,-2.357,-2.3392,-2.3392,-2.3414,0.0,0.0,-2.1928,-2.1812,-2.2009,-2.2387,-2.2659,-2.2992,-2.3655,-2.3923,-2.4137,0.0,0.0,0.0,0.0,0.0,0.0,0.0,0.0,-1.4221,-1.4241,0.0,-1.4389,0.0,0.0,0.0,0.0,0.0,0.0,0.0,0.0,-1.7867,-1.8662,-1.9443,-1.9991,-2.0099,-1.9796,-1.9463,-1.8993,-1.8397,-1.7302,0.0,0.0,0.0,0.0,0.0,0.0,-1.8038,-1.81,-1.9747,-2.0666,-2.0717,-2.1154,-2.1167,-2.0616,-1.907,-1.8216,-1.8116,-1.6597,-1.5726,-1.5655,-1.4689,0.0,0.0,0.0,0.0,0.0,0.0,0.0,0.0,0.0,0.0,0.0,0.0,0.0,0.0,0.0,0.0,0.0,0.0,0.0,0.0,-1.4977,0.0,0.0,0.0,0.0,0.0,0.0,0.0,0.0,0.0,0.0,-1.9454,-2.0311,-2.161,-2.3444,0.0,0.0,0.0,0.0,-2.6704,-2.6904,-2.6945,-2.6967,-2.7108,-2.6692,-2.6129,-2.5471,0.0,0.0,-2.3714,-2.3595,-2.3595,-2.3595,-2.3696,-2.358,-2.2879,-2.2806,-2.3011,-2.3467,-2.3802,-2.4385,-2.5336,-2.5607,-2.5839,-1.7656,0.0,0.0,0.0,0.0,-1.5886,-1.5956,-1.5956,-1.5926,-1.5956,-1.5947,-1.5515,0.0,0.0,0.0,0.0,0.0,0.0,-1.7662,-1.825,-1.8975,-1.9757,-2.0483,-2.1032,-2.0872,-2.0095,-2.0493,-2.0192,-1.924,-1.8635,-1.7782,-1.6699,0.0,0.0,0.0,0.0,-1.8708,-1.8758,-1.9623,-2.0277,-2.0679,-2.0401,-2.0024,-1.951,-1.8668,-1.8016,-1.7649,-1.676,-1.5919,-1.516,-1.4833,0.0,0.0,0.0,0.0,0.0,0.0,0.0,0.0,0.0,0.0,0.0,0.0,0.0,0.0,0.0,0.0,0.0,0.0,0.0,-1.5288,-1.5608,-1.5957,0.0,0.0,0.0,0.0,0.0,0.0,0.0,0.0,0.0,-2.0992,-2.1651,-2.247,0.0,0.0,-2.4495,-2.527,-2.5535,-2.5698,-2.583,0.0,0.0,0.0,-2.5923,-2.5604,-2.4947,-2.4298,-2.3819,-2.3625,-2.3595,-2.3595,-2.3595,-2.3717,-2.3764,-2.3745,-2.3881,-2.4132,-2.4567,-2.4901,-2.5271,-2.5762,-2.6046,-2.6225,-1.826,-1.7368,-1.7048,-1.6816,-1.6674,-1.677,-1.6779,-1.6697,-1.6697,-1.676,-1.6794,-1.6547,-1.6595,-1.6869,-1.6894,0.0,0.0,0.0,-1.9161,-1.9605,-2.0302,-2.0791,-2.108,-2.1596,-2.1346,-2.0432,-2.0839,-2.0567,-1.9682,-1.9434,-1.8796,-1.7841,0.0,0.0,-1.7658,-1.8532,-1.9008,-1.9033,-1.9535,-1.9974,-2.0339,-1.9786,-1.9321,-1.8995,-1.8279,-1.775,-1.741,-1.6835,-1.6208,-1.5575,-1.5123,-1.4582,0.0,0.0,0.0,0.0,0.0,0.0,0.0,0.0,0.0,0.0,0.0,-1.5191,0.0,0.0,0.0,0.0,-1.5462,-1.5565,-1.591,-1.6163,0.0,0.0,0.0,0.0,0.0,0.0,0.0,-1.9541,-2.0372,-2.1145,-2.178,-2.2504,-2.3165,-2.3672,-2.4031,-2.4467,-2.5075,0.0,-2.5402,-2.5458,-2.5482,-2.5506,-2.5576,-2.5367,-2.5001,-2.4306,-2.3857,-2.361,-2.3595,-2.3595,-2.3595,-2.3601,-2.3543,-2.3552,-2.3743,-2.3843,-2.408,-2.4611,-2.4793,-2.4924,-2.5188,-2.5412,-2.5598,-1.8322,-1.8238,-1.7931,-1.7554,-1.7102,-1.7149,-1.7037,-1.6863,-1.6853,-1.6961,-1.7102,-1.7417,-1.774,-1.8138,-1.9108,0.0,-1.961,-2.0329,-2.0758,-2.1015,-2.1596,-2.1716,-2.1409,-2.1832,-2.1594,-2.0691,-2.0691,-2.0402,-1.9823,-1.9798,-1.956,-1.9058,-1.8593,-1.8317,-1.8304,-1.8795,-1.9058,-1.9083,-1.9534,-1.9773,-1.971,-1.9246,-1.8958,-1.8857,-1.7915,-1.7385,-1.7287,-1.6798,-1.6475,-1.64,-1.55,-1.4934,-1.4859,0.0,0.0,0.0,0.0,0.0,0.0,0.0,0.0,0.0,0.0,0.0,0.0,0.0,0.0,0.0,-1.6318,0.0,-1.6355,-1.6655,0.0,0.0,0.0,-1.8147,-1.8495,-1.8693,-1.9142,-1.9933,0.0,0.0,0.0,0.0,-2.3496,-2.3854,-2.419,-2.4632,-2.5182,-2.5297,-2.545,-2.5337,-2.536,-2.536,-2.5166,-2.4664,-2.4051,-2.3505,-2.3445,-2.337,-2.337,-2.337,-2.3415,-2.337,-2.3154,-2.2985,-2.317,-2.3008,-2.3063,-2.3882,-2.3918,-2.3852,-2.4149,-2.4376,-2.4552,-1.8394,-1.8236,-1.8501,-1.838,-1.8076,-1.84,-1.8373,-1.8159,-1.8149,-1.81,-1.7985,-1.7963,-1.8302,-1.8966,-1.9643,-2.0111,-2.0365,-2.0909,-2.1378,-2.1778,-2.1661,-2.1759,-2.2051,-2.1775,-2.133,-2.0717,-2.0691,-2.0402,-1.9823,-1.9798,-1.9736,-1.961,-1.9484,-1.9221,-1.8845,-1.9346,-1.9623,-1.9584,-1.9736,-1.961,-1.9196,-1.907,-1.8607,-1.779,-1.7549,-1.7174,-1.6735,-1.6575,-1.6321,-1.5906,-1.5643,-1.5336,-1.4909,-1.4645,0.0,0.0,0.0,0.0,0.0,0.0,0.0,0.0,0.0,-1.6333,-1.63,0.0,-1.6479,0.0,-1.6641,-1.6812,-1.6976,-1.7206,0.0,0.0,-1.8068,-1.8397,-1.8827,-1.8969,-1.9348,-2.022,-2.0523,-2.0922,-2.1553,-2.1932,-2.2163,-2.2274,-2.3172,-2.3865,-2.4014,-2.4066,-2.4073,-2.4044,-2.3699,-2.3407,-2.3392,-2.2817,-2.2383,-2.2173,-2.2158,-2.2143,-2.2164,-2.2143,-2.2143,-2.2164,-2.2204,-2.2315,-2.2498,-2.2277,-2.2256,-2.276,-2.3423,-2.3967,-2.4145,-2.432,-2.446,-1.8249,-1.8202,-1.8707,-1.8861,-1.8823,-1.9023,-1.8927,-1.8598,-1.8598,-1.8503,-1.8428,-1.8828,-1.9402,-2.0106,-2.0654,-2.1135,-2.1562,-2.1885,-2.2193,-2.253,-2.208,-2.1895,-2.192,-2.138,-2.0855,-2.0314,-2.0288,-2.0138,-1.9811,-1.9798,-1.9798,-1.9798,-1.9798,-1.9648,-1.9371,-1.966,-1.9798,-1.9798,-1.9572,-1.9296,-1.9008,-1.8519,-1.799,-1.7423,-1.7124,-1.6848,-1.6513,-1.6513,-1.635,-1.6061,-1.5831,-1.5555,-1.5273,-1.5022,-1.5009,0.0,0.0,0.0,0.0,0.0,0.0,0.0,0.0,0.0,0.0,0.0,-1.665,0.0,-1.7018,0.0,-1.7537,-1.7727,-1.7988,-1.8324,-1.8519,-1.8784,-1.9149,-1.9265,-1.9509,-2.0031,-2.037,-2.0731,-2.1103,-2.1476,-2.1695,-2.1695,-2.2308,-2.2757,-2.2757,-2.2757,-2.2757,-2.2727,-2.2458,-2.2254,-2.2254,-2.1934,-2.1695,-2.1695,-2.1695,-2.1695,-2.1695,-2.1695,-2.1695,-2.1744,-2.1674,-2.1675,-2.1883,-2.1696,-2.1613,-2.1956,-2.2553,-2.3051,-2.3207,-2.3375,-2.3511,-1.783,-1.8016,-1.8541,-1.8947,-1.9225,-1.9293,-1.9077,-1.8685,-1.8685,-1.8656,-1.864,-1.9649,-2.0506,-2.1201,-2.1675,-2.2185,-2.2629,-2.2787,-2.2939,-2.304,-2.2468,-2.1958,-2.1468,-2.0867,-2.0327,-1.9811,-1.9798,-1.9798,-1.9798,-1.9798,-1.9798,-1.9798,-1.9798,-1.9798,-1.9798,-1.9798,-1.9798,-1.9798,-1.9271,-1.897,-1.8895,-1.7928,-1.7373,-1.7285,-1.6785,-1.6513,-1.6513,-1.6513,-1.6513,-1.6488,-1.607,-1.5806,-1.5793,-1.5361,-1.5311,0.0,-1.5806,0.0,0.0,0.0,0.0,0.0,0.0,0.0,0.0,-1.674,-1.6931,-1.7269,-1.7468,-1.774,-1.8068,-1.8279,-1.8481,-1.8822,-1.9026,-1.9209,-1.9409,-1.952,-1.9614,-1.969,-2.0213,-2.0554,-2.0583,-2.1096,-2.1445,-2.1365,-2.138,-2.144,-2.1455,-2.1635,-2.1799,-2.168,-2.162,-2.155,-2.141,-2.1395,-2.1365,-2.1395,-2.1335,-2.144,-2.137,-2.1385,-2.1454,-2.1457,-2.1208,-2.1093,-2.1328,-2.1222,-2.1183,-2.1436,-2.179,-2.2013,-2.2099,-2.2298,-2.2296,-1.7124,-1.7275,-1.7857,-1.8365,-1.8856,-1.9356,-1.9393,-1.917,-1.917,-1.9108,-1.9052,-1.9781,-2.0431,-2.0999,-2.16,-2.203,-2.2321,-2.2586,-2.2787,-2.2889,-2.1948,-2.1481,-2.1418,-2.0439,-1.9911,-1.9811,-1.9798,-1.9798,-1.9798,-1.9798,-1.9798,-1.9798,-1.9798,-1.9798,-1.9798,0.0,0.0,0.0,-1.9271,-1.8782,-1.8355,-1.7727,-1.7184,-1.6697,-1.6563,0.0,-1.6513,-1.6513,-1.6513,-1.65,-1.64,0.0,0.0,0.0,0.0,0.0,0.0,0.0,0.0,0.0,0.0,0.0,-1.6599,-1.6654,-1.6697,-1.7049,-1.7432,-1.7821,-1.7975,-1.8214,-1.8611,-1.8674,-1.8855,-1.9157,-1.9232,-1.9339,-1.9538,-1.9574,-1.9629,-1.969,-1.9809,-1.9884,-1.9929,-2.0007,-2.0112,-2.0172,-2.0097,-2.0082,-2.0127,-2.1026,-2.1635,-2.1665,-2.1216,-2.0707,-2.0172,-2.0127,-2.0217,-2.0082,-2.0082,-2.0127,-2.0172,-2.0179,-2.0185,-2.0252,-2.0335,-2.0505,-2.0694,-2.089,-2.1198,-2.1512,-2.1753,-2.1928,-2.1984,-2.2163,-2.2313,-1.6809,0.0,-1.7645,-1.8233,0.0,-1.935,-1.9401,-1.9151,-1.9251,-1.9153,-1.9019,-1.9682,-2.028,-2.0764,-2.138,-2.18,-2.2061,-2.2389,-2.2574,-2.2616,-2.2005,-2.1749,-2.1784,-2.0725,-2.0251,-2.0251,-1.9924,-1.9798,-1.9798,-1.9798,-1.9798,-1.9798,-1.9798,-1.9798,-1.9798,-1.9798,-1.9798,-1.9798,-1.9008,-1.8469,-1.8191,-1.7388,-1.6823,-1.6513,0.0,0.0,0.0,0.0,0.0,0.0,0.0,0.0,0.0,0.0,0.0,-1.6513,-1.6513,-1.6513,-1.6513,-1.6513,-1.6513,-1.65,-1.6727,-1.691,-1.7015,-1.744,-1.7855,-1.822,-1.8411,-1.863,-1.9007,-1.903,-1.9139,-1.9428,-1.9446,-1.9505,-1.9614,-1.965,-1.9654,-1.969,-1.9723,-1.9723,-1.9723,-1.9723,-1.9723,-1.9723,-1.9723,-1.9723,-1.9753,-2.0262,-2.0692,-2.0692,-2.0453,-2.0094,-1.9798,-1.9723,-1.9723,-1.9723,-1.9723,-1.9723,-1.9723,-1.9744,-1.9815,-1.9902,-2.0163,-2.0407,-2.0611,-2.0942,-2.1294,-2.1588,-2.1796,-2.1972,-2.2075,-2.2194,-2.2313,-1.6629,-1.6932,-1.756,-1.8077,-1.8616,-1.924,-1.9324,-1.8995,0.0,0.0,0.0,-1.9495,-2.0053,-2.0539,-2.104,-2.1431,-2.1737,-2.2068,-2.2254,-2.2292,-2.207,-2.2001,-2.2068,-2.1197,-2.0803,-2.0817,-2.0352,-2.0049,-1.9962,-1.9949,-1.9911,-1.9811,-1.9798,-1.9798,-1.9798,-1.9798,-1.9798,-1.9761,-1.8844,-1.8304,-1.8179,-1.719,-1.6622,-1.6513,-1.6513,-1.6513,-1.6513,-1.6513,-1.6513,-1.6513,-1.6513,-1.6513,-1.6513,-1.6513,-1.6513,-1.6513,-1.6513,-1.6513,-1.6513,-1.6513,-1.6522,-1.6565,-1.6842,-1.7149,-1.7425,-1.7814,-1.8181,-1.8519,-1.8726,-1.8988,-1.9306,-1.9339,-1.9413,-1.9593,-1.9629,-1.9632,-1.969,-1.9723,-1.9708,-1.9723,-1.9723,-1.9723,-1.9723,-1.9723,-1.9723,-1.9723,-1.9723,-1.9723,-1.9723,-1.9768,-1.9842,-1.9842,-1.9828,-1.9738,-1.9723,-1.9723,-1.9723,-1.9723,-1.9723,-1.9723,-1.9708,-1.978,-1.9884,-1.9955,-2.0218,-2.0492,-2.0761,-2.1071,-2.1387,-2.1679,-2.1869,-2.2044,-2.218,-2.2254,-2.2313,-1.6261,-1.6448,-1.7064,-1.7631,-1.8152,-1.8794,-1.9045,-1.8956,-1.8611,-1.8592,-1.8808,-1.922,-1.9671,-2.0204,-2.056,-2.0828,-2.1063,-2.14,-2.1702,0.0,-2.1578,-2.1635,-2.2064,-2.143,-2.1228,-2.1368,-2.1307,-2.1031,-2.0616,-2.0578,-2.0327,-1.9861,-1.9798,-1.9811,-1.9798,-1.9798,-1.9798,-1.9786,-1.9196,-1.8657,-1.8204,-1.7599,-1.7024,-1.6538,-1.6513,-1.6513,-1.6513,-1.6513,-1.6513,-1.6513,-1.6513,-1.6513,-1.6513,-1.6513,-1.6513,-1.6513,-1.6513,-1.6513,-1.6513,-1.6513,-1.6586,-1.6812,-1.7031,-1.7316,-1.7638,-1.7983,-1.8333,-1.8726,-1.8936,-1.9195,-1.9501,-1.9556,-1.9578,-1.9654,-1.969,-1.9675,-1.969,-1.9723,-1.9723,-1.9723,-1.9723,-1.9723,-1.9723,-1.9723,-1.9723,-1.9723,-1.9723,-1.9723,-1.9723,-1.9723,-1.9723,-1.9723,-1.9723,-1.9723,-1.9723,-1.9723,-1.9723,-1.9723,-1.9723,-1.9723,-1.9723,-1.983,-1.9937,-1.9988,-2.0252,-2.0527,-2.0761,-2.1071,-2.1387,-2.1693,-2.1882,-2.2058,-2.2223,-2.2282,-2.2313,-1.599,-1.6183,-1.6642,-1.7147,-1.774,-1.8601,-1.9003,-1.8966,-1.8633,-1.8487,-1.8583,-1.8998,-1.9386,-1.9671,-2.0042,-2.0313,-2.0463,-2.0816,-2.1115,-2.1345,-2.1466,-2.1728,-2.2097,-2.1731,-2.1646,-2.1818,-2.1603,-2.1395,-2.1157,-2.1144,-2.1018,-2.0727,-2.0715,-2.0591,-2.0314,-2.0302,-2.0125,-1.9798,-1.9259,-1.8882,-1.8632,-1.7815,-1.7272,-1.6986,-1.6676,-1.6513,-1.6513,-1.6513,-1.6513,-1.6513,-1.6513,-1.6513,-1.6513,-1.6513,-1.6513,-1.6513,-1.6513,-1.6513,-1.6513,-1.6513,-1.6629,-1.6888,-1.7086,-1.7365,-1.7781,-1.8149,-1.8523,-1.8931,-1.9139,-1.9362,-1.9614,-1.9669,-1.9669,-1.969,-1.9723,-1.9723,-1.9723,-1.9723,-1.9723,-1.9723,-1.9723,-1.9723,-1.9723,-1.9723,-1.9723,-1.9723,-1.9723,-1.9723,-1.9723,-1.9723,-1.9723,-1.9723,-1.9723,-1.9723,-1.9723,-1.9723,-1.9723,-1.9723,-1.9723,-1.9723,-1.9708,-1.9815,-1.9902,-2.0005,-2.0252,-2.051,-2.076,-2.1071,-2.1387,-2.1663,-2.1899,-2.2075,-2.2209,-2.2268,-2.2313,-1.5878,-1.605,-1.6422,-1.6917,-1.7529,-1.8572,-1.8948,-1.8839,-1.8711,-1.8496,-1.8309,-1.8741,-1.9031,-1.922,-1.9495,-1.9726,-1.9911,-2.0215,-2.0518,-2.0732,-2.1242,-2.1663,-2.2044,-2.191,-2.1937,-2.2108,-2.1927,-2.175,-2.1666,-2.1653,-2.1606,-2.1506,-2.1481,-2.1295,-2.0893,-2.0867,-2.0591,-1.9999,-1.9584,-1.9284,-1.8983,-1.8191,-1.7639,-1.7385,-1.6961,-1.666,-1.6513,-1.6513,-1.6513,-1.6513,-1.6513,-1.6513,-1.6513,-1.6513,-1.6513,-1.6513,-1.6513,-1.6513,-1.6513,-1.6513,-1.6607,-1.6876,-1.7086,-1.7385,-1.7848,-1.8262,-1.8659,-1.9045,-1.9284,-1.9468,-1.9654,-1.9708,-1.9723,-1.9723,-1.9723,-1.9723,-1.9723,-1.9723,-1.9723,-1.9723,-1.9723,-1.9723,-1.9723,-1.9723,-1.9723,-1.9723,-1.9723,-1.9723,-1.9723,-1.9723,-1.9723,-1.9723,-1.9723,-1.9723,-1.9723,-1.9723,-1.9723,-1.9723,-1.9723,-1.9723,-1.9708,-1.9744,-1.9833,-2.0005,-2.02,-2.0458,-2.0728,-2.1023,-2.1324,-2.1619,-2.1811,-2.1986,-2.2152,-2.2271,-2.2313,-1.6072,-1.6063,-1.6455,-1.7079,-1.7716,-1.8621,-1.8768,-1.8471,-1.88,-1.8592,-1.8105,-1.8269,-1.8573,-1.8808,-1.8908,-1.9042,-1.9231,-1.9528,-1.9857,-2.0172,-2.0539,-2.1083,-2.1714,-2.183,-2.2065,-2.2354,-2.2572,-2.2437,-2.2085,-2.2176,-2.1995,-2.1543,-2.1481,-2.1481,-2.1418,-2.1418,-2.1169,-2.0629,-2.0566,-2.0024,-1.907,-1.8907,-1.8381,-1.7423,-1.7338,-1.7071,-1.6563,-1.6513,-1.6513,-1.6513,-1.6513,-1.6513,-1.6513,-1.6513,-1.6513,-1.6513,-1.6513,-1.6513,-1.6513,-1.6513,-1.6607,-1.6876,-1.7086,-1.7399,-1.7862,-1.8248,-1.8659,-1.9021,-1.9269,-1.9472,-1.9657,-1.9723,-1.9723,-1.9723,-1.9723,-1.9723,-1.9723,-1.9723,-1.9723,-1.9723,-1.9723,-1.9723,-1.9723,-1.9723,-1.9723,-1.9723,-1.9723,-1.9723,-1.9723,-1.9723,-1.9723,-1.9723,-1.9723,-1.9723,-1.9723,-1.9723,-1.9723,-1.9723,-1.9723,-1.9723,-1.9708,-1.9744,-1.9815,-1.9937,-2.0148,-2.039,-2.0644,-2.0941,-2.1214,-2.1496,-2.1708,-2.1901,-2.2125,-2.2257,-2.2282,-1.5659,-1.562,-1.5871,-1.6592,-1.7571,-1.8474,-1.8649,-1.8378,-1.8775,-1.864,-1.8032,-1.8076,-1.8245,-1.8506,-1.8573,-1.8674,-1.8774,-1.9142,-1.9396,-1.9671,-2.0107,-2.056,-2.1051,-2.142,-2.1765,-2.213,-2.2439,-2.2573,-2.2611,-2.2722,-2.2644,-2.2456,-2.2472,-2.2297,-2.2008,-2.1983,-2.1707,-2.1194,-2.0855,-2.0465,-1.9987,-1.9346,-1.8782,-1.8355,-1.7727,-1.7287,-1.7024,-1.6688,-1.6513,-1.6513,-1.6513,-1.6513,-1.6513,-1.6513,-1.6513,-1.6513,-1.6513,-1.6513,-1.6513,-1.6513,-1.6629,-1.6888,-1.7002,-1.7274,-1.7727,-1.8103,-1.8484,-1.8874,-1.9209,-1.9487,-1.9672,-1.9723,-1.9723,-1.9723,-1.9723,-1.9723,-1.9723,-1.9723,-1.9723,-1.9723,-1.9723,-1.9723,-1.9723,-1.9723,-1.9723,-1.9723,-1.9723,-1.9723,-1.9723,-1.9723,-1.9723,-1.9723,-1.9723,-1.9723,-1.9723,-1.9723,-1.9723,-1.9723,-1.9723,-1.9723,-1.9708,-1.9708,-1.9777,-1.9866,-2.0028,-2.0237,-2.0477,-2.0778,-2.1071,-2.134,-2.1678,-2.193,-2.2137,-2.224,-2.2282,-1.532,-1.5222,-1.5382,-1.6084,-1.7115,-1.7983,-1.8252,-1.8137,-1.8581,-1.8488,-1.7935,-1.7974,-1.8076,-1.8236,-1.8313,-1.8347,-1.8405,-1.8741,-1.8998,-1.9177,-1.9606,-2.0042,-2.0453,-2.0892,-2.1305,-2.1639,-2.2037,-2.2389,-2.2757,-2.2909,-2.3017,-2.306,-2.3047,-2.2847,-2.2543,-2.2506,-2.2259,-2.1744,-2.1333,-2.1006,-2.0641,-1.9886,-1.9334,-1.897,-1.8267,-1.7725,-1.741,-1.6974,-1.6651,-1.6513,-1.6513,-1.6513,-1.6513,-1.6513,-1.6513,-1.6513,-1.6513,-1.6513,-1.6513,-1.6513,-1.6607,-1.6876,-1.696,-1.7212,-1.7638,-1.8003,-1.8366,-1.8779,-1.9153,-1.945,-1.9632,-1.969,-1.9708,-1.9723,-1.9723,-1.9723,-1.9723,-1.9723,-1.9723,-1.9723,-1.9723,-1.9723,-1.9723,-1.9723,-1.9723,-1.9723,-1.9723,-1.9723,-1.9723,-1.9723,-1.9723,-1.9723,-1.9723,-1.9723,-1.9723,-1.9723,-1.9723,-1.9723,-1.9723,-1.9723,-1.9723,-1.9723,-1.9726,-1.9833,-1.9957,-2.0115,-2.0373,-2.0645,-2.0926,-2.1214,-2.1541,-2.1855,-2.2005,-2.2137,-2.2192,-1.5199,-1.4971,-1.5275,-1.5722,-1.6245,-1.7106,-1.7494,-1.7576,-1.8091,-1.8075,-1.7758,-1.7896,-1.8008,-1.8018,-1.8042,-1.8042,-1.8086,-1.8279,-1.8539,-1.8808,-1.9065,-1.944,-1.9933,-2.027,-2.0625,-2.1019,-2.1463,-2.1932,-2.2377,-2.2616,-2.2769,-2.2891,-2.2921,-2.2957,-2.299,-2.2977,-2.2782,-2.2264,-2.2142,-2.1707,-2.0815,-2.0641,-2.0037,-1.9121,-1.8933,-1.8417,-1.7599,-1.7375,-1.7087,-1.6538,-1.6513,-1.6513,-1.6513,-1.6513,-1.6513,-1.6513,-1.6513,-1.6513,-1.6513,-1.6513,-1.6607,-1.6854,-1.696,-1.7191,-1.7638,-1.7983,-1.8347,-1.8779,-1.9082,-1.9376,-1.9541,-1.9669,-1.9723,-1.9723,-1.9723,-1.9723,-1.9723,-1.9723,-1.9723,-1.9723,-1.9723,-1.9723,-1.9723,-1.9723,-1.9723,-1.9723,-1.9723,-1.9723,-1.9723,-1.9723,-1.9723,-1.9723,-1.9723,-1.9723,-1.9723,-1.9723,-1.9723,-1.9723,-1.9723,-1.9723,-1.9723,-1.9723,-1.9744,-1.978,-1.9833,-1.9975,-2.0235,-2.0509,-2.0794,-2.1103,-2.1433,-2.1708,-2.1844,-2.1943,-2.2015,-1.4763,-1.4605,-1.5041,-1.5548,-1.617,-1.6902,-1.7334,-1.7599,-1.7818,-1.7861,-1.7718,-1.7687,-1.7725,-1.7808,-1.7784,-1.7896,-1.8018,-1.8212,-1.8371,-1.8506,-1.8774,-1.9075,-1.9407,-1.9736,-2.014,-2.055,-2.086,-2.1336,-2.1944,-2.2235,-2.2432,-2.2574,-2.2574,-2.2665,-2.2818,-2.2848,-2.2749,-2.2538,-2.2187,-2.1617,-2.094,-2.065,-2.0117,-1.9419,-1.9133,-1.882,-1.8418,-1.7765,-1.7297,-1.7096,-1.6722,-1.6513,-1.6513,-1.6513,-1.6513,-1.6513,-1.6513,-1.6513,-1.6513,-1.6513,-1.6607,-1.6876,-1.6918,-1.7128,-1.7509,-1.7848,-1.8183,-1.8581,-1.8908,-1.9186,-1.9395,-1.9581,-1.9708,-1.9708,-1.9708,-1.9723,-1.9723,-1.9723,-1.9723,-1.9723,-1.9723,-1.9723,-1.9723,-1.9723,-1.9723,-1.9723,-1.9723,-1.9723,-1.9723,-1.9723,-1.9723,-1.9723,-1.9723,-1.9723,-1.9723,-1.9723,-1.9723,-1.9723,-1.9723,-1.9723,-1.9723,-1.9723,-1.9726,-1.9744,-1.9762,-1.9869,-2.0148,-2.0424,-2.0695,-2.0942,-2.1293,-2.1495,-2.1632,-2.1736,-2.1825,-1.4306,-1.4355,-1.4706,-1.5249,-1.5839,-1.6484,-1.6902,-1.7162,-1.7374,-1.7423,-1.7285,-1.7262,-1.7382,-1.751,-1.7545,-1.7681,-1.7896,-1.81,-1.8236,-1.8347,-1.8539,-1.8741,-1.8942,-1.9264,-1.9638,-2.0064,-2.0442,-2.086,-2.1336,-2.1706,-2.1999,-2.2161,-2.2192,-2.2297,-2.2482,-2.2525,-2.2537,-2.2451,-2.2176,-2.1663,-2.1007,-2.0745,-2.0298,-1.9679,-1.9358,-1.9158,-1.8995,-1.8141,-1.7551,-1.736,-1.6835,-1.6513,-1.6513,-1.6513,-1.6513,-1.6513,-1.6513,-1.6513,-1.6513,-1.6513,-1.6607,-1.6876,-1.691,-1.7086,-1.7455,-1.7706,-1.8023,-1.8386,-1.8697,-1.8965,-1.9209,-1.9435,-1.9581,-1.9636,-1.969,-1.9723,-1.9723,-1.9723,-1.9723,-1.9723,-1.9723,-1.9723,-1.9723,-1.9723,-1.9723,-1.9723,-1.9723,-1.9723,-1.9723,-1.9723,-1.9723,-1.9723,-1.9723,-1.9723,-1.9723,-1.9723,-1.9723,-1.9723,-1.9723,-1.9723,-1.9723,-1.9723,-1.9708,-1.9708,-1.9762,-1.9851,-2.0045,-2.0339,-2.0594,-2.0811,-2.1023,-2.1214,-2.1371,-2.1526,-2.157,-1.3884,-1.4124,-1.4321,-1.4734,-1.5257,-1.5831,-1.606,-1.6148,-1.675,-1.6774,-1.6502,-1.6709,-1.6968,-1.7132,-1.7132,-1.7373,-1.7681,-1.7872,-1.8066,-1.8269,-1.8313,-1.8414,-1.8549,-1.8908,-1.9164,-1.9441,-2.0172,-2.0571,-2.0635,-2.0999,-2.1348,-2.162,-2.1651,-2.1819,-2.2154,-2.2154,-2.2154,-2.2173,-2.2206,-2.1813,-2.0973,-2.1006,-2.0603,-1.9752,-1.9683,-1.9509,-1.907,-1.8494,-1.7978,-1.7451,-1.6886,-1.6525,-1.6513,-1.6513,-1.6513,-1.6513,-1.6513,-1.6513,-1.6513,-1.6513,-1.662,-1.6867,-1.691,-1.7065,-1.7427,-1.7625,-1.7889,-1.824,-1.8495,-1.8741,-1.904,-1.9228,-1.9376,-1.9571,-1.965,-1.969,-1.9705,-1.9723,-1.9723,-1.9723,-1.9723,-1.9723,-1.9723,-1.9723,-1.9723,-1.9723,-1.9723,-1.9723,-1.9723,-1.9723,-1.9723,-1.9723,-1.9723,-1.9723,-1.9723,-1.9723,-1.9723,-1.9723,-1.9723,-1.9723,-1.9723,-1.9723,-1.9723,-1.9708,-1.9744,-1.9815,-1.9957,-2.022,-2.0441,-2.0645,-2.0828,-2.0974,-2.1103,-2.123,-2.1262,-1.3737,-1.3864,-1.4237,-1.4657,-1.5124,-1.5492,-1.5716,-1.5897,-1.6209,-1.6126,-1.6001,-1.6068,-1.6298,-1.6508,-1.6577,-1.6855,-1.7329,-1.7451,-1.7691,-1.8042,-1.81,-1.8168,-1.8337,-1.8506,-1.8764,-1.9198,-1.9671,-1.9998,-2.0118,-2.0334,-2.0592,-2.088,-2.0955,-2.1158,-2.1486,-2.1517,-2.1549,-2.1663,-2.1694,-2.1464,-2.1003,-2.0812,-2.0479,-2.005,-1.9789,-1.962,-1.9522,-1.902,-1.8494,-1.7953,-1.7436,-1.6936,-1.6588,-1.6513,-1.6513,-1.6513,-1.6513,-1.6513,-1.6513,-1.65,-1.6607,-1.6846,-1.691,-1.7078,-1.7391,-1.7597,-1.7808,-1.8082,-1.8266,-1.8514,-1.8774,-1.8893,-1.9097,-1.9428,-1.9574,-1.9614,-1.965,-1.9672,-1.9723,-1.9723,-1.9723,-1.9723,-1.9723,-1.9723,-1.9723,-1.9723,-1.9723,-1.9723,-1.9723,-1.9723,-1.9723,-1.9723,-1.9723,-1.9723,-1.9723,-1.9723,-1.9723,-1.9723,-1.9723,-1.9723,-1.9723,-1.9723,-1.9723,-1.9708,-1.9744,-1.9797,-1.9922,-2.008,-2.0272,-2.0458,-2.0595,-2.0712,-2.0842,-2.0908,-2.0941,-1.3483,-1.3737,-1.4026,-1.4405,-1.4824,-1.5068,-1.5227,-1.5385,-1.5498,-1.5457,-1.532,-1.5339,-1.5559,-1.5842,-1.5877,-1.6263,-1.6821,-1.6934,-1.7235,-1.7691,-1.7862,-1.7998,-1.8178,-1.8269,-1.8472,-1.8841,-1.9185,-1.9374,-1.9506,-1.966,-1.9922,-2.0194,-2.0226,-2.041,-2.0764,-2.0796,-2.086,-2.1031,-2.1071,-2.095,-2.0609,-2.0481,-2.0254,-1.9878,-1.9659,-1.9668,-1.9747,-1.9271,-1.8744,-1.8155,-1.7488,-1.6886,-1.6538,-1.6513,-1.6513,-1.6513,-1.6513,-1.6513,-1.6513,-1.6513,-1.6607,-1.6833,-1.691,-1.7057,-1.7342,-1.7515,-1.7666,-1.7875,-1.7996,-1.8195,-1.8445,-1.8562,-1.8741,-1.9097,-1.9354,-1.9501,-1.9593,-1.9669,-1.9708,-1.9723,-1.9723,-1.9723,-1.9723,-1.9723,-1.9723,-1.9723,-1.9723,-1.9723,-1.9723,-1.9723,-1.9723,-1.9723,-1.9723,-1.9723,-1.9723,-1.9723,-1.9723,-1.9723,-1.9723,-1.9723,-1.9723,-1.9723,-1.9723,-1.9708,-1.9726,-1.9744,-1.9869,-1.994,-2.008,-2.0237,-2.0357,-2.0458,-2.0526,-2.0577,-2.0611,-1.3064,-1.361,-1.3695,-1.4026,-1.4433,-1.4573,-1.4567,-1.4484,-1.4756,-1.4698,-1.4434,-1.4513,-1.4776,-1.5098,-1.5133,-1.5551,-1.6158,-1.6403,-1.6742,-1.7166,-1.7476,-1.7759,-1.8008,-1.8178,-1.8337,-1.8539,-1.8707,-1.8808,-1.8875,-1.9031,-1.9252,-1.9539,-1.9605,-1.9726,-2.0009,-2.0042,-2.015,-2.0367,-2.0485,-2.0281,-1.9819,-2.0036,-1.9993,-1.9354,-1.9483,-1.963,-1.9684,-1.9196,-1.8657,-1.8103,-1.7102,-1.6563,-1.6513,-1.6513,-1.6513,-1.6513,-1.6513,-1.6513,-1.6513,-1.6513,-1.6607,-1.6867,-1.6931,-1.7036,-1.7308,-1.7391,-1.7461,-1.7625,-1.7666,-1.7788,-1.8069,-1.8149,-1.8327,-1.8673,-1.9059,-1.9339,-1.9556,-1.9669,-1.969,-1.9723,-1.9723,-1.9723,-1.9723,-1.9723,-1.9723,-1.9723,-1.9723,-1.9723,-1.9723,-1.9723,-1.9723,-1.9723,-1.9723,-1.9723,-1.9723,-1.9723,-1.9723,-1.9723,-1.9723,-1.9723,-1.9723,-1.9723,-1.9723,-1.9708,-1.9726,-1.9759,-1.9795,-1.9851,-1.9922,-2.0045,-2.0133,-2.0168,-2.022,-2.0304,-2.0339,-1.2935,-1.3277,-1.3561,-1.3984,-1.4364,-1.4255,-1.4107,-1.3967,-1.4002,-1.3887,-1.3616,-1.371,-1.4029,-1.4382,-1.4418,-1.4776,-1.5382,-1.57,-1.6158,-1.6716,-1.7003,-1.7451,-1.7906,-1.8042,-1.8178,-1.8337,-1.8405,-1.8482,-1.8583,-1.864,-1.8774,-1.9008,-1.9042,-1.9142,-1.933,-1.9396,-1.9539,-1.978,-2.0009,-2.0069,-1.9976,-1.991,-1.9851,-1.9691,-1.9538,-1.9525,-1.9556,-1.8858,-1.8154,-1.7614,-1.6936,-1.6513,-1.6513,-1.6513,-1.6513,-1.6513,-1.6513,-1.6513,-1.6513,-1.6513,-1.6629,-1.6867,-1.6888,-1.6989,-1.7212,-1.7253,-1.7295,-1.7337,-1.7337,-1.744,-1.7632,-1.77,-1.7922,-1.8358,-1.8817,-1.9213,-1.9487,-1.9629,-1.9647,-1.969,-1.9723,-1.9723,-1.9708,-1.9723,-1.9723,-1.9723,-1.9723,-1.9723,-1.9723,-1.9723,-1.9723,-1.9723,-1.9723,-1.9723,-1.9723,-1.9723,-1.9723,-1.9723,-1.9723,-1.9723,-1.9723,-1.9723,-1.9723,-1.9708,-1.9708,-1.9741,-1.9744,-1.978,-1.9836,-1.9889,-1.9957,-2.0043,-2.0043,-2.0096,-2.0096,-1.2386,-1.2839,-1.3264,-1.3688,-1.407,-1.3919,-1.3783,-1.3639,-1.3488,-1.3299,-1.314,-1.32,-1.3411,-1.3702,-1.3811,-1.4173,-1.474,-1.5098,-1.5594,-1.6158,-1.6751,-1.7339,-1.7794,-1.793,-1.8076,-1.8178,-1.8178,-1.8202,-1.8279,-1.8279,-1.8414,-1.8573,-1.8607,-1.8674,-1.8841,-1.8841,-1.9042,-1.9341,-1.9561,-1.9727,-1.9834,-1.9775,-1.9709,-1.9642,-1.9478,-1.9325,-1.8996,-1.847,-1.794,-1.7423,-1.6861,-1.6513,-1.6513,-1.6513,-1.6513,-1.6513,-1.6513,-1.6513,-1.6513,-1.6513,-1.6599,-1.6761,-1.6825,-1.691,-1.7023,-1.7052,-1.7073,-1.7073,-1.7065,-1.7136,-1.7282,-1.7393,-1.7686,-1.8141,-1.8509,-1.8912,-1.9321,-1.9431,-1.9523,-1.9599,-1.9669,-1.9687,-1.969,-1.9708,-1.9723,-1.9723,-1.9723,-1.9723,-1.9723,-1.9723,-1.9723,-1.9723,-1.9723,-1.9723,-1.9723,-1.9723,-1.9723,-1.9723,-1.9723,-1.9723,-1.9723,-1.9723,-1.9723,-1.9723,-1.9723,-1.9723,-1.9726,-1.9744,-1.9762,-1.9815,-1.9866,-1.9884,-1.9884,-1.9919,-1.9919,-1.1685,-1.2412,-1.2881,-1.3307,-1.3643,-1.3563,-1.3507,-1.3396,-1.3081,-1.2876,-1.2824,-1.2826,-1.2973,-1.3163,-1.3302,-1.363,-1.4093,-1.4589,-1.5169,-1.5842,-1.6647,-1.7373,-1.7681,-1.793,-1.8008,-1.8042,-1.8008,-1.8042,-1.8076,-1.8042,-1.811,-1.8245,-1.8269,-1.8347,-1.8448,-1.8438,-1.864,-1.9019,-1.9208,-1.9393,-1.9522,-1.9576,-1.9558,-1.9459,-1.9398,-1.8942,-1.8448,-1.8095,-1.7833,-1.7255,-1.6763,-1.6538,-1.6513,-1.6513,-1.6513,-1.6513,-1.6513,-1.6513,-1.6513,-1.65,-1.6565,-1.6697,-1.6718,-1.6761,-1.6876,-1.6918,-1.691,-1.6876,-1.6867,-1.6897,-1.7002,-1.724,-1.7537,-1.7841,-1.8069,-1.8392,-1.8855,-1.9153,-1.9335,-1.9553,-1.9556,-1.9596,-1.9654,-1.9675,-1.969,-1.9723,-1.9723,-1.9723,-1.9723,-1.9723,-1.9723,-1.9723,-1.9723,-1.9723,-1.9723,-1.9723,-1.9723,-1.9723,-1.9723,-1.9723,-1.9723,-1.9723,-1.9723,-1.9723,-1.9723,-1.9723,-1.9723,-1.9708,-1.9708,-1.9726,-1.9795,-1.9759,-1.9741,-1.9777,-1.9795,-1.1465,-1.2143,-1.2571,-1.3137,-1.3568,-1.3243,-1.3147,-1.3192,-1.2701,-1.2489,-1.2422,-1.2415,-1.2562,-1.2753,-1.282,-1.3076,-1.363,-1.4158,-1.484,-1.6026,-1.6786,-1.7279,-1.7598,-1.7837,-1.8008,-1.8008,-1.8008,-1.8008,-1.8008,-1.8008,-1.8008,-1.8076,-1.811,-1.8076,-1.811,-1.8178,-1.8279,-1.865,-1.8975,-1.9175,-1.9294,-1.9387,-1.9355,-1.9223,-1.9222,-1.8764,-1.808,-1.7882,-1.7413,-1.6717,-1.6501,-1.6491,-1.65,-1.65,-1.6513,-1.6513,-1.6513,-1.6513,-1.6513,-1.6513,-1.6556,-1.6675,-1.6697,-1.6774,-1.6876,-1.6803,-1.6761,-1.6718,-1.6663,-1.6663,-1.6803,-1.6981,-1.722,-1.7481,-1.7632,-1.7855,-1.8327,-1.8688,-1.9007,-1.9265,-1.9376,-1.9431,-1.9578,-1.9596,-1.9632,-1.9687,-1.9705,-1.9723,-1.9705,-1.9705,-1.9723,-1.9705,-1.9723,-1.9723,-1.9723,-1.9723,-1.9723,-1.9723,-1.9723,-1.9723,-1.9723,-1.9723,-1.9723,-1.9723,-1.9723,-1.9723,-1.9723,-1.9723,-1.9708,-1.9723,-1.9723,-1.9723,-1.9723,-1.9723,-1.9723,-1.0848,-1.1419,-1.2057,-1.2632,-1.3019,-1.2951,-1.2897,-1.2823,-1.2481,-1.2305,-1.2305,-1.2305,-1.2372,-1.2452,-1.2562,-1.2863,-1.3339,-1.4021,-1.4911,-1.5912,-1.6638,-1.7107,-1.7495,-1.7735,-1.7896,-1.7974,-1.8008,-1.8008,-1.8008,-1.8008,-1.8008,-1.8008,-1.8008,-1.8008,-1.8008,-1.8008,-1.8178,-1.8482,-1.8818,-1.9105,-1.9415,-1.9243,-1.9049,-1.8941,-1.892,-1.8558,-1.7703,-1.7678,-1.7115,-1.6438,-1.6262,-1.6392,-1.6457,-1.6479,-1.6513,-1.6513,-1.6513,-1.6513,-1.6513,-1.6513,-1.6543,-1.6611,-1.6599,-1.6629,-1.6671,-1.6641,-1.662,-1.6599,-1.6565,-1.6577,-1.6697,-1.6782,-1.6994,-1.717,-1.7303,-1.7509,-1.7855,-1.8279,-1.8688,-1.8974,-1.9157,-1.9269,-1.9395,-1.9431,-1.9487,-1.9523,-1.9541,-1.956,-1.9632,-1.965,-1.9687,-1.9705,-1.9723,-1.9723,-1.9723,-1.9723,-1.9723,-1.9723,-1.9723,-1.9723,-1.9723,-1.9723,-1.9723,-1.9723,-1.9723,-1.9723,-1.9723,-1.9723,-1.9723,-1.9723,-1.9723,-1.9723,-1.9723,-1.9723,-1.9723,-1.0072,-1.0631,-1.1455,-1.1964,-1.2282,-1.2555,-1.2648,-1.2529,-1.2364,-1.2305,-1.2305,-1.2305,-1.2305,-1.2342,-1.2445,-1.2673,-1.3185,-1.3985,-1.4911,-1.5657,-1.6324,-1.6899,-1.7348,-1.7623,-1.7828,-1.7974,-1.8008,-1.8008,-1.8008,-1.8008,-1.8008,-1.8008,-1.8008,-1.8008,-1.8008,-1.8008,-1.8178,-1.8482,-1.8707,-1.9015,-1.9404,-1.9102,-1.8789,-1.8533,-1.8556,-1.8185,-1.7479,-1.7279,-1.6977,-1.6019,-1.6044,-1.621,-1.634,-1.6448,-1.65,-1.65,-1.6513,-1.6513,-1.6513,-1.6513,-1.6513,-1.6513,-1.65,-1.65,-1.6534,-1.6522,-1.6534,-1.6534,-1.6534,-1.6543,-1.6641,-1.6663,-1.6769,-1.6918,-1.7065,-1.722,-1.7455,-1.7868,-1.826,-1.8649,-1.8836,-1.9003,-1.9153,-1.9246,-1.9302,-1.9358,-1.9358,-1.9428,-1.9501,-1.9574,-1.9596,-1.965,-1.9669,-1.9705,-1.9705,-1.9723,-1.9723,-1.9723,-1.9723,-1.9723,-1.9723,-1.9723,-1.9723,-1.9723,-1.9723,-1.9723,-1.9723,-1.9723,-1.9723,-1.9723,-1.9723,-1.9723,-1.9723,-1.9723,-1.9723,-0.9547,-1.0366,-1.0699,-1.1302,-1.1952,-1.201,-1.2202,-1.2465,-1.2313,-1.2305,-1.2305,-1.2305,-1.2305,-1.2285,-1.2335,-1.2629,-1.315,-1.3926,-1.4625,-1.5374,-1.6017,-1.6691,-1.7201,-1.7545,-1.7784,-1.7964,-1.8008,-1.8008,-1.8008,-1.8008,-1.8008,-1.8008,-1.8008,-1.8008,-1.8008,-1.8008,-1.8154,-1.8482,-1.8664,-1.8907,-1.8913,-1.8765,-1.843,-1.8066,-1.8127,-1.7675,-1.7025,-1.6825,-1.6502,-1.5699,-1.577,-1.5969,-1.6188,-1.634,-1.6436,-1.65,-1.6513,-1.6513,-1.6513,-1.6513,-1.6513,-1.6513,-1.6513,-1.6513,-1.6513,-1.6513,-1.6513,-1.6513,-1.6513,-1.6534,-1.6543,-1.6556,-1.662,-1.6718,-1.6803,-1.691,-1.7094,-1.7385,-1.7788,-1.8189,-1.8445,-1.8692,-1.8831,-1.8965,-1.9021,-1.9097,-1.9153,-1.9224,-1.9335,-1.9428,-1.9501,-1.9556,-1.9611,-1.965,-1.969,-1.9705,-1.9723,-1.9723,-1.9723,-1.9723,-1.9723,-1.9723,-1.9723,-1.9723,-1.9723,-1.9723,-1.9723,-1.9723,-1.9723,-1.9723,-1.9723,-1.9723,-1.9723,-1.9723,-1.9723,-0.8962,-0.9372,-1.0008,-1.0548,-1.0997,-1.1357,-1.1667,-1.1916,-1.2068,-1.2194,-1.2268,-1.2298,-1.2211,-1.2118,-1.2078,-1.2446,-1.305,-1.3795,-1.4474,-1.5232,-1.5885,-1.6482,-1.7028,-1.7417,-1.7647,-1.7828,-1.794,-1.8008,-1.8008,-1.8008,-1.8008,-1.8008,-1.8008,-1.8008,-1.8008,-1.8008,-1.8178,-1.8482,-1.8586,-1.8649,-1.8617,-1.8396,-1.7912,-1.7622,-1.7545,-1.7243,-1.6737,-1.6477,-1.6205,-1.5707,-1.5599,-1.5816,-1.6022,-1.6231,-1.6349,-1.647,-1.65,-1.6513,-1.6513,-1.6513,-1.6513,-1.6513,-1.6513,-1.6513,-1.6513,-1.6513,-1.6513,-1.6513,-1.6513,-1.6513,-1.6513,-1.6513,-1.6543,-1.6599,-1.6654,-1.674,-1.6867,-1.7057,-1.7357,-1.7727,-1.8069,-1.8327,-1.8464,-1.86,-1.8711,-1.8812,-1.8908,-1.9003,-1.9111,-1.9209,-1.9302,-1.952,-1.9593,-1.965,-1.969,-1.9705,-1.9723,-1.9723,-1.9723,-1.9723,-1.9723,-1.9723,-1.9723,-1.9723,-1.9723,-1.9723,-1.9723,-1.9723,-1.9723,-1.9723,-1.9723,-1.9723,-1.9723,-1.9723,-1.9723,-0.8229,-0.8353,-0.9257,-0.973,-0.9985,-1.0634,-1.1082,-1.1322,-1.1744,-1.1994,-1.2145,-1.2155,-1.2037,-1.1879,-1.1854,-1.2143,-1.2705,-1.3478,-1.4162,-1.4869,-1.5569,-1.6167,-1.67,-1.7151,-1.7426,-1.7579,-1.7828,-1.794,-1.8008,-1.8008,-1.8008,-1.8008,-1.8008,-1.8008,-1.8008,-1.8008,-1.8212,-1.8395,-1.8385,-1.8408,-1.8228,-1.7768,-1.7277,-1.6924,-1.6955,-1.6823,-1.6358,-1.6148,-1.5911,-1.564,-1.5545,-1.5614,-1.5913,-1.6122,-1.6275,-1.6392,-1.6479,-1.65,-1.6513,-1.6513,-1.6513,-1.6513,-1.6513,-1.6513,-1.6513,-1.6513,-1.6513,-1.6513,-1.6513,-1.6513,-1.6513,-1.6513,-1.6522,-1.6522,-1.6599,-1.6675,-1.6705,-1.6812,-1.696,-1.7316,-1.7727,-1.7949,-1.8089,-1.8228,-1.8361,-1.842,-1.8503,-1.8644,-1.876,-1.8969,-1.9139,-1.9431,-1.9578,-1.965,-1.969,-1.9723,-1.9723,-1.9723,-1.9723,-1.9723,-1.9723,-1.9723,-1.9723,-1.9723,-1.9723,-1.9723,-1.9723,-1.9723,-1.9723,-1.9723,-1.9723,-1.9723,-1.9723,-1.9723,-1.9723,-0.7269,-0.7885,-0.8197,-0.8705,-0.9385,-0.9865,-1.0359,-1.0913,-1.1422,-1.1707,-1.1673,-1.1832,-1.1757,-1.1536,-1.1442,-1.1724,-1.2199,-1.276,-1.3404,-1.4099,-1.4936,-1.5606,-1.6184,-1.6735,-1.7038,-1.726,-1.7569,-1.7818,-1.793,-1.7974,-1.8008,-1.8008,-1.8008,-1.8008,-1.8008,-1.8008,-1.8187,-1.8378,-1.8124,-1.7733,-1.7286,-1.6836,-1.6574,-1.647,-1.6407,-1.6304,-1.5991,-1.5753,-1.5549,-1.5447,-1.5349,-1.5481,-1.5804,-1.6078,-1.6166,-1.6275,-1.6383,-1.6513,-1.6491,-1.647,-1.6457,-1.6457,-1.65,-1.65,-1.6513,-1.6513,-1.6513,-1.6513,-1.6513,-1.6513,-1.6513,-1.6513,-1.6513,-1.65,-1.6534,-1.6556,-1.6577,-1.6663,-1.6791,-1.6876,-1.7253,-1.7481,-1.7679,-1.7842,-1.7983,-1.8043,-1.8123,-1.8268,-1.847,-1.8707,-1.9026,-1.9339,-1.9574,-1.9632,-1.9705,-1.9723,-1.9723,-1.9723,-1.9723,-1.9723,-1.9723,-1.9723,-1.9723,-1.9723,-1.9723,-1.9723,-1.9723,-1.9723,-1.9723,-1.9723,-1.9723,-1.9723,-1.9723,-1.9723,-1.9723,-0.5922,-0.6766,-0.7422,-0.8046,-0.8681,-0.9156,-0.9723,-1.0288,-1.0778,-1.0995,-1.1144,-1.1379,-1.1388,-1.1189,-1.1182,-1.135,-1.1686,-1.2217,-1.2765,-1.3416,-1.4218,-1.4934,-1.5436,-1.6122,-1.6656,-1.6862,-1.7226,-1.7569,-1.775,-1.793,-1.8008,-1.8008,-1.8008,-1.8008,-1.7998,-1.8008,-1.7976,-1.7849,-1.746,-1.7052,-1.6727,-1.637,-1.6087,-1.6077,-1.6077,-1.5907,-1.5663,-1.541,-1.5271,-1.5227,-1.5209,-1.5357,-1.5681,-1.5947,-1.6122,-1.6222,-1.6197,-1.6241,-1.6318,-1.6331,-1.6318,-1.6349,-1.6392,-1.6457,-1.65,-1.65,-1.65,-1.6513,-1.6513,-1.6513,-1.6513,-1.6513,-1.6513,-1.6513,-1.6513,-1.6513,-1.6513,-1.6556,-1.662,-1.6684,-1.6769,-1.7023,-1.7253,-1.7378,-1.7522,-1.7604,-1.7747,-1.7915,-1.8234,-1.8625,-1.895,-1.9284,-1.9483,-1.9629,-1.9687,-1.9723,-1.9723,-1.9723,-1.9723,-1.9723,-1.9723,-1.9723,-1.9723,-1.9723,-1.9723,-1.9723,-1.9723,-1.9723,-1.9723,-1.9723,-1.9723,-1.9723,-1.9723,-1.9723,-1.9723,-0.4577,-0.5482,-0.6563,-0.7371,-0.7906,-0.8458,-0.9023,-0.9619,-1.0043,-1.0302,-1.0507,-1.0803,-1.0909,-1.0863,-1.0889,-1.1019,-1.1235,-1.1798,-1.2238,-1.2841,-1.3471,-1.406,-1.4543,-1.5309,-1.5877,-1.6217,-1.6636,-1.707,-1.7448,-1.775,-1.794,-1.8008,-1.8008,-1.8008,-1.7978,-1.7832,-1.7678,-1.7199,-1.6868,-1.6588,-1.6326,-1.6075,-1.5925,-1.5885,-1.5845,-1.5749,-1.5423,-1.5214,-1.5103,-1.5127,-1.5116,-1.5278,-1.5614,-1.5836,-1.5969,-1.6013,-1.5957,-1.5869,-1.5969,-1.6025,-1.6091,-1.6144,-1.6231,-1.6306,-1.6414,-1.6436,-1.6479,-1.6457,-1.65,-1.65,-1.6513,-1.6513,-1.6513,-1.6513,-1.6513,-1.6513,-1.6513,-1.6534,-1.6556,-1.6599,-1.6629,-1.6671,-1.6863,-1.6947,-1.7052,-1.7157,-1.7323,-1.7537,-1.7962,-1.845,-1.8798,-1.9134,-1.9358,-1.9538,-1.9647,-1.9687,-1.9705,-1.9723,-1.9723,-1.9723,-1.9723,-1.9723,-1.9723,-1.9723,-1.9723,-1.9723,-1.9723,-1.9723,-1.9723,-1.9723,-1.9723,-1.9723,-1.9723,-1.9723,-1.9723,-0.3485,-0.4036,-0.5404,-0.6451,-0.7276,-0.7709,-0.8222,-0.8798,-0.9384,-0.9685,-0.9834,-1.0159,-1.0386,-1.043,-1.0578,-1.0692,-1.0869,-1.1221,-1.1652,-1.2142,-1.2665,-1.3124,-1.3605,-1.4113,-1.4689,-1.5197,-1.5749,-1.6353,-1.6924,-1.7248,-1.7653,-1.7974,-1.7925,-1.7988,-1.7812,-1.749,-1.7098,-1.6703,-1.6487,-1.6247,-1.6027,-1.5886,-1.5885,-1.5817,-1.5806,-1.5739,-1.5403,-1.5152,-1.5044,-1.5039,-1.5059,-1.5187,-1.548,-1.5681,-1.577,-1.5726,-1.557,-1.5468,-1.548,-1.5637,-1.5792,-1.5846,-1.5935,-1.6066,-1.6188,-1.6328,-1.6371,-1.6371,-1.6392,-1.6436,-1.6479,-1.6513,-1.6479,-1.6479,-1.6479,-1.6513,-1.6513,-1.6513,-1.6522,-1.6522,-1.6543,-1.6586,-1.6586,-1.6714,-1.6799,-1.6884,-1.7136,-1.7372,-1.7814,-1.8254,-1.8586,-1.8927,-1.9176,-1.9395,-1.9589,-1.9647,-1.9705,-1.9723,-1.9723,-1.9723,-1.9723,-1.9723,-1.9723,-1.9723,-1.9723,-1.9723,-1.9723,-1.9723,-1.9723,-1.9723,-1.9723,-1.9723,-1.9723,-1.9723,-1.9723,-0.2642,-0.322,-0.4134,-0.5237,-0.6527,-0.7021,-0.7449,-0.7843,-0.8369,-0.8884,-0.929,-0.9637,-0.9881,-1.0053,-1.0308,-1.0428,-1.0536,-1.0839,-1.1106,-1.1436,-1.1873,-1.223,-1.2666,-1.3168,-1.3764,-1.4238,-1.483,-1.542,-1.6044,-1.6462,-1.6727,-1.7052,-1.7614,-1.7773,-1.7549,-1.7034,-1.656,-1.6346,-1.6158,-1.5928,-1.5955,-1.5961,-1.6009,-1.598,-1.5731,-1.5584,-1.5282,-1.4929,-1.4828,-1.4827,-1.4924,-1.5142,-1.5323,-1.5458,-1.548,-1.5413,-1.5187,-1.5028,-1.5006,-1.5198,-1.5424,-1.5603,-1.5669,-1.5758,-1.5903,-1.6066,-1.612,-1.6175,-1.6275,-1.6297,-1.6297,-1.6383,-1.6436,-1.6436,-1.6457,-1.6479,-1.6513,-1.65,-1.6513,-1.65,-1.65,-1.6522,-1.6534,-1.6522,-1.6586,-1.665,-1.6926,-1.724,-1.7672,-1.8055,-1.8411,-1.8774,-1.9059,-1.9339,-1.9538,-1.9614,-1.9705,-1.9723,-1.9723,-1.9723,-1.9723,-1.9723,-1.9723,-1.9723,-1.9723,-1.9723,-1.9723,-1.9723,-1.9723,-1.9723,-1.9723,-1.9723,-1.9723,-1.9723,-1.9723,-0.1976,-0.2509,-0.314,-0.4256,-0.5624,-0.6273,-0.6702,-0.7009,-0.747,-0.8072,-0.8727,-0.9139,-0.9466,-0.9696,-0.9989,-1.018,-1.0301,-1.0511,-1.0663,-1.0935,-1.1244,-1.1503,-1.1815,-1.221,-1.277,-1.3295,-1.3803,-1.4406,-1.5177,-1.5472,-1.5956,-1.6541,-1.7102,-1.7268,-1.7109,-1.6556,-1.6167,-1.6059,-1.5988,-1.5846,-1.599,-1.621,-1.6314,-1.628,-1.6078,-1.5753,-1.5441,-1.5096,-1.4785,-1.4791,-1.4869,-1.504,-1.5153,-1.5233,-1.521,-1.5028,-1.4823,-1.4569,-1.4569,-1.4743,-1.5006,-1.5176,-1.5244,-1.5379,-1.5558,-1.5736,-1.5834,-1.5869,-1.5991,-1.6091,-1.6057,-1.6154,-1.6241,-1.6241,-1.6414,-1.6457,-1.6457,-1.6457,-1.6479,-1.65,-1.6513,-1.6513,-1.6513,-1.6513,-1.6577,-1.6641,-1.6854,-1.7149,-1.7502,-1.7889,-1.8248,-1.86,-1.8979,-1.9228,-1.9487,-1.9578,-1.9669,-1.9723,-1.9723,-1.9723,-1.9723,-1.9723,-1.9723,-1.9723,-1.9723,-1.9723,-1.9723,-1.9723,-1.9723,-1.9723,-1.9723,-1.9723,-1.9723,-1.9723,-1.9723,-0.1462,-0.1898,-0.2661,-0.3638,-0.4704,-0.537,-0.5928,-0.6431,-0.6843,-0.7358,-0.8052,-0.8662,-0.9075,-0.9306,-0.9574,-0.983,-1.0015,-1.0206,-1.0403,-1.062,-1.083,-1.0989,-1.1154,-1.146,-1.1907,-1.2434,-1.2963,-1.3598,-1.4391,-1.4927,-1.5469,-1.5901,-1.6325,-1.6663,-1.6658,-1.6453,-1.6108,-1.581,-1.5961,-1.6066,-1.6228,-1.6552,-1.6722,-1.6639,-1.6429,-1.609,-1.5662,-1.5266,-1.4958,-1.4832,-1.4949,-1.5085,-1.5119,-1.5108,-1.4994,-1.4777,-1.4443,-1.4186,-1.4067,-1.4291,-1.4466,-1.4708,-1.4766,-1.488,-1.5096,-1.53,-1.5457,-1.5446,-1.5637,-1.5748,-1.5824,-1.5913,-1.5979,-1.6066,-1.6219,-1.6349,-1.6349,-1.6392,-1.6405,-1.6426,-1.6491,-1.6513,-1.6513,-1.6534,-1.6577,-1.6663,-1.6825,-1.7078,-1.7391,-1.772,-1.8069,-1.8445,-1.8793,-1.9078,-1.9321,-1.952,-1.9629,-1.9687,-1.9723,-1.9723,-1.9723,-1.9723,-1.9723,-1.9723,-1.9723,-1.9723,-1.9723,-1.9723,-1.9723,-1.9723,-1.9723,-1.9723,-1.9723,-1.9723,-1.9723,-0.0902,-0.1385,-0.1917,-0.2597,-0.3492,-0.4694,-0.5419,-0.5843,-0.6444,-0.6975,-0.7368,-0.8019,-0.8436,-0.8662,-0.9049,-0.9408,-0.9684,-0.9983,-1.0212,-1.0403,-1.0586,-1.0688,-1.0807,-1.0979,-1.1248,-1.1692,-1.2202,-1.2782,-1.3466,-1.4138,-1.4673,-1.5095,-1.5662,-1.5965,-1.6124,-1.6068,-1.584,-1.5876,-1.6134,-1.6381,-1.6581,-1.6899,-1.7048,-1.689,-1.6606,-1.6258,-1.5858,-1.5433,-1.5118,-1.4994,-1.5131,-1.5108,-1.5074,-1.5028,-1.4834,-1.4604,-1.4291,-1.3928,-1.3692,-1.3671,-1.38,-1.4093,-1.4326,-1.4419,-1.4628,-1.4823,-1.4926,-1.5017,-1.5198,-1.5323,-1.5356,-1.5558,-1.5647,-1.5736,-1.5869,-1.6066,-1.6132,-1.6231,-1.6275,-1.6297,-1.634,-1.6436,-1.6479,-1.6513,-1.6556,-1.662,-1.6748,-1.696,-1.7253,-1.7556,-1.7902,-1.8268,-1.8606,-1.8893,-1.9172,-1.9358,-1.9556,-1.9632,-1.9687,-1.9723,-1.9723,-1.9723,-1.9723,-1.9723,-1.9723,-1.9723,-1.9723,-1.9723,-1.9723,-1.9723,-1.9723,-1.9723,-1.9723,-1.9723,-1.9723,-0.0562,-0.1037,-0.1486,-0.2086,-0.2831,-0.4065,-0.4867,-0.5468,-0.6181,-0.6613,-0.6848,-0.7372,-0.7792,-0.8079,-0.8468,-0.892,-0.9268,-0.9594,-0.9926,-1.0149,-1.0396,-1.0523,-1.0624,-1.0674,-1.0915,-1.1216,-1.1591,-1.2143,-1.2747,-1.3241,-1.3985,-1.4701,-1.5108,-1.5507,-1.5733,-1.5792,-1.5876,-1.6048,-1.6353,-1.6779,-1.7006,-1.7192,-1.7259,-1.7055,-1.6747,-1.6308,-1.5997,-1.5637,-1.5289,-1.5266,-1.5221,-1.5165,-1.5074,-1.4926,-1.4696,-1.4441,-1.3975,-1.3621,-1.3358,-1.3262,-1.344,-1.3641,-1.3834,-1.3988,-1.414,-1.4326,-1.443,-1.4546,-1.4731,-1.4823,-1.4903,-1.5096,-1.5221,-1.5311,-1.5536,-1.5724,-1.5846,-1.5913,-1.6078,-1.6122,-1.6188,-1.6284,-1.6436,-1.6479,-1.6534,-1.6586,-1.6671,-1.6884,-1.7115,-1.7399,-1.772,-1.8075,-1.8411,-1.8702,-1.8969,-1.9213,-1.9395,-1.9574,-1.9632,-1.9687,-1.9723,-1.9723,-1.9723,-1.9723,-1.9723,-1.9723,-1.9723,-1.9723,-1.9723,-1.9723,-1.9723,-1.9723,-1.9723,-1.9723,-1.9723,-0.0472,-0.084,-0.1378,-0.1951,-0.272,-0.3531,-0.4464,-0.5395,-0.5951,-0.6247,-0.642,-0.6745,-0.7171,-0.7596,-0.7857,-0.8253,-0.8709,-0.9067,-0.9382,-0.9693,-0.9931,-1.0215,-1.0425,-1.0526,-1.0634,-1.085,-1.1247,-1.1771,-1.2189,-1.3042,-1.3851,-1.4567,-1.5049,-1.5312,-1.5517,-1.5712,-1.5904,-1.6153,-1.657,-1.6912,-1.7115,-1.7268,-1.7254,-1.7085,-1.6761,-1.648,-1.624,-1.5976,-1.5741,-1.5592,-1.5458,-1.5278,-1.5097,-1.4903,-1.4581,-1.4152,-1.361,-1.331,-1.3176,-1.3138,-1.3099,-1.3244,-1.3334,-1.3454,-1.3644,-1.3858,-1.3975,-1.408,-1.4221,-1.4303,-1.4396,-1.4535,-1.4685,-1.4903,-1.5164,-1.5322,-1.5446,-1.5603,-1.578,-1.5869,-1.5957,-1.6088,-1.6328,-1.6414,-1.6457,-1.6543,-1.6629,-1.6748,-1.6981,-1.7233,-1.7543,-1.7895,-1.8201,-1.8489,-1.876,-1.9007,-1.9265,-1.9465,-1.9574,-1.9647,-1.9669,-1.9723,-1.9723,-1.9723,-1.9723,-1.9723,-1.9723,-1.9723,-1.9723,-1.9723,-1.9723,-1.9723,-1.9723,-1.9723,-1.9723,-0.0236,-0.0472,-0.0841,-0.1378,-0.2049,-0.3288,-0.4323,-0.5156,-0.5521,-0.5686,-0.5851,-0.6247,-0.6617,-0.697,-0.7171,-0.7555,-0.7948,-0.834,-0.863,-0.8962,-0.9333,-0.9621,-0.9881,-1.0076,-1.0305,-1.0669,-1.1062,-1.1478,-1.2228,-1.3025,-1.3881,-1.4656,-1.4904,-1.5148,-1.5361,-1.5613,-1.5805,-1.6099,-1.6522,-1.6834,-1.6971,-1.704,-1.7019,-1.6785,-1.6646,-1.6438,-1.6292,-1.6181,-1.5947,-1.577,-1.5703,-1.5547,-1.5233,-1.4994,-1.4651,-1.408,-1.3563,-1.317,-1.3166,-1.3041,-1.2988,-1.2988,-1.3041,-1.3142,-1.331,-1.3478,-1.3573,-1.3668,-1.3763,-1.3871,-1.3941,-1.4059,-1.4186,-1.4373,-1.464,-1.488,-1.5017,-1.5221,-1.5401,-1.5558,-1.5647,-1.5913,-1.6154,-1.6328,-1.6371,-1.6457,-1.6565,-1.6663,-1.6825,-1.7044,-1.7337,-1.7659,-1.7922,-1.8195,-1.8542,-1.8831,-1.9097,-1.9321,-1.9446,-1.956,-1.9669,-1.9705,-1.9723,-1.9723,-1.9723,-1.9723,-1.9723,-1.9723,-1.9723,-1.9723,-1.9723,-1.9723,-1.9723,-1.9723,-1.9723,-0.0065,-0.0326,-0.0651,-0.1203,-0.1983,-0.2986,-0.3888,-0.4581,-0.5071,-0.5365,-0.5531,-0.5784,-0.6044,-0.6288,-0.647,-0.6764,-0.718,-0.7573,-0.7935,-0.8349,-0.8586,-0.9026,-0.9347,-0.9511,-0.9762,-1.02,-1.0636,-1.102,-1.1882,-1.2915,-1.3795,-1.4116,-1.456,-1.4745,-1.4847,-1.4974,-1.5237,-1.5631,-1.607,-1.6471,-1.6642,-1.6643,-1.6482,-1.6421,-1.6358,-1.6237,-1.6271,-1.6244,-1.6122,-1.5991,-1.5947,-1.5703,-1.5345,-1.5006,-1.4547,-1.3986,-1.3515,-1.3242,-1.318,-1.3007,-1.2929,-1.2915,-1.2915,-1.2968,-1.3089,-1.3234,-1.3272,-1.3344,-1.3396,-1.3467,-1.3539,-1.361,-1.3681,-1.3763,-1.4093,-1.4407,-1.4616,-1.48,-1.5006,-1.5176,-1.5424,-1.5691,-1.5913,-1.611,-1.6306,-1.6414,-1.65,-1.6565,-1.6684,-1.6833,-1.7107,-1.7406,-1.7632,-1.7855,-1.8214,-1.8562,-1.8817,-1.9064,-1.9246,-1.9395,-1.9563,-1.9687,-1.9669,-1.9687,-1.9723,-1.9723,-1.9723,-1.9723,-1.9723,-1.9723,-1.9723,-1.9723,-1.9723,-1.9723,-1.9723,0.0031,-0.0278,-0.0648,-0.1333,-0.222,-0.2626,-0.318,-0.3835,-0.4607,-0.5114,-0.5294,-0.5375,-0.549,-0.5732,-0.5873,-0.6072,-0.6439,-0.6784,-0.7185,-0.7784,-0.7953,-0.8317,-0.8708,-0.8949,-0.9183,-0.9505,-1.0002,-1.0592,-1.1241,-1.2176,-1.3024,-1.3334,-1.379,-1.4063,-1.4213,-1.4402,-1.4649,-1.4932,-1.5407,-1.5844,-1.6177,-1.6156,-1.5962,-1.6114,-1.6048,-1.5959,-1.6231,-1.6297,-1.6275,-1.6231,-1.61,-1.5848,-1.5368,-1.4903,-1.4407,-1.3962,-1.3515,-1.329,-1.318,-1.3007,-1.2929,-1.2915,-1.2915,-1.2929,-1.3002,-1.3051,-1.3089,-1.3113,-1.3176,-1.3214,-1.3262,-1.3334,-1.3406,-1.3501,-1.3739,-1.3928,-1.4069,-1.4326,-1.4616,-1.4834,-1.5085,-1.5356,-1.558,-1.5768,-1.6044,-1.6241,-1.6392,-1.647,-1.6577,-1.6684,-1.6897,-1.7157,-1.7365,-1.7591,-1.7861,-1.8201,-1.8495,-1.876,-1.8988,-1.9246,-1.9468,-1.956,-1.9632,-1.9669,-1.9723,-1.9723,-1.9723,-1.9723,-1.9723,-1.9723,-1.9723,-1.9723,-1.9723,-1.9723,-1.9723,0.0154,0.0,-0.0556,-0.1142,-0.1724,-0.2219,-0.2799,-0.3449,-0.3895,-0.4405,-0.4818,-0.4965,-0.5125,-0.5303,-0.5355,-0.5545,-0.581,-0.6046,-0.6364,-0.6755,-0.7083,-0.7576,-0.8011,-0.8302,-0.8591,-0.903,-0.9577,-1.0232,-1.1003,-1.1757,-1.2379,-1.2823,-1.3194,-1.3441,-1.3714,-1.3927,-1.4113,-1.4284,-1.4454,-1.4831,-1.5135,-1.5438,-1.5479,-1.5522,-1.5468,-1.5814,-1.61,-1.6297,-1.6318,-1.6328,-1.621,-1.5814,-1.5244,-1.48,-1.4384,-1.401,-1.3573,-1.3338,-1.3156,-1.3031,-1.2929,-1.2915,-1.2915,-1.2915,-1.2915,-1.2929,-1.2954,-1.2954,-1.2968,-1.2992,-1.3017,-1.3113,-1.3176,-1.3272,-1.3382,-1.3478,-1.3573,-1.3881,-1.4233,-1.45,-1.4754,-1.4994,-1.5221,-1.5457,-1.5736,-1.5979,-1.6166,-1.6297,-1.6426,-1.6556,-1.6727,-1.6947,-1.7136,-1.7372,-1.7605,-1.7902,-1.822,-1.8548,-1.8812,-1.9078,-1.9354,-1.9501,-1.9614,-1.9669,-1.9723,-1.9723,-1.9723,-1.9723,-1.9723,-1.9723,-1.9723,-1.9723,-1.9723,-1.9723,-1.9723,0.0474,0.0355,-0.0178,-0.071,-0.1182,-0.1657,-0.2189,-0.2718,-0.3216,-0.3685,-0.4174,-0.4509,-0.4782,-0.4903,-0.4944,-0.5053,-0.5256,-0.541,-0.5737,-0.6037,-0.6337,-0.6826,-0.7252,-0.7666,-0.8033,-0.8468,-0.9219,-0.9946,-1.0741,-1.1269,-1.1756,-1.2146,-1.2493,-1.2823,-1.3116,-1.3294,-1.353,-1.3606,-1.3561,-1.3755,-1.4098,-1.447,-1.4845,-1.4914,-1.5221,-1.5558,-1.5846,-1.6066,-1.6188,-1.6188,-1.6057,-1.5647,-1.5131,-1.4697,-1.4314,-1.3928,-1.3563,-1.3266,-1.3142,-1.3041,-1.2915,-1.2915,-1.2915,-1.2915,-1.2915,-1.2929,-1.2929,-1.2929,-1.2929,-1.2954,-1.2954,-1.3002,-1.3017,-1.3089,-1.321,-1.3306,-1.3454,-1.3681,-1.3918,-1.4093,-1.435,-1.4616,-1.4834,-1.5074,-1.5367,-1.5724,-1.5913,-1.6188,-1.6318,-1.6448,-1.6599,-1.6769,-1.6947,-1.7136,-1.7365,-1.7672,-1.8009,-1.8307,-1.8581,-1.8927,-1.9209,-1.9446,-1.9611,-1.9669,-1.9705,-1.9723,-1.9723,-1.9723,-1.9723,-1.9723,-1.9723,-1.9723,-1.9723,-1.9723,-1.9723,0.0871,0.0673,0.0253,-0.0196,-0.0645,-0.1039,-0.149,-0.1965,-0.2547,-0.297,-0.3386,-0.4012,-0.4311,-0.4476,-0.455,-0.4632,-0.4754,-0.5005,-0.5278,-0.5544,-0.5809,-0.6251,-0.6688,-0.7095,-0.7573,-0.8148,-0.8852,-0.9535,-1.0226,-1.0629,-1.0962,-1.1303,-1.1678,-1.2058,-1.2152,-1.2391,-1.2742,-1.2899,-1.2954,-1.3061,-1.3364,-1.3739,-1.4161,-1.4534,-1.4834,-1.5198,-1.5468,-1.5714,-1.5869,-1.5903,-1.5814,-1.5379,-1.4994,-1.4593,-1.421,-1.381,-1.3491,-1.3272,-1.3123,-1.2978,-1.2939,-1.2915,-1.2915,-1.2915,-1.2915,-1.2881,-1.2881,-1.2856,-1.2856,-1.2856,-1.2856,-1.2832,-1.2822,-1.2847,-1.2968,-1.3123,-1.3272,-1.342,-1.3539,-1.3692,-1.3952,-1.4233,-1.4443,-1.4686,-1.5028,-1.539,-1.5724,-1.6001,-1.6231,-1.6349,-1.65,-1.6641,-1.6791,-1.6981,-1.7128,-1.7406,-1.7727,-1.7975,-1.8274,-1.8702,-1.9064,-1.9321,-1.9505,-1.965,-1.9672,-1.9705,-1.9723,-1.9723,-1.9723,-1.9723,-1.9723,-1.9723,-1.9723,-1.9723,-1.9723,0.1094,0.0841,0.0477,0.014,-0.0168,-0.0617,-0.1038,-0.1485,-0.1931,-0.2408,-0.2833,-0.3198,-0.3588,-0.4107,-0.4245,-0.4356,-0.4522,-0.4715,-0.4936,-0.5207,-0.5403,-0.5755,-0.6245,-0.6847,-0.7386,-0.7991,-0.8591,-0.9045,-0.9643,-0.9894,-1.0189,-1.0717,-1.0977,-1.1387,-1.1806,-1.2076,-1.2323,-1.2455,-1.2554,-1.2676,-1.292,-1.332,-1.3726,-1.408,-1.443,-1.4811,-1.5153,-1.5424,-1.5647,-1.5703,-1.5525,-1.5119,-1.4754,-1.443,-1.408,-1.3716,-1.3396,-1.3248,-1.3099,-1.2954,-1.2905,-1.2915,-1.2915,-1.2881,-1.2856,-1.2774,-1.2749,-1.2676,-1.2652,-1.2627,-1.2627,-1.2578,-1.2569,-1.2569,-1.2642,-1.2774,-1.2944,-1.3031,-1.3128,-1.331,-1.3539,-1.3776,-1.3975,-1.4269,-1.4663,-1.5028,-1.5412,-1.5714,-1.6066,-1.6241,-1.6392,-1.6513,-1.6633,-1.6697,-1.6803,-1.7115,-1.7427,-1.7659,-1.7962,-1.845,-1.887,-1.9191,-1.9376,-1.9523,-1.9636,-1.969,-1.9705,-1.9705,-1.9723,-1.9723,-1.9723,-1.9723,-1.9723,-1.9723,-1.9723]}]]